<?xml version="1.0" encoding="UTF-8" standalone="no" ?>
<gpx xmlns="http://www.topografix.com/GPX/1/1" xmlns:xsi="http://www.w3.org/2001/XMLSchema-instance" xsi:schemaLocation="http://www.topografix.com/GPX/1/1 http://www.topografix.com/GPX/1/1/gpx.xsd" version="1.1" creator="VisuGPX - https://www.visugpx.com">
  <metadata>
    <name>Tours to Bourges</name>
    <desc><![CDATA[Tracé récupéré et modifié de http://www.velocanauxdodo.fr/?page_id=5108]]></desc>
  </metadata>
  <wpt lat="47.26835" lon="1.86209">
    <ele>89</ele>
    <name><![CDATA[Camping Municipal Val Rose - Mennetou sur Cher [<51] (07/05-07/09) (90m) +33254980119]]></name>
    <desc><![CDATA[description=Rue de Val Rose 41320 Mennetou-sur-Cher
Tél : 02.54.98.11.02
Mail : mairie.mennetou@wanadoo.fr

OUVERTURE DU CAMPING DU 30 MAI 2019 AU 1er SEPTEMBRE 2019

Horaires d'ouverture :
Du lundi au dimanche
7h00 - 11h00 et 17h00 - 21h00

http://mennetou.fr/tourisme/se-loger-restauration/camping-municipal
name=Camping Municipal Val Rose - Mennetou sur Cher [<51] (07/05-07/09) (90m) +33254980119]]></desc>
  </wpt>
  <wpt lat="47.37073" lon="0.72431">
    <ele>48</ele>
    <name><![CDATA[Camping Val de Loire - St. Avertin (37) (01/02-15/12) -CCA (49m) +33247278747]]></name>
    <desc><![CDATA[description=Camping Onlycamp Tours Val de Loire St 61 rue de Rochepinard 37550 Saint-Avertin

Autre tarif	de 10.10	€	à 12.30	€	Pour 1 personne sans véhicule sans électricité en tente
Taxe de séjour	0.66	€	Pour les plus de 18 ans et par personne et par nuit.

https://www.onlycamp.fr/
name=Camping Val de Loire - St. Avertin (37) (01/02-15/12) -CCA (49m) +33247278747]]></desc>
  </wpt>
  <trk>
    <name><![CDATA[Tours > Montrichard (47 km)]]></name>
    <desc><![CDATA[Globalement beau chemin roulant le long du Cher sur toute l’étape. Prendre rive droite à la sortie de Montrichard par l’amorce d’une voie verte. Pout avoir une belle vue de Chenonceau passer rive gauche au pont de la D80 avant le chateau et y rester jusqu’à Azay. Belle voie verte après le pont de la D81 jusqu’à Bléré. A Azay passer rive droite jusqu’à Tours. Traversée de voies difficiles au niveau du pont de l’A10 puis pistes cyclables dans toute la ville; un bonheur.]]></desc>
    <trkseg>
      <trkpt lat="47.38982" lon="0.69338">
        <ele>47.24</ele>
        <time>2015-08-15T15:03:18Z</time>
      </trkpt>
      <trkpt lat="47.38982" lon="0.69338">
        <ele>43.4</ele>
        <time>2015-08-15T15:03:19Z</time>
      </trkpt>
      <trkpt lat="47.38982" lon="0.69338">
        <ele>51.57</ele>
        <time>2015-08-15T15:03:22Z</time>
      </trkpt>
      <trkpt lat="47.38981" lon="0.69338">
        <ele>46.28</ele>
        <time>2015-08-15T15:03:23Z</time>
      </trkpt>
      <trkpt lat="47.38982" lon="0.69338">
        <ele>49.16</ele>
        <time>2015-08-15T15:03:38Z</time>
      </trkpt>
      <trkpt lat="47.38981" lon="0.69337">
        <ele>49.16</ele>
        <time>2015-08-15T15:04:07Z</time>
      </trkpt>
      <trkpt lat="47.38979" lon="0.69335">
        <ele>49.16</ele>
        <time>2015-08-15T15:04:38Z</time>
      </trkpt>
      <trkpt lat="47.3898" lon="0.69335">
        <ele>49.16</ele>
        <time>2015-08-15T15:05:11Z</time>
      </trkpt>
      <trkpt lat="47.3898" lon="0.69334">
        <ele>49.16</ele>
        <time>2015-08-15T15:05:38Z</time>
      </trkpt>
      <trkpt lat="47.3898" lon="0.69337">
        <ele>48.68</ele>
        <time>2015-08-15T15:06:05Z</time>
      </trkpt>
      <trkpt lat="47.3898" lon="0.69338">
        <ele>48.68</ele>
        <time>2015-08-15T15:06:35Z</time>
      </trkpt>
      <trkpt lat="47.38979" lon="0.69339">
        <ele>48.68</ele>
        <time>2015-08-15T15:07:06Z</time>
      </trkpt>
      <trkpt lat="47.38978" lon="0.69338">
        <ele>48.68</ele>
        <time>2015-08-15T15:07:35Z</time>
      </trkpt>
      <trkpt lat="47.38975" lon="0.69336">
        <ele>48.68</ele>
        <time>2015-08-15T15:08:06Z</time>
      </trkpt>
      <trkpt lat="47.38967" lon="0.69335">
        <ele>48.68</ele>
        <time>2015-08-15T15:08:37Z</time>
      </trkpt>
      <trkpt lat="47.38966" lon="0.69335">
        <ele>48.68</ele>
        <time>2015-08-15T15:08:55Z</time>
      </trkpt>
      <trkpt lat="47.38959" lon="0.69325">
        <ele>48.68</ele>
        <time>2015-08-15T15:09:05Z</time>
      </trkpt>
      <trkpt lat="47.38958" lon="0.69323">
        <ele>48.68</ele>
        <time>2015-08-15T15:09:06Z</time>
      </trkpt>
      <trkpt lat="47.38956" lon="0.69321">
        <ele>48.68</ele>
        <time>2015-08-15T15:09:07Z</time>
      </trkpt>
      <trkpt lat="47.38955" lon="0.69319">
        <ele>48.68</ele>
        <time>2015-08-15T15:09:08Z</time>
      </trkpt>
      <trkpt lat="47.38953" lon="0.69317">
        <ele>48.2</ele>
        <time>2015-08-15T15:09:09Z</time>
      </trkpt>
      <trkpt lat="47.38951" lon="0.69317">
        <ele>48.2</ele>
        <time>2015-08-15T15:09:10Z</time>
      </trkpt>
      <trkpt lat="47.38941" lon="0.69325">
        <ele>48.68</ele>
        <time>2015-08-15T15:09:14Z</time>
      </trkpt>
      <trkpt lat="47.38911" lon="0.69353">
        <ele>48.68</ele>
        <time>2015-08-15T15:09:26Z</time>
      </trkpt>
      <trkpt lat="47.38909" lon="0.69354">
        <ele>48.68</ele>
        <time>2015-08-15T15:09:27Z</time>
      </trkpt>
      <trkpt lat="47.38906" lon="0.69356">
        <ele>48.68</ele>
        <time>2015-08-15T15:09:28Z</time>
      </trkpt>
      <trkpt lat="47.38903" lon="0.69357">
        <ele>48.68</ele>
        <time>2015-08-15T15:09:29Z</time>
      </trkpt>
      <trkpt lat="47.38901" lon="0.69358">
        <ele>48.68</ele>
        <time>2015-08-15T15:09:30Z</time>
      </trkpt>
      <trkpt lat="47.38899" lon="0.69359">
        <ele>48.68</ele>
        <time>2015-08-15T15:09:31Z</time>
      </trkpt>
      <trkpt lat="47.38896" lon="0.69359">
        <ele>48.2</ele>
        <time>2015-08-15T15:09:32Z</time>
      </trkpt>
      <trkpt lat="47.38894" lon="0.69357">
        <ele>48.2</ele>
        <time>2015-08-15T15:09:33Z</time>
      </trkpt>
      <trkpt lat="47.38893" lon="0.69356">
        <ele>48.68</ele>
        <time>2015-08-15T15:09:34Z</time>
      </trkpt>
      <trkpt lat="47.38891" lon="0.69353">
        <ele>48.68</ele>
        <time>2015-08-15T15:09:35Z</time>
      </trkpt>
      <trkpt lat="47.3889" lon="0.69352">
        <ele>48.2</ele>
        <time>2015-08-15T15:09:36Z</time>
      </trkpt>
      <trkpt lat="47.38888" lon="0.6935">
        <ele>48.2</ele>
        <time>2015-08-15T15:09:37Z</time>
      </trkpt>
      <trkpt lat="47.38876" lon="0.69353">
        <ele>48.68</ele>
        <time>2015-08-15T15:09:42Z</time>
      </trkpt>
      <trkpt lat="47.38825" lon="0.69379">
        <ele>48.2</ele>
        <time>2015-08-15T15:09:57Z</time>
      </trkpt>
      <trkpt lat="47.38783" lon="0.69427">
        <ele>48.68</ele>
        <time>2015-08-15T15:10:12Z</time>
      </trkpt>
      <trkpt lat="47.38741" lon="0.69467">
        <ele>48.68</ele>
        <time>2015-08-15T15:10:24Z</time>
      </trkpt>
      <trkpt lat="47.38704" lon="0.69495">
        <ele>49.16</ele>
        <time>2015-08-15T15:10:36Z</time>
      </trkpt>
      <trkpt lat="47.38672" lon="0.69508">
        <ele>49.16</ele>
        <time>2015-08-15T15:10:49Z</time>
      </trkpt>
      <trkpt lat="47.38643" lon="0.69528">
        <ele>48.68</ele>
        <time>2015-08-15T15:11:02Z</time>
      </trkpt>
      <trkpt lat="47.38642" lon="0.69529">
        <ele>48.68</ele>
        <time>2015-08-15T15:11:03Z</time>
      </trkpt>
      <trkpt lat="47.38641" lon="0.6953">
        <ele>48.68</ele>
        <time>2015-08-15T15:11:04Z</time>
      </trkpt>
      <trkpt lat="47.3864" lon="0.69531">
        <ele>48.68</ele>
        <time>2015-08-15T15:11:06Z</time>
      </trkpt>
      <trkpt lat="47.38639" lon="0.69531">
        <ele>48.68</ele>
        <time>2015-08-15T15:11:28Z</time>
      </trkpt>
      <trkpt lat="47.3863" lon="0.69519">
        <ele>48.68</ele>
        <time>2015-08-15T15:11:38Z</time>
      </trkpt>
      <trkpt lat="47.38609" lon="0.69486">
        <ele>47.72</ele>
        <time>2015-08-15T15:11:50Z</time>
      </trkpt>
      <trkpt lat="47.38607" lon="0.69485">
        <ele>47.72</ele>
        <time>2015-08-15T15:11:51Z</time>
      </trkpt>
      <trkpt lat="47.38581" lon="0.69508">
        <ele>47.72</ele>
        <time>2015-08-15T15:12:00Z</time>
      </trkpt>
      <trkpt lat="47.38578" lon="0.69511">
        <ele>47.72</ele>
        <time>2015-08-15T15:12:01Z</time>
      </trkpt>
      <trkpt lat="47.38543" lon="0.69544">
        <ele>47.72</ele>
        <time>2015-08-15T15:12:11Z</time>
      </trkpt>
      <trkpt lat="47.3854" lon="0.69547">
        <ele>47.72</ele>
        <time>2015-08-15T15:12:12Z</time>
      </trkpt>
      <trkpt lat="47.38503" lon="0.69564">
        <ele>47.72</ele>
        <time>2015-08-15T15:12:21Z</time>
      </trkpt>
      <trkpt lat="47.38457" lon="0.69583">
        <ele>47.72</ele>
        <time>2015-08-15T15:12:35Z</time>
      </trkpt>
      <trkpt lat="47.38396" lon="0.6961">
        <ele>48.68</ele>
        <time>2015-08-15T15:12:51Z</time>
      </trkpt>
      <trkpt lat="47.38355" lon="0.69626">
        <ele>48.68</ele>
        <time>2015-08-15T15:13:04Z</time>
      </trkpt>
      <trkpt lat="47.38346" lon="0.6963">
        <ele>48.68</ele>
        <time>2015-08-15T15:13:18Z</time>
      </trkpt>
      <trkpt lat="47.38296" lon="0.69648">
        <ele>48.68</ele>
        <time>2015-08-15T15:13:35Z</time>
      </trkpt>
      <trkpt lat="47.38253" lon="0.69665">
        <ele>48.68</ele>
        <time>2015-08-15T15:13:49Z</time>
      </trkpt>
      <trkpt lat="47.38189" lon="0.69691">
        <ele>50.13</ele>
        <time>2015-08-15T15:14:08Z</time>
      </trkpt>
      <trkpt lat="47.38186" lon="0.69693">
        <ele>48.68</ele>
        <time>2015-08-15T15:14:09Z</time>
      </trkpt>
      <trkpt lat="47.38183" lon="0.69693">
        <ele>48.68</ele>
        <time>2015-08-15T15:14:10Z</time>
      </trkpt>
      <trkpt lat="47.3818" lon="0.69694">
        <ele>48.68</ele>
        <time>2015-08-15T15:14:11Z</time>
      </trkpt>
      <trkpt lat="47.38178" lon="0.69696">
        <ele>48.2</ele>
        <time>2015-08-15T15:14:12Z</time>
      </trkpt>
      <trkpt lat="47.38176" lon="0.69699">
        <ele>48.68</ele>
        <time>2015-08-15T15:14:13Z</time>
      </trkpt>
      <trkpt lat="47.38174" lon="0.69702">
        <ele>48.68</ele>
        <time>2015-08-15T15:14:14Z</time>
      </trkpt>
      <trkpt lat="47.38177" lon="0.69718">
        <ele>48.68</ele>
        <time>2015-08-15T15:14:18Z</time>
      </trkpt>
      <trkpt lat="47.38177" lon="0.69722">
        <ele>48.2</ele>
        <time>2015-08-15T15:14:19Z</time>
      </trkpt>
      <trkpt lat="47.38178" lon="0.69725">
        <ele>48.68</ele>
        <time>2015-08-15T15:14:20Z</time>
      </trkpt>
      <trkpt lat="47.38178" lon="0.69728">
        <ele>48.68</ele>
        <time>2015-08-15T15:14:21Z</time>
      </trkpt>
      <trkpt lat="47.38178" lon="0.69732">
        <ele>48.68</ele>
        <time>2015-08-15T15:14:22Z</time>
      </trkpt>
      <trkpt lat="47.38177" lon="0.69735">
        <ele>48.68</ele>
        <time>2015-08-15T15:14:23Z</time>
      </trkpt>
      <trkpt lat="47.38176" lon="0.69737">
        <ele>48.68</ele>
        <time>2015-08-15T15:14:24Z</time>
      </trkpt>
      <trkpt lat="47.38174" lon="0.69738">
        <ele>48.2</ele>
        <time>2015-08-15T15:14:25Z</time>
      </trkpt>
      <trkpt lat="47.38129" lon="0.69758">
        <ele>48.68</ele>
        <time>2015-08-15T15:14:39Z</time>
      </trkpt>
      <trkpt lat="47.38086" lon="0.69774">
        <ele>49.16</ele>
        <time>2015-08-15T15:14:53Z</time>
      </trkpt>
      <trkpt lat="47.38084" lon="0.69775">
        <ele>49.16</ele>
        <time>2015-08-15T15:14:54Z</time>
      </trkpt>
      <trkpt lat="47.38082" lon="0.69775">
        <ele>49.16</ele>
        <time>2015-08-15T15:14:55Z</time>
      </trkpt>
      <trkpt lat="47.3808" lon="0.69776">
        <ele>49.16</ele>
        <time>2015-08-15T15:14:56Z</time>
      </trkpt>
      <trkpt lat="47.38078" lon="0.69775">
        <ele>49.16</ele>
        <time>2015-08-15T15:14:57Z</time>
      </trkpt>
      <trkpt lat="47.38076" lon="0.69775">
        <ele>49.16</ele>
        <time>2015-08-15T15:14:58Z</time>
      </trkpt>
      <trkpt lat="47.38074" lon="0.69774">
        <ele>49.16</ele>
        <time>2015-08-15T15:14:59Z</time>
      </trkpt>
      <trkpt lat="47.38072" lon="0.69772">
        <ele>48.68</ele>
        <time>2015-08-15T15:15:00Z</time>
      </trkpt>
      <trkpt lat="47.3807" lon="0.69767">
        <ele>48.68</ele>
        <time>2015-08-15T15:15:02Z</time>
      </trkpt>
      <trkpt lat="47.38069" lon="0.69765">
        <ele>48.68</ele>
        <time>2015-08-15T15:15:03Z</time>
      </trkpt>
      <trkpt lat="47.38068" lon="0.69763">
        <ele>49.16</ele>
        <time>2015-08-15T15:15:04Z</time>
      </trkpt>
      <trkpt lat="47.38066" lon="0.69761">
        <ele>49.16</ele>
        <time>2015-08-15T15:15:05Z</time>
      </trkpt>
      <trkpt lat="47.38065" lon="0.69761">
        <ele>48.68</ele>
        <time>2015-08-15T15:15:06Z</time>
      </trkpt>
      <trkpt lat="47.38064" lon="0.69762">
        <ele>49.16</ele>
        <time>2015-08-15T15:15:07Z</time>
      </trkpt>
      <trkpt lat="47.38062" lon="0.69762">
        <ele>49.16</ele>
        <time>2015-08-15T15:15:08Z</time>
      </trkpt>
      <trkpt lat="47.3806" lon="0.69763">
        <ele>49.16</ele>
        <time>2015-08-15T15:15:09Z</time>
      </trkpt>
      <trkpt lat="47.38058" lon="0.69763">
        <ele>49.16</ele>
        <time>2015-08-15T15:15:10Z</time>
      </trkpt>
      <trkpt lat="47.38055" lon="0.69763">
        <ele>49.16</ele>
        <time>2015-08-15T15:15:14Z</time>
      </trkpt>
      <trkpt lat="47.38058" lon="0.69773">
        <ele>49.16</ele>
        <time>2015-08-15T15:15:27Z</time>
      </trkpt>
      <trkpt lat="47.38064" lon="0.69818">
        <ele>49.16</ele>
        <time>2015-08-15T15:15:39Z</time>
      </trkpt>
      <trkpt lat="47.3808" lon="0.699">
        <ele>49.16</ele>
        <time>2015-08-15T15:15:54Z</time>
      </trkpt>
      <trkpt lat="47.38084" lon="0.69925">
        <ele>49.16</ele>
        <time>2015-08-15T15:15:58Z</time>
      </trkpt>
      <trkpt lat="47.38093" lon="0.69975">
        <ele>49.16</ele>
        <time>2015-08-15T15:16:07Z</time>
      </trkpt>
      <trkpt lat="47.38083" lon="0.70012">
        <ele>49.16</ele>
        <time>2015-08-15T15:16:18Z</time>
      </trkpt>
      <trkpt lat="47.38081" lon="0.70013">
        <ele>48.68</ele>
        <time>2015-08-15T15:16:20Z</time>
      </trkpt>
      <trkpt lat="47.3808" lon="0.70017">
        <ele>48.68</ele>
        <time>2015-08-15T15:16:49Z</time>
      </trkpt>
      <trkpt lat="47.38079" lon="0.70019">
        <ele>49.16</ele>
        <time>2015-08-15T15:17:10Z</time>
      </trkpt>
      <trkpt lat="47.38048" lon="0.70027">
        <ele>48.68</ele>
        <time>2015-08-15T15:17:24Z</time>
      </trkpt>
      <trkpt lat="47.37987" lon="0.70051">
        <ele>48.68</ele>
        <time>2015-08-15T15:17:41Z</time>
      </trkpt>
      <trkpt lat="47.37929" lon="0.70077">
        <ele>48.68</ele>
        <time>2015-08-15T15:17:58Z</time>
      </trkpt>
      <trkpt lat="47.37889" lon="0.70093">
        <ele>48.68</ele>
        <time>2015-08-15T15:18:11Z</time>
      </trkpt>
      <trkpt lat="47.37841" lon="0.70119">
        <ele>48.2</ele>
        <time>2015-08-15T15:18:27Z</time>
      </trkpt>
      <trkpt lat="47.37792" lon="0.7015">
        <ele>47.72</ele>
        <time>2015-08-15T15:18:42Z</time>
      </trkpt>
      <trkpt lat="47.37788" lon="0.70152">
        <ele>47.72</ele>
        <time>2015-08-15T15:18:43Z</time>
      </trkpt>
      <trkpt lat="47.37726" lon="0.70192">
        <ele>48.68</ele>
        <time>2015-08-15T15:18:59Z</time>
      </trkpt>
      <trkpt lat="47.37667" lon="0.7022">
        <ele>48.68</ele>
        <time>2015-08-15T15:19:15Z</time>
      </trkpt>
      <trkpt lat="47.37612" lon="0.7025">
        <ele>48.2</ele>
        <time>2015-08-15T15:19:30Z</time>
      </trkpt>
      <trkpt lat="47.37608" lon="0.70251">
        <ele>48.2</ele>
        <time>2015-08-15T15:19:31Z</time>
      </trkpt>
      <trkpt lat="47.37604" lon="0.70251">
        <ele>48.2</ele>
        <time>2015-08-15T15:19:32Z</time>
      </trkpt>
      <trkpt lat="47.37591" lon="0.70254">
        <ele>48.2</ele>
        <time>2015-08-15T15:19:35Z</time>
      </trkpt>
      <trkpt lat="47.37527" lon="0.70284">
        <ele>48.2</ele>
        <time>2015-08-15T15:19:50Z</time>
      </trkpt>
      <trkpt lat="47.37504" lon="0.70285">
        <ele>48.2</ele>
        <time>2015-08-15T15:19:55Z</time>
      </trkpt>
      <trkpt lat="47.37499" lon="0.70286">
        <ele>48.2</ele>
        <time>2015-08-15T15:19:56Z</time>
      </trkpt>
      <trkpt lat="47.37485" lon="0.70288">
        <ele>48.68</ele>
        <time>2015-08-15T15:19:59Z</time>
      </trkpt>
      <trkpt lat="47.37481" lon="0.70288">
        <ele>48.68</ele>
        <time>2015-08-15T15:20:00Z</time>
      </trkpt>
      <trkpt lat="47.37477" lon="0.70286">
        <ele>48.68</ele>
        <time>2015-08-15T15:20:01Z</time>
      </trkpt>
      <trkpt lat="47.37452" lon="0.70283">
        <ele>49.65</ele>
        <time>2015-08-15T15:20:08Z</time>
      </trkpt>
      <trkpt lat="47.3745" lon="0.70283">
        <ele>49.65</ele>
        <time>2015-08-15T15:20:09Z</time>
      </trkpt>
      <trkpt lat="47.37448" lon="0.70282">
        <ele>50.13</ele>
        <time>2015-08-15T15:20:10Z</time>
      </trkpt>
      <trkpt lat="47.37444" lon="0.70282">
        <ele>50.61</ele>
        <time>2015-08-15T15:20:13Z</time>
      </trkpt>
      <trkpt lat="47.37443" lon="0.70282">
        <ele>50.61</ele>
        <time>2015-08-15T15:20:14Z</time>
      </trkpt>
      <trkpt lat="47.37441" lon="0.70283">
        <ele>50.61</ele>
        <time>2015-08-15T15:20:15Z</time>
      </trkpt>
      <trkpt lat="47.37434" lon="0.70285">
        <ele>50.61</ele>
        <time>2015-08-15T15:20:22Z</time>
      </trkpt>
      <trkpt lat="47.37432" lon="0.70286">
        <ele>50.13</ele>
        <time>2015-08-15T15:20:23Z</time>
      </trkpt>
      <trkpt lat="47.37431" lon="0.70286">
        <ele>50.13</ele>
        <time>2015-08-15T15:20:24Z</time>
      </trkpt>
      <trkpt lat="47.3743" lon="0.70286">
        <ele>50.61</ele>
        <time>2015-08-15T15:20:25Z</time>
      </trkpt>
      <trkpt lat="47.37423" lon="0.70284">
        <ele>50.13</ele>
        <time>2015-08-15T15:20:41Z</time>
      </trkpt>
      <trkpt lat="47.37421" lon="0.70283">
        <ele>50.13</ele>
        <time>2015-08-15T15:20:49Z</time>
      </trkpt>
      <trkpt lat="47.37422" lon="0.70251">
        <ele>51.09</ele>
        <time>2015-08-15T15:21:00Z</time>
      </trkpt>
      <trkpt lat="47.3742" lon="0.70153">
        <ele>52.53</ele>
        <time>2015-08-15T15:21:17Z</time>
      </trkpt>
      <trkpt lat="47.37411" lon="0.70088">
        <ele>52.53</ele>
        <time>2015-08-15T15:21:29Z</time>
      </trkpt>
      <trkpt lat="47.37408" lon="0.70027">
        <ele>53.01</ele>
        <time>2015-08-15T15:21:43Z</time>
      </trkpt>
      <trkpt lat="47.37407" lon="0.70024">
        <ele>53.01</ele>
        <time>2015-08-15T15:21:45Z</time>
      </trkpt>
      <trkpt lat="47.37408" lon="0.70024">
        <ele>53.01</ele>
        <time>2015-08-15T15:21:56Z</time>
      </trkpt>
      <trkpt lat="47.37408" lon="0.70024">
        <ele>53.01</ele>
        <time>2015-08-15T15:22:32Z</time>
      </trkpt>
      <trkpt lat="47.37409" lon="0.70024">
        <ele>52.53</ele>
        <time>2015-08-15T15:22:57Z</time>
      </trkpt>
      <trkpt lat="47.37408" lon="0.70023">
        <ele>52.53</ele>
        <time>2015-08-15T15:23:29Z</time>
      </trkpt>
      <trkpt lat="47.37408" lon="0.70023">
        <ele>53.01</ele>
        <time>2015-08-15T15:24:00Z</time>
      </trkpt>
      <trkpt lat="47.37407" lon="0.70022">
        <ele>53.01</ele>
        <time>2015-08-15T15:24:33Z</time>
      </trkpt>
      <trkpt lat="47.37408" lon="0.70022">
        <ele>53.01</ele>
        <time>2015-08-15T15:25:02Z</time>
      </trkpt>
      <trkpt lat="47.37408" lon="0.70023">
        <ele>53.01</ele>
        <time>2015-08-15T15:25:35Z</time>
      </trkpt>
      <trkpt lat="47.37408" lon="0.70022">
        <ele>53.01</ele>
        <time>2015-08-15T15:26:07Z</time>
      </trkpt>
      <trkpt lat="47.37407" lon="0.70022">
        <ele>53.01</ele>
        <time>2015-08-15T15:26:35Z</time>
      </trkpt>
      <trkpt lat="47.37407" lon="0.70021">
        <ele>53.49</ele>
        <time>2015-08-15T15:27:02Z</time>
      </trkpt>
      <trkpt lat="47.37408" lon="0.7002">
        <ele>53.01</ele>
        <time>2015-08-15T15:27:22Z</time>
      </trkpt>
      <trkpt lat="47.37409" lon="0.69972">
        <ele>53.01</ele>
        <time>2015-08-15T15:27:34Z</time>
      </trkpt>
      <trkpt lat="47.37402" lon="0.69884">
        <ele>53.49</ele>
        <time>2015-08-15T15:27:52Z</time>
      </trkpt>
      <trkpt lat="47.374" lon="0.69815">
        <ele>55.41</ele>
        <time>2015-08-15T15:28:06Z</time>
      </trkpt>
      <trkpt lat="47.374" lon="0.6981">
        <ele>51.09</ele>
        <time>2015-08-15T15:28:07Z</time>
      </trkpt>
      <trkpt lat="47.37397" lon="0.6976">
        <ele>54.93</ele>
        <time>2015-08-15T15:28:16Z</time>
      </trkpt>
      <trkpt lat="47.37393" lon="0.69667">
        <ele>53.49</ele>
        <time>2015-08-15T15:28:34Z</time>
      </trkpt>
      <trkpt lat="47.37387" lon="0.69597">
        <ele>54.45</ele>
        <time>2015-08-15T15:28:50Z</time>
      </trkpt>
      <trkpt lat="47.37386" lon="0.69585">
        <ele>54.45</ele>
        <time>2015-08-15T15:28:56Z</time>
      </trkpt>
      <trkpt lat="47.37386" lon="0.69584">
        <ele>54.45</ele>
        <time>2015-08-15T15:29:19Z</time>
      </trkpt>
      <trkpt lat="47.37387" lon="0.69584">
        <ele>54.45</ele>
        <time>2015-08-15T15:29:52Z</time>
      </trkpt>
      <trkpt lat="47.37386" lon="0.69583">
        <ele>54.45</ele>
        <time>2015-08-15T15:30:23Z</time>
      </trkpt>
      <trkpt lat="47.37387" lon="0.69582">
        <ele>54.45</ele>
        <time>2015-08-15T15:30:58Z</time>
      </trkpt>
      <trkpt lat="47.37386" lon="0.69583">
        <ele>53.97</ele>
        <time>2015-08-15T15:31:26Z</time>
      </trkpt>
      <trkpt lat="47.37384" lon="0.69581">
        <ele>54.45</ele>
        <time>2015-08-15T15:31:39Z</time>
      </trkpt>
      <trkpt lat="47.37358" lon="0.69599">
        <ele>54.45</ele>
        <time>2015-08-15T15:31:51Z</time>
      </trkpt>
      <trkpt lat="47.37327" lon="0.6962">
        <ele>54.45</ele>
        <time>2015-08-15T15:32:01Z</time>
      </trkpt>
      <trkpt lat="47.37293" lon="0.69617">
        <ele>54.93</ele>
        <time>2015-08-15T15:32:12Z</time>
      </trkpt>
      <trkpt lat="47.37289" lon="0.69617">
        <ele>54.45</ele>
        <time>2015-08-15T15:32:13Z</time>
      </trkpt>
      <trkpt lat="47.3727" lon="0.69619">
        <ele>55.89</ele>
        <time>2015-08-15T15:32:19Z</time>
      </trkpt>
      <trkpt lat="47.37267" lon="0.69618">
        <ele>54.93</ele>
        <time>2015-08-15T15:32:20Z</time>
      </trkpt>
      <trkpt lat="47.37236" lon="0.69621">
        <ele>55.41</ele>
        <time>2015-08-15T15:32:30Z</time>
      </trkpt>
      <trkpt lat="47.37167" lon="0.69648">
        <ele>56.37</ele>
        <time>2015-08-15T15:32:49Z</time>
      </trkpt>
      <trkpt lat="47.37102" lon="0.69676">
        <ele>55.89</ele>
        <time>2015-08-15T15:33:09Z</time>
      </trkpt>
      <trkpt lat="47.37068" lon="0.69696">
        <ele>54.93</ele>
        <time>2015-08-15T15:33:20Z</time>
      </trkpt>
      <trkpt lat="47.37036" lon="0.69706">
        <ele>54.45</ele>
        <time>2015-08-15T15:33:34Z</time>
      </trkpt>
      <trkpt lat="47.36987" lon="0.69722">
        <ele>54.45</ele>
        <time>2015-08-15T15:33:50Z</time>
      </trkpt>
      <trkpt lat="47.36938" lon="0.69743">
        <ele>54.45</ele>
        <time>2015-08-15T15:34:07Z</time>
      </trkpt>
      <trkpt lat="47.36936" lon="0.69744">
        <ele>54.45</ele>
        <time>2015-08-15T15:34:08Z</time>
      </trkpt>
      <trkpt lat="47.36934" lon="0.69745">
        <ele>54.45</ele>
        <time>2015-08-15T15:34:09Z</time>
      </trkpt>
      <trkpt lat="47.36932" lon="0.69746">
        <ele>54.45</ele>
        <time>2015-08-15T15:34:10Z</time>
      </trkpt>
      <trkpt lat="47.3693" lon="0.69747">
        <ele>54.45</ele>
        <time>2015-08-15T15:34:11Z</time>
      </trkpt>
      <trkpt lat="47.36929" lon="0.69748">
        <ele>54.45</ele>
        <time>2015-08-15T15:34:12Z</time>
      </trkpt>
      <trkpt lat="47.36927" lon="0.69749">
        <ele>54.45</ele>
        <time>2015-08-15T15:34:13Z</time>
      </trkpt>
      <trkpt lat="47.36926" lon="0.6975">
        <ele>54.45</ele>
        <time>2015-08-15T15:34:14Z</time>
      </trkpt>
      <trkpt lat="47.36925" lon="0.69752">
        <ele>54.45</ele>
        <time>2015-08-15T15:34:15Z</time>
      </trkpt>
      <trkpt lat="47.36924" lon="0.69753">
        <ele>54.45</ele>
        <time>2015-08-15T15:34:16Z</time>
      </trkpt>
      <trkpt lat="47.36921" lon="0.69756">
        <ele>54.93</ele>
        <time>2015-08-15T15:34:20Z</time>
      </trkpt>
      <trkpt lat="47.36916" lon="0.69765">
        <ele>53.49</ele>
        <time>2015-08-15T15:34:33Z</time>
      </trkpt>
      <trkpt lat="47.36922" lon="0.69766">
        <ele>53.01</ele>
        <time>2015-08-15T15:34:38Z</time>
      </trkpt>
      <trkpt lat="47.36924" lon="0.69768">
        <ele>52.53</ele>
        <time>2015-08-15T15:34:40Z</time>
      </trkpt>
      <trkpt lat="47.36933" lon="0.69809">
        <ele>53.01</ele>
        <time>2015-08-15T15:34:51Z</time>
      </trkpt>
      <trkpt lat="47.36945" lon="0.69883">
        <ele>53.01</ele>
        <time>2015-08-15T15:35:05Z</time>
      </trkpt>
      <trkpt lat="47.36947" lon="0.69942">
        <ele>52.53</ele>
        <time>2015-08-15T15:35:16Z</time>
      </trkpt>
      <trkpt lat="47.36954" lon="0.69993">
        <ele>52.53</ele>
        <time>2015-08-15T15:35:26Z</time>
      </trkpt>
      <trkpt lat="47.36954" lon="0.70066">
        <ele>52.53</ele>
        <time>2015-08-15T15:35:40Z</time>
      </trkpt>
      <trkpt lat="47.36961" lon="0.70127">
        <ele>52.53</ele>
        <time>2015-08-15T15:35:52Z</time>
      </trkpt>
      <trkpt lat="47.36959" lon="0.70195">
        <ele>53.01</ele>
        <time>2015-08-15T15:36:06Z</time>
      </trkpt>
      <trkpt lat="47.36959" lon="0.70199">
        <ele>53.01</ele>
        <time>2015-08-15T15:36:07Z</time>
      </trkpt>
      <trkpt lat="47.36958" lon="0.70203">
        <ele>53.01</ele>
        <time>2015-08-15T15:36:08Z</time>
      </trkpt>
      <trkpt lat="47.3696" lon="0.70219">
        <ele>52.53</ele>
        <time>2015-08-15T15:36:12Z</time>
      </trkpt>
      <trkpt lat="47.3695" lon="0.70264">
        <ele>51.09</ele>
        <time>2015-08-15T15:36:25Z</time>
      </trkpt>
      <trkpt lat="47.3695" lon="0.7032">
        <ele>50.61</ele>
        <time>2015-08-15T15:36:37Z</time>
      </trkpt>
      <trkpt lat="47.36947" lon="0.70373">
        <ele>50.61</ele>
        <time>2015-08-15T15:36:48Z</time>
      </trkpt>
      <trkpt lat="47.36947" lon="0.70379">
        <ele>50.61</ele>
        <time>2015-08-15T15:36:49Z</time>
      </trkpt>
      <trkpt lat="47.36951" lon="0.70438">
        <ele>52.05</ele>
        <time>2015-08-15T15:36:59Z</time>
      </trkpt>
      <trkpt lat="47.36951" lon="0.70442">
        <ele>52.05</ele>
        <time>2015-08-15T15:37:00Z</time>
      </trkpt>
      <trkpt lat="47.3695" lon="0.70445">
        <ele>52.05</ele>
        <time>2015-08-15T15:37:01Z</time>
      </trkpt>
      <trkpt lat="47.3695" lon="0.70447">
        <ele>52.05</ele>
        <time>2015-08-15T15:37:02Z</time>
      </trkpt>
      <trkpt lat="47.36949" lon="0.7045">
        <ele>52.05</ele>
        <time>2015-08-15T15:37:03Z</time>
      </trkpt>
      <trkpt lat="47.36949" lon="0.70453">
        <ele>52.05</ele>
        <time>2015-08-15T15:37:04Z</time>
      </trkpt>
      <trkpt lat="47.36949" lon="0.70456">
        <ele>52.05</ele>
        <time>2015-08-15T15:37:05Z</time>
      </trkpt>
      <trkpt lat="47.3695" lon="0.70459">
        <ele>52.05</ele>
        <time>2015-08-15T15:37:06Z</time>
      </trkpt>
      <trkpt lat="47.36949" lon="0.70463">
        <ele>52.05</ele>
        <time>2015-08-15T15:37:07Z</time>
      </trkpt>
      <trkpt lat="47.36949" lon="0.70466">
        <ele>52.05</ele>
        <time>2015-08-15T15:37:08Z</time>
      </trkpt>
      <trkpt lat="47.3695" lon="0.7047">
        <ele>52.05</ele>
        <time>2015-08-15T15:37:09Z</time>
      </trkpt>
      <trkpt lat="47.36949" lon="0.70473">
        <ele>52.53</ele>
        <time>2015-08-15T15:37:10Z</time>
      </trkpt>
      <trkpt lat="47.36949" lon="0.70476">
        <ele>52.05</ele>
        <time>2015-08-15T15:37:11Z</time>
      </trkpt>
      <trkpt lat="47.36948" lon="0.70477">
        <ele>52.05</ele>
        <time>2015-08-15T15:37:12Z</time>
      </trkpt>
      <trkpt lat="47.36947" lon="0.70479">
        <ele>52.53</ele>
        <time>2015-08-15T15:37:13Z</time>
      </trkpt>
      <trkpt lat="47.36948" lon="0.70481">
        <ele>52.53</ele>
        <time>2015-08-15T15:37:14Z</time>
      </trkpt>
      <trkpt lat="47.36949" lon="0.70483">
        <ele>53.01</ele>
        <time>2015-08-15T15:37:15Z</time>
      </trkpt>
      <trkpt lat="47.3695" lon="0.70484">
        <ele>53.01</ele>
        <time>2015-08-15T15:37:16Z</time>
      </trkpt>
      <trkpt lat="47.36951" lon="0.70485">
        <ele>53.01</ele>
        <time>2015-08-15T15:37:17Z</time>
      </trkpt>
      <trkpt lat="47.36953" lon="0.70486">
        <ele>53.01</ele>
        <time>2015-08-15T15:37:18Z</time>
      </trkpt>
      <trkpt lat="47.36955" lon="0.70572">
        <ele>53.01</ele>
        <time>2015-08-15T15:37:33Z</time>
      </trkpt>
      <trkpt lat="47.36957" lon="0.70584">
        <ele>53.01</ele>
        <time>2015-08-15T15:37:35Z</time>
      </trkpt>
      <trkpt lat="47.36957" lon="0.7059">
        <ele>53.01</ele>
        <time>2015-08-15T15:37:36Z</time>
      </trkpt>
      <trkpt lat="47.36962" lon="0.70671">
        <ele>52.53</ele>
        <time>2015-08-15T15:37:50Z</time>
      </trkpt>
      <trkpt lat="47.36963" lon="0.70684">
        <ele>52.53</ele>
        <time>2015-08-15T15:37:52Z</time>
      </trkpt>
      <trkpt lat="47.36964" lon="0.70709">
        <ele>53.01</ele>
        <time>2015-08-15T15:37:56Z</time>
      </trkpt>
      <trkpt lat="47.36985" lon="0.70819">
        <ele>52.53</ele>
        <time>2015-08-15T15:38:15Z</time>
      </trkpt>
      <trkpt lat="47.36998" lon="0.70877">
        <ele>52.05</ele>
        <time>2015-08-15T15:38:27Z</time>
      </trkpt>
      <trkpt lat="47.37023" lon="0.70948">
        <ele>52.05</ele>
        <time>2015-08-15T15:38:42Z</time>
      </trkpt>
      <trkpt lat="47.37039" lon="0.70999">
        <ele>52.05</ele>
        <time>2015-08-15T15:38:53Z</time>
      </trkpt>
      <trkpt lat="47.37053" lon="0.71043">
        <ele>52.05</ele>
        <time>2015-08-15T15:39:04Z</time>
      </trkpt>
      <trkpt lat="47.37063" lon="0.71062">
        <ele>52.05</ele>
        <time>2015-08-15T15:39:15Z</time>
      </trkpt>
      <trkpt lat="47.37063" lon="0.71063">
        <ele>52.05</ele>
        <time>2015-08-15T15:39:45Z</time>
      </trkpt>
      <trkpt lat="47.37079" lon="0.71096">
        <ele>52.05</ele>
        <time>2015-08-15T15:39:57Z</time>
      </trkpt>
      <trkpt lat="47.37101" lon="0.71157">
        <ele>52.53</ele>
        <time>2015-08-15T15:40:10Z</time>
      </trkpt>
      <trkpt lat="47.37121" lon="0.71202">
        <ele>52.05</ele>
        <time>2015-08-15T15:40:20Z</time>
      </trkpt>
      <trkpt lat="47.37147" lon="0.71263">
        <ele>52.53</ele>
        <time>2015-08-15T15:40:34Z</time>
      </trkpt>
      <trkpt lat="47.37165" lon="0.71321">
        <ele>52.05</ele>
        <time>2015-08-15T15:40:48Z</time>
      </trkpt>
      <trkpt lat="47.3718" lon="0.71361">
        <ele>52.05</ele>
        <time>2015-08-15T15:40:59Z</time>
      </trkpt>
      <trkpt lat="47.37196" lon="0.71407">
        <ele>51.57</ele>
        <time>2015-08-15T15:41:14Z</time>
      </trkpt>
      <trkpt lat="47.37196" lon="0.71409">
        <ele>51.57</ele>
        <time>2015-08-15T15:41:15Z</time>
      </trkpt>
      <trkpt lat="47.37204" lon="0.71451">
        <ele>50.13</ele>
        <time>2015-08-15T15:41:31Z</time>
      </trkpt>
      <trkpt lat="47.3721" lon="0.71485">
        <ele>48.68</ele>
        <time>2015-08-15T15:41:43Z</time>
      </trkpt>
      <trkpt lat="47.37217" lon="0.71539">
        <ele>48.2</ele>
        <time>2015-08-15T15:41:54Z</time>
      </trkpt>
      <trkpt lat="47.37215" lon="0.71583">
        <ele>47.72</ele>
        <time>2015-08-15T15:42:00Z</time>
      </trkpt>
      <trkpt lat="47.37216" lon="0.71608">
        <ele>48.2</ele>
        <time>2015-08-15T15:42:03Z</time>
      </trkpt>
      <trkpt lat="47.37212" lon="0.71707">
        <ele>51.09</ele>
        <time>2015-08-15T15:42:15Z</time>
      </trkpt>
      <trkpt lat="47.37211" lon="0.71719">
        <ele>51.09</ele>
        <time>2015-08-15T15:42:17Z</time>
      </trkpt>
      <trkpt lat="47.3721" lon="0.71762">
        <ele>51.57</ele>
        <time>2015-08-15T15:42:31Z</time>
      </trkpt>
      <trkpt lat="47.3721" lon="0.71764">
        <ele>51.57</ele>
        <time>2015-08-15T15:42:32Z</time>
      </trkpt>
      <trkpt lat="47.3721" lon="0.71787">
        <ele>52.05</ele>
        <time>2015-08-15T15:42:42Z</time>
      </trkpt>
      <trkpt lat="47.3721" lon="0.7179">
        <ele>52.05</ele>
        <time>2015-08-15T15:42:43Z</time>
      </trkpt>
      <trkpt lat="47.3721" lon="0.71794">
        <ele>52.05</ele>
        <time>2015-08-15T15:42:44Z</time>
      </trkpt>
      <trkpt lat="47.37209" lon="0.71797">
        <ele>52.05</ele>
        <time>2015-08-15T15:42:45Z</time>
      </trkpt>
      <trkpt lat="47.37206" lon="0.71798">
        <ele>52.05</ele>
        <time>2015-08-15T15:42:46Z</time>
      </trkpt>
      <trkpt lat="47.37204" lon="0.71797">
        <ele>52.05</ele>
        <time>2015-08-15T15:42:47Z</time>
      </trkpt>
      <trkpt lat="47.37201" lon="0.71795">
        <ele>52.53</ele>
        <time>2015-08-15T15:42:48Z</time>
      </trkpt>
      <trkpt lat="47.372" lon="0.71792">
        <ele>52.53</ele>
        <time>2015-08-15T15:42:49Z</time>
      </trkpt>
      <trkpt lat="47.37202" lon="0.71781">
        <ele>52.53</ele>
        <time>2015-08-15T15:42:52Z</time>
      </trkpt>
      <trkpt lat="47.37203" lon="0.71778">
        <ele>52.53</ele>
        <time>2015-08-15T15:42:53Z</time>
      </trkpt>
      <trkpt lat="47.37204" lon="0.71775">
        <ele>52.53</ele>
        <time>2015-08-15T15:42:54Z</time>
      </trkpt>
      <trkpt lat="47.37205" lon="0.71773">
        <ele>52.53</ele>
        <time>2015-08-15T15:42:55Z</time>
      </trkpt>
      <trkpt lat="47.37206" lon="0.71771">
        <ele>52.53</ele>
        <time>2015-08-15T15:42:56Z</time>
      </trkpt>
      <trkpt lat="47.37206" lon="0.71769">
        <ele>52.53</ele>
        <time>2015-08-15T15:42:57Z</time>
      </trkpt>
      <trkpt lat="47.37202" lon="0.71771">
        <ele>52.53</ele>
        <time>2015-08-15T15:43:02Z</time>
      </trkpt>
      <trkpt lat="47.372" lon="0.71774">
        <ele>52.05</ele>
        <time>2015-08-15T15:43:03Z</time>
      </trkpt>
      <trkpt lat="47.37199" lon="0.71777">
        <ele>52.05</ele>
        <time>2015-08-15T15:43:04Z</time>
      </trkpt>
      <trkpt lat="47.37197" lon="0.71781">
        <ele>52.05</ele>
        <time>2015-08-15T15:43:05Z</time>
      </trkpt>
      <trkpt lat="47.37195" lon="0.71785">
        <ele>52.05</ele>
        <time>2015-08-15T15:43:06Z</time>
      </trkpt>
      <trkpt lat="47.37192" lon="0.71788">
        <ele>52.05</ele>
        <time>2015-08-15T15:43:07Z</time>
      </trkpt>
      <trkpt lat="47.37187" lon="0.71789">
        <ele>52.05</ele>
        <time>2015-08-15T15:43:08Z</time>
      </trkpt>
      <trkpt lat="47.37183" lon="0.71789">
        <ele>52.05</ele>
        <time>2015-08-15T15:43:09Z</time>
      </trkpt>
      <trkpt lat="47.37179" lon="0.71788">
        <ele>52.05</ele>
        <time>2015-08-15T15:43:10Z</time>
      </trkpt>
      <trkpt lat="47.37175" lon="0.71785">
        <ele>52.05</ele>
        <time>2015-08-15T15:43:11Z</time>
      </trkpt>
      <trkpt lat="47.37171" lon="0.71781">
        <ele>52.05</ele>
        <time>2015-08-15T15:43:12Z</time>
      </trkpt>
      <trkpt lat="47.37169" lon="0.71776">
        <ele>52.05</ele>
        <time>2015-08-15T15:43:13Z</time>
      </trkpt>
      <trkpt lat="47.37167" lon="0.7177">
        <ele>52.05</ele>
        <time>2015-08-15T15:43:14Z</time>
      </trkpt>
      <trkpt lat="47.37166" lon="0.71764">
        <ele>52.05</ele>
        <time>2015-08-15T15:43:15Z</time>
      </trkpt>
      <trkpt lat="47.37167" lon="0.71758">
        <ele>52.05</ele>
        <time>2015-08-15T15:43:16Z</time>
      </trkpt>
      <trkpt lat="47.37172" lon="0.71742">
        <ele>52.53</ele>
        <time>2015-08-15T15:43:19Z</time>
      </trkpt>
      <trkpt lat="47.37175" lon="0.71738">
        <ele>52.53</ele>
        <time>2015-08-15T15:43:20Z</time>
      </trkpt>
      <trkpt lat="47.37177" lon="0.71733">
        <ele>52.53</ele>
        <time>2015-08-15T15:43:21Z</time>
      </trkpt>
      <trkpt lat="47.37179" lon="0.71727">
        <ele>52.05</ele>
        <time>2015-08-15T15:43:22Z</time>
      </trkpt>
      <trkpt lat="47.3718" lon="0.71721">
        <ele>52.53</ele>
        <time>2015-08-15T15:43:23Z</time>
      </trkpt>
      <trkpt lat="47.3718" lon="0.71714">
        <ele>52.53</ele>
        <time>2015-08-15T15:43:24Z</time>
      </trkpt>
      <trkpt lat="47.37166" lon="0.71626">
        <ele>53.49</ele>
        <time>2015-08-15T15:43:38Z</time>
      </trkpt>
      <trkpt lat="47.37176" lon="0.71596">
        <ele>53.97</ele>
        <time>2015-08-15T15:43:45Z</time>
      </trkpt>
      <trkpt lat="47.37189" lon="0.71598">
        <ele>53.97</ele>
        <time>2015-08-15T15:43:49Z</time>
      </trkpt>
      <trkpt lat="47.37196" lon="0.71595">
        <ele>53.97</ele>
        <time>2015-08-15T15:43:53Z</time>
      </trkpt>
      <trkpt lat="47.37199" lon="0.71591">
        <ele>53.97</ele>
        <time>2015-08-15T15:43:56Z</time>
      </trkpt>
      <trkpt lat="47.372" lon="0.7159">
        <ele>53.97</ele>
        <time>2015-08-15T15:44:05Z</time>
      </trkpt>
      <trkpt lat="47.37253" lon="0.7159">
        <ele>54.93</ele>
        <time>2015-08-15T15:44:24Z</time>
      </trkpt>
      <trkpt lat="47.37313" lon="0.71585">
        <ele>54.45</ele>
        <time>2015-08-15T15:44:44Z</time>
      </trkpt>
      <trkpt lat="47.37371" lon="0.71577">
        <ele>54.45</ele>
        <time>2015-08-15T15:45:04Z</time>
      </trkpt>
      <trkpt lat="47.37422" lon="0.71565">
        <ele>53.97</ele>
        <time>2015-08-15T15:45:23Z</time>
      </trkpt>
      <trkpt lat="47.37424" lon="0.71565">
        <ele>53.97</ele>
        <time>2015-08-15T15:45:24Z</time>
      </trkpt>
      <trkpt lat="47.37426" lon="0.71564">
        <ele>53.97</ele>
        <time>2015-08-15T15:45:25Z</time>
      </trkpt>
      <trkpt lat="47.37428" lon="0.71563">
        <ele>53.97</ele>
        <time>2015-08-15T15:45:26Z</time>
      </trkpt>
      <trkpt lat="47.3743" lon="0.71563">
        <ele>53.97</ele>
        <time>2015-08-15T15:45:27Z</time>
      </trkpt>
      <trkpt lat="47.37431" lon="0.71562">
        <ele>53.97</ele>
        <time>2015-08-15T15:45:28Z</time>
      </trkpt>
      <trkpt lat="47.37433" lon="0.71562">
        <ele>53.97</ele>
        <time>2015-08-15T15:45:29Z</time>
      </trkpt>
      <trkpt lat="47.37434" lon="0.71561">
        <ele>53.97</ele>
        <time>2015-08-15T15:45:51Z</time>
      </trkpt>
      <trkpt lat="47.37434" lon="0.71561">
        <ele>53.97</ele>
        <time>2015-08-15T15:46:21Z</time>
      </trkpt>
      <trkpt lat="47.37444" lon="0.71559">
        <ele>53.97</ele>
        <time>2015-08-15T15:46:35Z</time>
      </trkpt>
      <trkpt lat="47.37478" lon="0.71552">
        <ele>53.49</ele>
        <time>2015-08-15T15:46:51Z</time>
      </trkpt>
      <trkpt lat="47.3748" lon="0.71551">
        <ele>53.49</ele>
        <time>2015-08-15T15:46:52Z</time>
      </trkpt>
      <trkpt lat="47.37482" lon="0.7155">
        <ele>53.49</ele>
        <time>2015-08-15T15:46:53Z</time>
      </trkpt>
      <trkpt lat="47.37488" lon="0.7155">
        <ele>53.49</ele>
        <time>2015-08-15T15:46:59Z</time>
      </trkpt>
      <trkpt lat="47.3749" lon="0.71551">
        <ele>53.49</ele>
        <time>2015-08-15T15:47:00Z</time>
      </trkpt>
      <trkpt lat="47.37492" lon="0.71551">
        <ele>53.49</ele>
        <time>2015-08-15T15:47:01Z</time>
      </trkpt>
      <trkpt lat="47.37494" lon="0.71553">
        <ele>53.49</ele>
        <time>2015-08-15T15:47:02Z</time>
      </trkpt>
      <trkpt lat="47.37498" lon="0.71559">
        <ele>53.01</ele>
        <time>2015-08-15T15:47:05Z</time>
      </trkpt>
      <trkpt lat="47.37499" lon="0.71562">
        <ele>53.01</ele>
        <time>2015-08-15T15:47:06Z</time>
      </trkpt>
      <trkpt lat="47.375" lon="0.71564">
        <ele>53.01</ele>
        <time>2015-08-15T15:47:07Z</time>
      </trkpt>
      <trkpt lat="47.37501" lon="0.71567">
        <ele>53.01</ele>
        <time>2015-08-15T15:47:08Z</time>
      </trkpt>
      <trkpt lat="47.37503" lon="0.71569">
        <ele>53.01</ele>
        <time>2015-08-15T15:47:09Z</time>
      </trkpt>
      <trkpt lat="47.37504" lon="0.71571">
        <ele>53.01</ele>
        <time>2015-08-15T15:47:10Z</time>
      </trkpt>
      <trkpt lat="47.37506" lon="0.71573">
        <ele>53.01</ele>
        <time>2015-08-15T15:47:11Z</time>
      </trkpt>
      <trkpt lat="47.37507" lon="0.71575">
        <ele>53.01</ele>
        <time>2015-08-15T15:47:12Z</time>
      </trkpt>
      <trkpt lat="47.37507" lon="0.71578">
        <ele>53.01</ele>
        <time>2015-08-15T15:47:13Z</time>
      </trkpt>
      <trkpt lat="47.37505" lon="0.71603">
        <ele>53.01</ele>
        <time>2015-08-15T15:47:20Z</time>
      </trkpt>
      <trkpt lat="47.37505" lon="0.71606">
        <ele>53.01</ele>
        <time>2015-08-15T15:47:21Z</time>
      </trkpt>
      <trkpt lat="47.37505" lon="0.71609">
        <ele>53.01</ele>
        <time>2015-08-15T15:47:22Z</time>
      </trkpt>
      <trkpt lat="47.37505" lon="0.71612">
        <ele>52.53</ele>
        <time>2015-08-15T15:47:23Z</time>
      </trkpt>
      <trkpt lat="47.37504" lon="0.71615">
        <ele>52.53</ele>
        <time>2015-08-15T15:47:24Z</time>
      </trkpt>
      <trkpt lat="47.37503" lon="0.71618">
        <ele>52.53</ele>
        <time>2015-08-15T15:47:25Z</time>
      </trkpt>
      <trkpt lat="47.37502" lon="0.7162">
        <ele>52.53</ele>
        <time>2015-08-15T15:47:26Z</time>
      </trkpt>
      <trkpt lat="47.37502" lon="0.71622">
        <ele>52.53</ele>
        <time>2015-08-15T15:47:27Z</time>
      </trkpt>
      <trkpt lat="47.37502" lon="0.71623">
        <ele>52.53</ele>
        <time>2015-08-15T15:47:28Z</time>
      </trkpt>
      <trkpt lat="47.37501" lon="0.71625">
        <ele>52.53</ele>
        <time>2015-08-15T15:47:29Z</time>
      </trkpt>
      <trkpt lat="47.375" lon="0.71625">
        <ele>52.53</ele>
        <time>2015-08-15T15:47:33Z</time>
      </trkpt>
      <trkpt lat="47.3748" lon="0.71629">
        <ele>53.01</ele>
        <time>2015-08-15T15:47:47Z</time>
      </trkpt>
      <trkpt lat="47.37478" lon="0.71629">
        <ele>53.01</ele>
        <time>2015-08-15T15:47:48Z</time>
      </trkpt>
      <trkpt lat="47.37476" lon="0.7163">
        <ele>52.53</ele>
        <time>2015-08-15T15:47:49Z</time>
      </trkpt>
      <trkpt lat="47.37474" lon="0.71631">
        <ele>52.53</ele>
        <time>2015-08-15T15:47:50Z</time>
      </trkpt>
      <trkpt lat="47.37473" lon="0.71632">
        <ele>52.53</ele>
        <time>2015-08-15T15:47:51Z</time>
      </trkpt>
      <trkpt lat="47.37458" lon="0.71682">
        <ele>51.57</ele>
        <time>2015-08-15T15:48:05Z</time>
      </trkpt>
      <trkpt lat="47.37466" lon="0.71746">
        <ele>50.13</ele>
        <time>2015-08-15T15:48:20Z</time>
      </trkpt>
      <trkpt lat="47.37467" lon="0.7175">
        <ele>49.65</ele>
        <time>2015-08-15T15:48:21Z</time>
      </trkpt>
      <trkpt lat="47.37468" lon="0.71755">
        <ele>49.65</ele>
        <time>2015-08-15T15:48:22Z</time>
      </trkpt>
      <trkpt lat="47.37469" lon="0.7176">
        <ele>49.65</ele>
        <time>2015-08-15T15:48:23Z</time>
      </trkpt>
      <trkpt lat="47.3747" lon="0.71765">
        <ele>49.65</ele>
        <time>2015-08-15T15:48:24Z</time>
      </trkpt>
      <trkpt lat="47.37469" lon="0.71769">
        <ele>50.13</ele>
        <time>2015-08-15T15:48:25Z</time>
      </trkpt>
      <trkpt lat="47.37468" lon="0.71774">
        <ele>49.65</ele>
        <time>2015-08-15T15:48:26Z</time>
      </trkpt>
      <trkpt lat="47.37442" lon="0.71797">
        <ele>51.57</ele>
        <time>2015-08-15T15:48:36Z</time>
      </trkpt>
      <trkpt lat="47.3744" lon="0.718">
        <ele>51.09</ele>
        <time>2015-08-15T15:48:37Z</time>
      </trkpt>
      <trkpt lat="47.37433" lon="0.71797">
        <ele>51.57</ele>
        <time>2015-08-15T15:49:29Z</time>
      </trkpt>
      <trkpt lat="47.37426" lon="0.71835">
        <ele>52.05</ele>
        <time>2015-08-15T15:49:39Z</time>
      </trkpt>
      <trkpt lat="47.37426" lon="0.71909">
        <ele>52.05</ele>
        <time>2015-08-15T15:49:54Z</time>
      </trkpt>
      <trkpt lat="47.37428" lon="0.71993">
        <ele>52.05</ele>
        <time>2015-08-15T15:50:11Z</time>
      </trkpt>
      <trkpt lat="47.37429" lon="0.72046">
        <ele>52.05</ele>
        <time>2015-08-15T15:50:25Z</time>
      </trkpt>
      <trkpt lat="47.3743" lon="0.72048">
        <ele>52.53</ele>
        <time>2015-08-15T15:50:26Z</time>
      </trkpt>
      <trkpt lat="47.37429" lon="0.72051">
        <ele>51.57</ele>
        <time>2015-08-15T15:50:36Z</time>
      </trkpt>
      <trkpt lat="47.37429" lon="0.72054">
        <ele>51.57</ele>
        <time>2015-08-15T15:50:50Z</time>
      </trkpt>
      <trkpt lat="47.37429" lon="0.72056">
        <ele>51.57</ele>
        <time>2015-08-15T15:50:51Z</time>
      </trkpt>
      <trkpt lat="47.37429" lon="0.72058">
        <ele>52.05</ele>
        <time>2015-08-15T15:50:52Z</time>
      </trkpt>
      <trkpt lat="47.37429" lon="0.72061">
        <ele>51.57</ele>
        <time>2015-08-15T15:50:53Z</time>
      </trkpt>
      <trkpt lat="47.37428" lon="0.72071">
        <ele>51.57</ele>
        <time>2015-08-15T15:50:57Z</time>
      </trkpt>
      <trkpt lat="47.37428" lon="0.72074">
        <ele>51.57</ele>
        <time>2015-08-15T15:50:58Z</time>
      </trkpt>
      <trkpt lat="47.37427" lon="0.72077">
        <ele>51.57</ele>
        <time>2015-08-15T15:50:59Z</time>
      </trkpt>
      <trkpt lat="47.37426" lon="0.72079">
        <ele>51.57</ele>
        <time>2015-08-15T15:51:00Z</time>
      </trkpt>
      <trkpt lat="47.37425" lon="0.7208">
        <ele>51.57</ele>
        <time>2015-08-15T15:51:01Z</time>
      </trkpt>
      <trkpt lat="47.37424" lon="0.72081">
        <ele>51.57</ele>
        <time>2015-08-15T15:51:02Z</time>
      </trkpt>
      <trkpt lat="47.37423" lon="0.72082">
        <ele>51.57</ele>
        <time>2015-08-15T15:51:03Z</time>
      </trkpt>
      <trkpt lat="47.37422" lon="0.72084">
        <ele>51.57</ele>
        <time>2015-08-15T15:51:04Z</time>
      </trkpt>
      <trkpt lat="47.37421" lon="0.72085">
        <ele>51.57</ele>
        <time>2015-08-15T15:51:05Z</time>
      </trkpt>
      <trkpt lat="47.3742" lon="0.72086">
        <ele>51.57</ele>
        <time>2015-08-15T15:51:06Z</time>
      </trkpt>
      <trkpt lat="47.37419" lon="0.72087">
        <ele>51.09</ele>
        <time>2015-08-15T15:51:07Z</time>
      </trkpt>
      <trkpt lat="47.37418" lon="0.72089">
        <ele>51.09</ele>
        <time>2015-08-15T15:51:08Z</time>
      </trkpt>
      <trkpt lat="47.37417" lon="0.72105">
        <ele>49.65</ele>
        <time>2015-08-15T15:51:18Z</time>
      </trkpt>
      <trkpt lat="47.37416" lon="0.72107">
        <ele>49.65</ele>
        <time>2015-08-15T15:51:19Z</time>
      </trkpt>
      <trkpt lat="47.37415" lon="0.72108">
        <ele>49.65</ele>
        <time>2015-08-15T15:51:20Z</time>
      </trkpt>
      <trkpt lat="47.37415" lon="0.7211">
        <ele>49.16</ele>
        <time>2015-08-15T15:51:21Z</time>
      </trkpt>
      <trkpt lat="47.37414" lon="0.72111">
        <ele>49.16</ele>
        <time>2015-08-15T15:51:22Z</time>
      </trkpt>
      <trkpt lat="47.37413" lon="0.72113">
        <ele>49.16</ele>
        <time>2015-08-15T15:51:23Z</time>
      </trkpt>
      <trkpt lat="47.37412" lon="0.72115">
        <ele>48.68</ele>
        <time>2015-08-15T15:51:24Z</time>
      </trkpt>
      <trkpt lat="47.37412" lon="0.72116">
        <ele>48.68</ele>
        <time>2015-08-15T15:51:25Z</time>
      </trkpt>
      <trkpt lat="47.37411" lon="0.72117">
        <ele>48.68</ele>
        <time>2015-08-15T15:51:26Z</time>
      </trkpt>
      <trkpt lat="47.3741" lon="0.72119">
        <ele>48.68</ele>
        <time>2015-08-15T15:51:27Z</time>
      </trkpt>
      <trkpt lat="47.37409" lon="0.72122">
        <ele>48.68</ele>
        <time>2015-08-15T15:51:29Z</time>
      </trkpt>
      <trkpt lat="47.37409" lon="0.72124">
        <ele>48.68</ele>
        <time>2015-08-15T15:51:30Z</time>
      </trkpt>
      <trkpt lat="47.37409" lon="0.72126">
        <ele>50.13</ele>
        <time>2015-08-15T15:51:41Z</time>
      </trkpt>
      <trkpt lat="47.37409" lon="0.72126">
        <ele>46.76</ele>
        <time>2015-08-15T15:51:42Z</time>
      </trkpt>
      <trkpt lat="47.37409" lon="0.72126">
        <ele>50.61</ele>
        <time>2015-08-15T15:51:43Z</time>
      </trkpt>
      <trkpt lat="47.37409" lon="0.72126">
        <ele>47.24</ele>
        <time>2015-08-15T15:51:59Z</time>
      </trkpt>
      <trkpt lat="47.37408" lon="0.72125">
        <ele>48.2</ele>
        <time>2015-08-15T15:52:28Z</time>
      </trkpt>
      <trkpt lat="47.37408" lon="0.72125">
        <ele>48.68</ele>
        <time>2015-08-15T15:53:01Z</time>
      </trkpt>
      <trkpt lat="47.37409" lon="0.72125">
        <ele>48.2</ele>
        <time>2015-08-15T15:53:21Z</time>
      </trkpt>
      <trkpt lat="47.37401" lon="0.72163">
        <ele>48.2</ele>
        <time>2015-08-15T15:53:32Z</time>
      </trkpt>
      <trkpt lat="47.37397" lon="0.7223">
        <ele>48.2</ele>
        <time>2015-08-15T15:53:45Z</time>
      </trkpt>
      <trkpt lat="47.37389" lon="0.72306">
        <ele>48.2</ele>
        <time>2015-08-15T15:53:59Z</time>
      </trkpt>
      <trkpt lat="47.37381" lon="0.72371">
        <ele>48.2</ele>
        <time>2015-08-15T15:54:12Z</time>
      </trkpt>
      <trkpt lat="47.3737" lon="0.72447">
        <ele>48.2</ele>
        <time>2015-08-15T15:54:29Z</time>
      </trkpt>
      <trkpt lat="47.37363" lon="0.72499">
        <ele>48.2</ele>
        <time>2015-08-15T15:54:42Z</time>
      </trkpt>
      <trkpt lat="47.37351" lon="0.72578">
        <ele>48.2</ele>
        <time>2015-08-15T15:54:58Z</time>
      </trkpt>
      <trkpt lat="47.37344" lon="0.72632">
        <ele>48.2</ele>
        <time>2015-08-15T15:55:08Z</time>
      </trkpt>
      <trkpt lat="47.37329" lon="0.72702">
        <ele>48.2</ele>
        <time>2015-08-15T15:55:23Z</time>
      </trkpt>
      <trkpt lat="47.37312" lon="0.72782">
        <ele>48.68</ele>
        <time>2015-08-15T15:55:39Z</time>
      </trkpt>
      <trkpt lat="47.37303" lon="0.72844">
        <ele>48.2</ele>
        <time>2015-08-15T15:55:53Z</time>
      </trkpt>
      <trkpt lat="47.37289" lon="0.72919">
        <ele>48.2</ele>
        <time>2015-08-15T15:56:08Z</time>
      </trkpt>
      <trkpt lat="47.37273" lon="0.72987">
        <ele>48.2</ele>
        <time>2015-08-15T15:56:22Z</time>
      </trkpt>
      <trkpt lat="47.37256" lon="0.73076">
        <ele>48.2</ele>
        <time>2015-08-15T15:56:39Z</time>
      </trkpt>
      <trkpt lat="47.37238" lon="0.73151">
        <ele>48.2</ele>
        <time>2015-08-15T15:56:54Z</time>
      </trkpt>
      <trkpt lat="47.37237" lon="0.73156">
        <ele>48.2</ele>
        <time>2015-08-15T15:56:55Z</time>
      </trkpt>
      <trkpt lat="47.37215" lon="0.73245">
        <ele>48.68</ele>
        <time>2015-08-15T15:57:12Z</time>
      </trkpt>
      <trkpt lat="47.37191" lon="0.73342">
        <ele>48.2</ele>
        <time>2015-08-15T15:57:30Z</time>
      </trkpt>
      <trkpt lat="47.37167" lon="0.73447">
        <ele>48.2</ele>
        <time>2015-08-15T15:57:48Z</time>
      </trkpt>
      <trkpt lat="47.37149" lon="0.73539">
        <ele>48.68</ele>
        <time>2015-08-15T15:58:04Z</time>
      </trkpt>
      <trkpt lat="47.37149" lon="0.73545">
        <ele>48.68</ele>
        <time>2015-08-15T15:58:05Z</time>
      </trkpt>
      <trkpt lat="47.37148" lon="0.7355">
        <ele>48.68</ele>
        <time>2015-08-15T15:58:06Z</time>
      </trkpt>
      <trkpt lat="47.37147" lon="0.73556">
        <ele>48.2</ele>
        <time>2015-08-15T15:58:07Z</time>
      </trkpt>
      <trkpt lat="47.37147" lon="0.73562">
        <ele>48.2</ele>
        <time>2015-08-15T15:58:08Z</time>
      </trkpt>
      <trkpt lat="47.37145" lon="0.73567">
        <ele>48.2</ele>
        <time>2015-08-15T15:58:09Z</time>
      </trkpt>
      <trkpt lat="47.37144" lon="0.73573">
        <ele>48.68</ele>
        <time>2015-08-15T15:58:10Z</time>
      </trkpt>
      <trkpt lat="47.37143" lon="0.73578">
        <ele>48.68</ele>
        <time>2015-08-15T15:58:11Z</time>
      </trkpt>
      <trkpt lat="47.37137" lon="0.73614">
        <ele>48.68</ele>
        <time>2015-08-15T15:58:18Z</time>
      </trkpt>
      <trkpt lat="47.37126" lon="0.73681">
        <ele>48.68</ele>
        <time>2015-08-15T15:58:30Z</time>
      </trkpt>
      <trkpt lat="47.37118" lon="0.73745">
        <ele>48.68</ele>
        <time>2015-08-15T15:58:45Z</time>
      </trkpt>
      <trkpt lat="47.37114" lon="0.73796">
        <ele>48.68</ele>
        <time>2015-08-15T15:58:59Z</time>
      </trkpt>
      <trkpt lat="47.37113" lon="0.73799">
        <ele>48.68</ele>
        <time>2015-08-15T15:59:00Z</time>
      </trkpt>
      <trkpt lat="47.37113" lon="0.73802">
        <ele>48.68</ele>
        <time>2015-08-15T15:59:01Z</time>
      </trkpt>
      <trkpt lat="47.37111" lon="0.7381">
        <ele>48.68</ele>
        <time>2015-08-15T15:59:05Z</time>
      </trkpt>
      <trkpt lat="47.37111" lon="0.73811">
        <ele>48.68</ele>
        <time>2015-08-15T15:59:29Z</time>
      </trkpt>
      <trkpt lat="47.3711" lon="0.73813">
        <ele>48.68</ele>
        <time>2015-08-15T15:59:48Z</time>
      </trkpt>
      <trkpt lat="47.37111" lon="0.73814">
        <ele>48.68</ele>
        <time>2015-08-15T16:00:20Z</time>
      </trkpt>
      <trkpt lat="47.37112" lon="0.73814">
        <ele>48.68</ele>
        <time>2015-08-15T16:00:48Z</time>
      </trkpt>
      <trkpt lat="47.37112" lon="0.73814">
        <ele>48.68</ele>
        <time>2015-08-15T16:01:22Z</time>
      </trkpt>
      <trkpt lat="47.37111" lon="0.73814">
        <ele>48.68</ele>
        <time>2015-08-15T16:01:38Z</time>
      </trkpt>
      <trkpt lat="47.3711" lon="0.73817">
        <ele>48.68</ele>
        <time>2015-08-15T16:01:53Z</time>
      </trkpt>
      <trkpt lat="47.37105" lon="0.73859">
        <ele>48.68</ele>
        <time>2015-08-15T16:02:05Z</time>
      </trkpt>
      <trkpt lat="47.37091" lon="0.73913">
        <ele>48.2</ele>
        <time>2015-08-15T16:02:19Z</time>
      </trkpt>
      <trkpt lat="47.37085" lon="0.7396">
        <ele>49.65</ele>
        <time>2015-08-15T16:02:30Z</time>
      </trkpt>
      <trkpt lat="47.3708" lon="0.74027">
        <ele>48.2</ele>
        <time>2015-08-15T16:02:45Z</time>
      </trkpt>
      <trkpt lat="47.37078" lon="0.7409">
        <ele>48.68</ele>
        <time>2015-08-15T16:02:57Z</time>
      </trkpt>
      <trkpt lat="47.37091" lon="0.74172">
        <ele>48.68</ele>
        <time>2015-08-15T16:03:12Z</time>
      </trkpt>
      <trkpt lat="47.3711" lon="0.74245">
        <ele>48.68</ele>
        <time>2015-08-15T16:03:26Z</time>
      </trkpt>
      <trkpt lat="47.37134" lon="0.74293">
        <ele>49.16</ele>
        <time>2015-08-15T16:03:38Z</time>
      </trkpt>
      <trkpt lat="47.37171" lon="0.74348">
        <ele>48.68</ele>
        <time>2015-08-15T16:03:54Z</time>
      </trkpt>
      <trkpt lat="47.37207" lon="0.74377">
        <ele>48.68</ele>
        <time>2015-08-15T16:04:07Z</time>
      </trkpt>
      <trkpt lat="47.37249" lon="0.74414">
        <ele>48.68</ele>
        <time>2015-08-15T16:04:21Z</time>
      </trkpt>
      <trkpt lat="47.37311" lon="0.74481">
        <ele>48.68</ele>
        <time>2015-08-15T16:04:41Z</time>
      </trkpt>
      <trkpt lat="47.3736" lon="0.74535">
        <ele>48.68</ele>
        <time>2015-08-15T16:04:57Z</time>
      </trkpt>
      <trkpt lat="47.37394" lon="0.7458">
        <ele>48.68</ele>
        <time>2015-08-15T16:05:11Z</time>
      </trkpt>
      <trkpt lat="47.37432" lon="0.74639">
        <ele>48.2</ele>
        <time>2015-08-15T16:05:28Z</time>
      </trkpt>
      <trkpt lat="47.37459" lon="0.74691">
        <ele>48.2</ele>
        <time>2015-08-15T16:05:43Z</time>
      </trkpt>
      <trkpt lat="47.37469" lon="0.74714">
        <ele>48.2</ele>
        <time>2015-08-15T16:05:55Z</time>
      </trkpt>
      <trkpt lat="47.37469" lon="0.74714">
        <ele>48.2</ele>
        <time>2015-08-15T16:06:18Z</time>
      </trkpt>
      <trkpt lat="47.37474" lon="0.74725">
        <ele>48.2</ele>
        <time>2015-08-15T16:06:33Z</time>
      </trkpt>
      <trkpt lat="47.37489" lon="0.74758">
        <ele>48.68</ele>
        <time>2015-08-15T16:06:47Z</time>
      </trkpt>
      <trkpt lat="47.37499" lon="0.74785">
        <ele>48.68</ele>
        <time>2015-08-15T16:06:55Z</time>
      </trkpt>
      <trkpt lat="47.37515" lon="0.74834">
        <ele>48.68</ele>
        <time>2015-08-15T16:07:09Z</time>
      </trkpt>
      <trkpt lat="47.37516" lon="0.74837">
        <ele>48.68</ele>
        <time>2015-08-15T16:07:10Z</time>
      </trkpt>
      <trkpt lat="47.37517" lon="0.7484">
        <ele>48.2</ele>
        <time>2015-08-15T16:07:11Z</time>
      </trkpt>
      <trkpt lat="47.37517" lon="0.74843">
        <ele>48.68</ele>
        <time>2015-08-15T16:07:12Z</time>
      </trkpt>
      <trkpt lat="47.37518" lon="0.74845">
        <ele>48.2</ele>
        <time>2015-08-15T16:07:13Z</time>
      </trkpt>
      <trkpt lat="47.37519" lon="0.74848">
        <ele>48.68</ele>
        <time>2015-08-15T16:07:14Z</time>
      </trkpt>
      <trkpt lat="47.3752" lon="0.74851">
        <ele>48.68</ele>
        <time>2015-08-15T16:07:15Z</time>
      </trkpt>
      <trkpt lat="47.3752" lon="0.74854">
        <ele>48.2</ele>
        <time>2015-08-15T16:07:16Z</time>
      </trkpt>
      <trkpt lat="47.37536" lon="0.74912">
        <ele>48.68</ele>
        <time>2015-08-15T16:07:32Z</time>
      </trkpt>
      <trkpt lat="47.3755" lon="0.74966">
        <ele>48.2</ele>
        <time>2015-08-15T16:07:45Z</time>
      </trkpt>
      <trkpt lat="47.37557" lon="0.75035">
        <ele>48.2</ele>
        <time>2015-08-15T16:07:59Z</time>
      </trkpt>
      <trkpt lat="47.3756" lon="0.75125">
        <ele>48.68</ele>
        <time>2015-08-15T16:08:15Z</time>
      </trkpt>
      <trkpt lat="47.37552" lon="0.75231">
        <ele>49.65</ele>
        <time>2015-08-15T16:08:33Z</time>
      </trkpt>
      <trkpt lat="47.37542" lon="0.75325">
        <ele>48.68</ele>
        <time>2015-08-15T16:08:50Z</time>
      </trkpt>
      <trkpt lat="47.37523" lon="0.75405">
        <ele>48.68</ele>
        <time>2015-08-15T16:09:06Z</time>
      </trkpt>
      <trkpt lat="47.37502" lon="0.75455">
        <ele>48.68</ele>
        <time>2015-08-15T16:09:19Z</time>
      </trkpt>
      <trkpt lat="47.37477" lon="0.75508">
        <ele>48.68</ele>
        <time>2015-08-15T16:09:32Z</time>
      </trkpt>
      <trkpt lat="47.37445" lon="0.75576">
        <ele>48.68</ele>
        <time>2015-08-15T16:09:47Z</time>
      </trkpt>
      <trkpt lat="47.37398" lon="0.75628">
        <ele>48.2</ele>
        <time>2015-08-15T16:10:03Z</time>
      </trkpt>
      <trkpt lat="47.37366" lon="0.75683">
        <ele>48.68</ele>
        <time>2015-08-15T16:10:17Z</time>
      </trkpt>
      <trkpt lat="47.37344" lon="0.75734">
        <ele>48.68</ele>
        <time>2015-08-15T16:10:29Z</time>
      </trkpt>
      <trkpt lat="47.37318" lon="0.75798">
        <ele>48.68</ele>
        <time>2015-08-15T16:10:44Z</time>
      </trkpt>
      <trkpt lat="47.37294" lon="0.75857">
        <ele>48.2</ele>
        <time>2015-08-15T16:10:58Z</time>
      </trkpt>
      <trkpt lat="47.37271" lon="0.7591">
        <ele>48.68</ele>
        <time>2015-08-15T16:11:10Z</time>
      </trkpt>
      <trkpt lat="47.37239" lon="0.75987">
        <ele>48.2</ele>
        <time>2015-08-15T16:11:27Z</time>
      </trkpt>
      <trkpt lat="47.37219" lon="0.76026">
        <ele>48.2</ele>
        <time>2015-08-15T16:11:37Z</time>
      </trkpt>
      <trkpt lat="47.37204" lon="0.76061">
        <ele>48.2</ele>
        <time>2015-08-15T16:11:49Z</time>
      </trkpt>
      <trkpt lat="47.37202" lon="0.76062">
        <ele>48.2</ele>
        <time>2015-08-15T16:12:17Z</time>
      </trkpt>
      <trkpt lat="47.37203" lon="0.76064">
        <ele>48.2</ele>
        <time>2015-08-15T16:12:34Z</time>
      </trkpt>
      <trkpt lat="47.37184" lon="0.76101">
        <ele>48.2</ele>
        <time>2015-08-15T16:12:47Z</time>
      </trkpt>
      <trkpt lat="47.37162" lon="0.76153">
        <ele>48.68</ele>
        <time>2015-08-15T16:13:00Z</time>
      </trkpt>
      <trkpt lat="47.37144" lon="0.76191">
        <ele>48.2</ele>
        <time>2015-08-15T16:13:11Z</time>
      </trkpt>
      <trkpt lat="47.37116" lon="0.76248">
        <ele>48.68</ele>
        <time>2015-08-15T16:13:26Z</time>
      </trkpt>
      <trkpt lat="47.37102" lon="0.76292">
        <ele>48.68</ele>
        <time>2015-08-15T16:13:37Z</time>
      </trkpt>
      <trkpt lat="47.37087" lon="0.7634">
        <ele>48.68</ele>
        <time>2015-08-15T16:13:50Z</time>
      </trkpt>
      <trkpt lat="47.37065" lon="0.76398">
        <ele>48.68</ele>
        <time>2015-08-15T16:14:04Z</time>
      </trkpt>
      <trkpt lat="47.37061" lon="0.76444">
        <ele>48.68</ele>
        <time>2015-08-15T16:14:14Z</time>
      </trkpt>
      <trkpt lat="47.37065" lon="0.76496">
        <ele>49.16</ele>
        <time>2015-08-15T16:14:25Z</time>
      </trkpt>
      <trkpt lat="47.37073" lon="0.76565">
        <ele>48.68</ele>
        <time>2015-08-15T16:14:39Z</time>
      </trkpt>
      <trkpt lat="47.3709" lon="0.76653">
        <ele>48.68</ele>
        <time>2015-08-15T16:14:58Z</time>
      </trkpt>
      <trkpt lat="47.37102" lon="0.76712">
        <ele>48.68</ele>
        <time>2015-08-15T16:15:11Z</time>
      </trkpt>
      <trkpt lat="47.37116" lon="0.76778">
        <ele>48.68</ele>
        <time>2015-08-15T16:15:26Z</time>
      </trkpt>
      <trkpt lat="47.37132" lon="0.76854">
        <ele>48.68</ele>
        <time>2015-08-15T16:15:42Z</time>
      </trkpt>
      <trkpt lat="47.37143" lon="0.76924">
        <ele>48.68</ele>
        <time>2015-08-15T16:15:57Z</time>
      </trkpt>
      <trkpt lat="47.37151" lon="0.76997">
        <ele>48.68</ele>
        <time>2015-08-15T16:16:12Z</time>
      </trkpt>
      <trkpt lat="47.37147" lon="0.77065">
        <ele>49.16</ele>
        <time>2015-08-15T16:16:26Z</time>
      </trkpt>
      <trkpt lat="47.37159" lon="0.77148">
        <ele>48.68</ele>
        <time>2015-08-15T16:16:44Z</time>
      </trkpt>
      <trkpt lat="47.37166" lon="0.77204">
        <ele>49.16</ele>
        <time>2015-08-15T16:16:56Z</time>
      </trkpt>
      <trkpt lat="47.3717" lon="0.77278">
        <ele>49.16</ele>
        <time>2015-08-15T16:17:11Z</time>
      </trkpt>
      <trkpt lat="47.37157" lon="0.77347">
        <ele>48.68</ele>
        <time>2015-08-15T16:17:27Z</time>
      </trkpt>
      <trkpt lat="47.37137" lon="0.77407">
        <ele>48.68</ele>
        <time>2015-08-15T16:17:42Z</time>
      </trkpt>
      <trkpt lat="47.37115" lon="0.77413">
        <ele>48.68</ele>
        <time>2015-08-15T16:17:53Z</time>
      </trkpt>
      <trkpt lat="47.37114" lon="0.77417">
        <ele>49.16</ele>
        <time>2015-08-15T16:17:56Z</time>
      </trkpt>
      <trkpt lat="47.37112" lon="0.77419">
        <ele>49.16</ele>
        <time>2015-08-15T16:18:03Z</time>
      </trkpt>
      <trkpt lat="47.37111" lon="0.77419">
        <ele>49.16</ele>
        <time>2015-08-15T16:18:35Z</time>
      </trkpt>
      <trkpt lat="47.37111" lon="0.77418">
        <ele>48.68</ele>
        <time>2015-08-15T16:19:12Z</time>
      </trkpt>
      <trkpt lat="47.37111" lon="0.77419">
        <ele>48.68</ele>
        <time>2015-08-15T16:19:50Z</time>
      </trkpt>
      <trkpt lat="47.37112" lon="0.7742">
        <ele>48.68</ele>
        <time>2015-08-15T16:20:28Z</time>
      </trkpt>
      <trkpt lat="47.37111" lon="0.77421">
        <ele>48.68</ele>
        <time>2015-08-15T16:21:03Z</time>
      </trkpt>
      <trkpt lat="47.37111" lon="0.77421">
        <ele>48.2</ele>
        <time>2015-08-15T16:21:34Z</time>
      </trkpt>
      <trkpt lat="47.3711" lon="0.77421">
        <ele>48.68</ele>
        <time>2015-08-15T16:21:53Z</time>
      </trkpt>
      <trkpt lat="47.37115" lon="0.77398">
        <ele>48.68</ele>
        <time>2015-08-15T16:22:03Z</time>
      </trkpt>
      <trkpt lat="47.37119" lon="0.77335">
        <ele>48.68</ele>
        <time>2015-08-15T16:22:19Z</time>
      </trkpt>
      <trkpt lat="47.37121" lon="0.77325">
        <ele>48.68</ele>
        <time>2015-08-15T16:22:24Z</time>
      </trkpt>
      <trkpt lat="47.37119" lon="0.77323">
        <ele>48.68</ele>
        <time>2015-08-15T16:22:27Z</time>
      </trkpt>
      <trkpt lat="47.37116" lon="0.7735">
        <ele>48.68</ele>
        <time>2015-08-15T16:22:39Z</time>
      </trkpt>
      <trkpt lat="47.37113" lon="0.77411">
        <ele>48.68</ele>
        <time>2015-08-15T16:22:55Z</time>
      </trkpt>
      <trkpt lat="47.37106" lon="0.7748">
        <ele>48.68</ele>
        <time>2015-08-15T16:23:10Z</time>
      </trkpt>
      <trkpt lat="47.37099" lon="0.77539">
        <ele>48.2</ele>
        <time>2015-08-15T16:23:24Z</time>
      </trkpt>
      <trkpt lat="47.37097" lon="0.77585">
        <ele>48.68</ele>
        <time>2015-08-15T16:23:34Z</time>
      </trkpt>
      <trkpt lat="47.37093" lon="0.7763">
        <ele>48.68</ele>
        <time>2015-08-15T16:23:44Z</time>
      </trkpt>
      <trkpt lat="47.37088" lon="0.77687">
        <ele>48.2</ele>
        <time>2015-08-15T16:23:57Z</time>
      </trkpt>
      <trkpt lat="47.37092" lon="0.77752">
        <ele>48.68</ele>
        <time>2015-08-15T16:24:11Z</time>
      </trkpt>
      <trkpt lat="47.37088" lon="0.77808">
        <ele>48.68</ele>
        <time>2015-08-15T16:24:23Z</time>
      </trkpt>
      <trkpt lat="47.37086" lon="0.7788">
        <ele>48.2</ele>
        <time>2015-08-15T16:24:39Z</time>
      </trkpt>
      <trkpt lat="47.37087" lon="0.77895">
        <ele>48.68</ele>
        <time>2015-08-15T16:24:43Z</time>
      </trkpt>
      <trkpt lat="47.37087" lon="0.77908">
        <ele>48.68</ele>
        <time>2015-08-15T16:24:46Z</time>
      </trkpt>
      <trkpt lat="47.37081" lon="0.77965">
        <ele>48.68</ele>
        <time>2015-08-15T16:24:59Z</time>
      </trkpt>
      <trkpt lat="47.37071" lon="0.78039">
        <ele>48.68</ele>
        <time>2015-08-15T16:25:15Z</time>
      </trkpt>
      <trkpt lat="47.37063" lon="0.78111">
        <ele>49.16</ele>
        <time>2015-08-15T16:25:30Z</time>
      </trkpt>
      <trkpt lat="47.37053" lon="0.78171">
        <ele>48.68</ele>
        <time>2015-08-15T16:25:44Z</time>
      </trkpt>
      <trkpt lat="47.37043" lon="0.78229">
        <ele>48.68</ele>
        <time>2015-08-15T16:25:57Z</time>
      </trkpt>
      <trkpt lat="47.37031" lon="0.7829">
        <ele>48.68</ele>
        <time>2015-08-15T16:26:11Z</time>
      </trkpt>
      <trkpt lat="47.37028" lon="0.78303">
        <ele>48.68</ele>
        <time>2015-08-15T16:26:15Z</time>
      </trkpt>
      <trkpt lat="47.37017" lon="0.78364">
        <ele>48.68</ele>
        <time>2015-08-15T16:26:27Z</time>
      </trkpt>
      <trkpt lat="47.37" lon="0.78432">
        <ele>48.68</ele>
        <time>2015-08-15T16:26:41Z</time>
      </trkpt>
      <trkpt lat="47.36988" lon="0.7849">
        <ele>49.16</ele>
        <time>2015-08-15T16:26:54Z</time>
      </trkpt>
      <trkpt lat="47.36972" lon="0.78536">
        <ele>49.16</ele>
        <time>2015-08-15T16:27:05Z</time>
      </trkpt>
      <trkpt lat="47.36964" lon="0.78599">
        <ele>49.16</ele>
        <time>2015-08-15T16:27:18Z</time>
      </trkpt>
      <trkpt lat="47.36961" lon="0.78676">
        <ele>49.16</ele>
        <time>2015-08-15T16:27:33Z</time>
      </trkpt>
      <trkpt lat="47.36956" lon="0.78728">
        <ele>49.16</ele>
        <time>2015-08-15T16:27:45Z</time>
      </trkpt>
      <trkpt lat="47.36952" lon="0.78779">
        <ele>49.16</ele>
        <time>2015-08-15T16:27:57Z</time>
      </trkpt>
      <trkpt lat="47.36945" lon="0.78831">
        <ele>49.16</ele>
        <time>2015-08-15T16:28:14Z</time>
      </trkpt>
      <trkpt lat="47.36939" lon="0.78858">
        <ele>48.68</ele>
        <time>2015-08-15T16:28:23Z</time>
      </trkpt>
      <trkpt lat="47.36935" lon="0.78868">
        <ele>49.16</ele>
        <time>2015-08-15T16:28:27Z</time>
      </trkpt>
      <trkpt lat="47.36932" lon="0.78877">
        <ele>49.16</ele>
        <time>2015-08-15T16:28:31Z</time>
      </trkpt>
      <trkpt lat="47.36932" lon="0.78876">
        <ele>49.16</ele>
        <time>2015-08-15T16:28:36Z</time>
      </trkpt>
      <trkpt lat="47.36929" lon="0.78898">
        <ele>49.16</ele>
        <time>2015-08-15T16:28:48Z</time>
      </trkpt>
      <trkpt lat="47.36924" lon="0.78953">
        <ele>48.68</ele>
        <time>2015-08-15T16:29:03Z</time>
      </trkpt>
      <trkpt lat="47.36917" lon="0.78986">
        <ele>49.16</ele>
        <time>2015-08-15T16:29:11Z</time>
      </trkpt>
      <trkpt lat="47.36913" lon="0.79029">
        <ele>49.16</ele>
        <time>2015-08-15T16:29:22Z</time>
      </trkpt>
      <trkpt lat="47.3691" lon="0.79048">
        <ele>49.16</ele>
        <time>2015-08-15T16:29:27Z</time>
      </trkpt>
      <trkpt lat="47.36905" lon="0.79099">
        <ele>49.16</ele>
        <time>2015-08-15T16:29:41Z</time>
      </trkpt>
      <trkpt lat="47.36901" lon="0.79135">
        <ele>49.16</ele>
        <time>2015-08-15T16:29:51Z</time>
      </trkpt>
      <trkpt lat="47.36897" lon="0.7918">
        <ele>49.16</ele>
        <time>2015-08-15T16:30:05Z</time>
      </trkpt>
      <trkpt lat="47.36896" lon="0.79196">
        <ele>49.16</ele>
        <time>2015-08-15T16:30:16Z</time>
      </trkpt>
      <trkpt lat="47.36895" lon="0.79196">
        <ele>49.16</ele>
        <time>2015-08-15T16:30:45Z</time>
      </trkpt>
      <trkpt lat="47.36893" lon="0.79216">
        <ele>49.16</ele>
        <time>2015-08-15T16:30:56Z</time>
      </trkpt>
      <trkpt lat="47.36885" lon="0.79257">
        <ele>49.16</ele>
        <time>2015-08-15T16:31:08Z</time>
      </trkpt>
      <trkpt lat="47.36878" lon="0.79306">
        <ele>49.65</ele>
        <time>2015-08-15T16:31:21Z</time>
      </trkpt>
      <trkpt lat="47.36868" lon="0.79355">
        <ele>49.16</ele>
        <time>2015-08-15T16:31:34Z</time>
      </trkpt>
      <trkpt lat="47.36857" lon="0.79399">
        <ele>49.65</ele>
        <time>2015-08-15T16:31:47Z</time>
      </trkpt>
      <trkpt lat="47.36847" lon="0.79435">
        <ele>49.16</ele>
        <time>2015-08-15T16:31:58Z</time>
      </trkpt>
      <trkpt lat="47.36832" lon="0.79476">
        <ele>49.16</ele>
        <time>2015-08-15T16:32:10Z</time>
      </trkpt>
      <trkpt lat="47.36816" lon="0.79528">
        <ele>49.16</ele>
        <time>2015-08-15T16:32:22Z</time>
      </trkpt>
      <trkpt lat="47.36805" lon="0.79571">
        <ele>49.16</ele>
        <time>2015-08-15T16:32:32Z</time>
      </trkpt>
      <trkpt lat="47.36785" lon="0.79629">
        <ele>49.16</ele>
        <time>2015-08-15T16:32:45Z</time>
      </trkpt>
      <trkpt lat="47.36767" lon="0.79689">
        <ele>49.65</ele>
        <time>2015-08-15T16:32:59Z</time>
      </trkpt>
      <trkpt lat="47.36749" lon="0.79738">
        <ele>49.65</ele>
        <time>2015-08-15T16:33:11Z</time>
      </trkpt>
      <trkpt lat="47.36729" lon="0.79787">
        <ele>49.16</ele>
        <time>2015-08-15T16:33:23Z</time>
      </trkpt>
      <trkpt lat="47.36697" lon="0.79838">
        <ele>49.16</ele>
        <time>2015-08-15T16:33:38Z</time>
      </trkpt>
      <trkpt lat="47.36676" lon="0.79872">
        <ele>49.16</ele>
        <time>2015-08-15T16:33:49Z</time>
      </trkpt>
      <trkpt lat="47.36649" lon="0.79922">
        <ele>49.16</ele>
        <time>2015-08-15T16:34:02Z</time>
      </trkpt>
      <trkpt lat="47.36623" lon="0.79963">
        <ele>49.16</ele>
        <time>2015-08-15T16:34:14Z</time>
      </trkpt>
      <trkpt lat="47.36602" lon="0.79998">
        <ele>49.16</ele>
        <time>2015-08-15T16:34:25Z</time>
      </trkpt>
      <trkpt lat="47.36579" lon="0.80035">
        <ele>49.16</ele>
        <time>2015-08-15T16:34:37Z</time>
      </trkpt>
      <trkpt lat="47.3656" lon="0.80066">
        <ele>49.16</ele>
        <time>2015-08-15T16:34:48Z</time>
      </trkpt>
      <trkpt lat="47.36538" lon="0.80091">
        <ele>49.16</ele>
        <time>2015-08-15T16:34:59Z</time>
      </trkpt>
      <trkpt lat="47.3651" lon="0.80121">
        <ele>49.16</ele>
        <time>2015-08-15T16:35:13Z</time>
      </trkpt>
      <trkpt lat="47.36483" lon="0.80156">
        <ele>49.16</ele>
        <time>2015-08-15T16:35:24Z</time>
      </trkpt>
      <trkpt lat="47.36461" lon="0.80183">
        <ele>49.16</ele>
        <time>2015-08-15T16:35:35Z</time>
      </trkpt>
      <trkpt lat="47.36442" lon="0.80213">
        <ele>49.16</ele>
        <time>2015-08-15T16:35:50Z</time>
      </trkpt>
      <trkpt lat="47.36441" lon="0.80214">
        <ele>49.16</ele>
        <time>2015-08-15T16:35:53Z</time>
      </trkpt>
      <trkpt lat="47.36439" lon="0.8022">
        <ele>49.16</ele>
        <time>2015-08-15T16:36:11Z</time>
      </trkpt>
      <trkpt lat="47.36439" lon="0.80221">
        <ele>49.16</ele>
        <time>2015-08-15T16:36:48Z</time>
      </trkpt>
      <trkpt lat="47.36438" lon="0.80222">
        <ele>49.16</ele>
        <time>2015-08-15T16:37:25Z</time>
      </trkpt>
      <trkpt lat="47.36438" lon="0.80222">
        <ele>49.16</ele>
        <time>2015-08-15T16:38:04Z</time>
      </trkpt>
      <trkpt lat="47.36439" lon="0.8022">
        <ele>49.16</ele>
        <time>2015-08-15T16:38:46Z</time>
      </trkpt>
      <trkpt lat="47.36439" lon="0.80219">
        <ele>49.16</ele>
        <time>2015-08-15T16:39:26Z</time>
      </trkpt>
      <trkpt lat="47.36438" lon="0.80219">
        <ele>49.16</ele>
        <time>2015-08-15T16:40:04Z</time>
      </trkpt>
      <trkpt lat="47.36439" lon="0.80219">
        <ele>49.16</ele>
        <time>2015-08-15T16:40:45Z</time>
      </trkpt>
      <trkpt lat="47.36439" lon="0.8022">
        <ele>48.68</ele>
        <time>2015-08-15T16:41:23Z</time>
      </trkpt>
      <trkpt lat="47.36438" lon="0.8022">
        <ele>49.16</ele>
        <time>2015-08-15T16:41:56Z</time>
      </trkpt>
      <trkpt lat="47.36435" lon="0.8022">
        <ele>49.16</ele>
        <time>2015-08-15T16:42:15Z</time>
      </trkpt>
      <trkpt lat="47.36435" lon="0.8022">
        <ele>48.68</ele>
        <time>2015-08-15T16:42:56Z</time>
      </trkpt>
      <trkpt lat="47.36435" lon="0.80221">
        <ele>48.68</ele>
        <time>2015-08-15T16:43:30Z</time>
      </trkpt>
      <trkpt lat="47.36434" lon="0.80222">
        <ele>48.68</ele>
        <time>2015-08-15T16:44:08Z</time>
      </trkpt>
      <trkpt lat="47.36434" lon="0.80222">
        <ele>48.68</ele>
        <time>2015-08-15T16:44:46Z</time>
      </trkpt>
      <trkpt lat="47.36434" lon="0.80222">
        <ele>48.68</ele>
        <time>2015-08-15T16:45:18Z</time>
      </trkpt>
      <trkpt lat="47.36432" lon="0.80223">
        <ele>48.68</ele>
        <time>2015-08-15T16:45:31Z</time>
      </trkpt>
      <trkpt lat="47.36429" lon="0.80227">
        <ele>48.68</ele>
        <time>2015-08-15T16:45:38Z</time>
      </trkpt>
      <trkpt lat="47.36429" lon="0.80225">
        <ele>48.68</ele>
        <time>2015-08-15T16:45:39Z</time>
      </trkpt>
      <trkpt lat="47.36433" lon="0.80222">
        <ele>48.68</ele>
        <time>2015-08-15T16:45:42Z</time>
      </trkpt>
      <trkpt lat="47.36447" lon="0.80202">
        <ele>48.68</ele>
        <time>2015-08-15T16:45:54Z</time>
      </trkpt>
      <trkpt lat="47.36447" lon="0.80201">
        <ele>48.68</ele>
        <time>2015-08-15T16:45:58Z</time>
      </trkpt>
      <trkpt lat="47.36448" lon="0.80201">
        <ele>48.68</ele>
        <time>2015-08-15T16:46:08Z</time>
      </trkpt>
      <trkpt lat="47.36442" lon="0.80208">
        <ele>48.68</ele>
        <time>2015-08-15T16:46:13Z</time>
      </trkpt>
      <trkpt lat="47.36415" lon="0.80243">
        <ele>49.16</ele>
        <time>2015-08-15T16:46:26Z</time>
      </trkpt>
      <trkpt lat="47.36389" lon="0.80278">
        <ele>49.16</ele>
        <time>2015-08-15T16:46:36Z</time>
      </trkpt>
      <trkpt lat="47.36354" lon="0.8033">
        <ele>48.68</ele>
        <time>2015-08-15T16:46:50Z</time>
      </trkpt>
      <trkpt lat="47.36333" lon="0.80353">
        <ele>49.16</ele>
        <time>2015-08-15T16:46:59Z</time>
      </trkpt>
      <trkpt lat="47.36301" lon="0.80387">
        <ele>48.68</ele>
        <time>2015-08-15T16:47:13Z</time>
      </trkpt>
      <trkpt lat="47.36263" lon="0.80435">
        <ele>49.65</ele>
        <time>2015-08-15T16:47:28Z</time>
      </trkpt>
      <trkpt lat="47.36243" lon="0.80469">
        <ele>49.65</ele>
        <time>2015-08-15T16:47:40Z</time>
      </trkpt>
      <trkpt lat="47.36224" lon="0.80498">
        <ele>49.65</ele>
        <time>2015-08-15T16:47:51Z</time>
      </trkpt>
      <trkpt lat="47.36223" lon="0.80501">
        <ele>49.65</ele>
        <time>2015-08-15T16:47:52Z</time>
      </trkpt>
      <trkpt lat="47.36212" lon="0.80523">
        <ele>49.65</ele>
        <time>2015-08-15T16:48:02Z</time>
      </trkpt>
      <trkpt lat="47.3621" lon="0.80525">
        <ele>49.65</ele>
        <time>2015-08-15T16:48:03Z</time>
      </trkpt>
      <trkpt lat="47.36208" lon="0.80527">
        <ele>49.16</ele>
        <time>2015-08-15T16:48:04Z</time>
      </trkpt>
      <trkpt lat="47.36207" lon="0.80529">
        <ele>49.16</ele>
        <time>2015-08-15T16:48:05Z</time>
      </trkpt>
      <trkpt lat="47.36206" lon="0.80531">
        <ele>49.16</ele>
        <time>2015-08-15T16:48:06Z</time>
      </trkpt>
      <trkpt lat="47.36206" lon="0.80533">
        <ele>49.65</ele>
        <time>2015-08-15T16:48:07Z</time>
      </trkpt>
      <trkpt lat="47.36195" lon="0.80547">
        <ele>49.65</ele>
        <time>2015-08-15T16:48:16Z</time>
      </trkpt>
      <trkpt lat="47.36192" lon="0.80554">
        <ele>49.65</ele>
        <time>2015-08-15T16:48:25Z</time>
      </trkpt>
      <trkpt lat="47.36192" lon="0.80556">
        <ele>49.65</ele>
        <time>2015-08-15T16:48:26Z</time>
      </trkpt>
      <trkpt lat="47.36191" lon="0.80557">
        <ele>49.65</ele>
        <time>2015-08-15T16:48:27Z</time>
      </trkpt>
      <trkpt lat="47.3619" lon="0.80558">
        <ele>49.65</ele>
        <time>2015-08-15T16:48:28Z</time>
      </trkpt>
      <trkpt lat="47.36177" lon="0.80568">
        <ele>48.2</ele>
        <time>2015-08-15T16:48:42Z</time>
      </trkpt>
      <trkpt lat="47.36177" lon="0.80571">
        <ele>47.72</ele>
        <time>2015-08-15T16:49:00Z</time>
      </trkpt>
      <trkpt lat="47.36175" lon="0.80575">
        <ele>47.24</ele>
        <time>2015-08-15T16:49:16Z</time>
      </trkpt>
      <trkpt lat="47.36174" lon="0.80578">
        <ele>48.2</ele>
        <time>2015-08-15T16:49:31Z</time>
      </trkpt>
      <trkpt lat="47.3616" lon="0.806">
        <ele>48.2</ele>
        <time>2015-08-15T16:49:43Z</time>
      </trkpt>
      <trkpt lat="47.36148" lon="0.80621">
        <ele>48.2</ele>
        <time>2015-08-15T16:49:54Z</time>
      </trkpt>
      <trkpt lat="47.36125" lon="0.80645">
        <ele>47.72</ele>
        <time>2015-08-15T16:50:08Z</time>
      </trkpt>
      <trkpt lat="47.36102" lon="0.80672">
        <ele>48.2</ele>
        <time>2015-08-15T16:50:22Z</time>
      </trkpt>
      <trkpt lat="47.3608" lon="0.807">
        <ele>47.72</ele>
        <time>2015-08-15T16:50:36Z</time>
      </trkpt>
      <trkpt lat="47.36064" lon="0.80731">
        <ele>48.68</ele>
        <time>2015-08-15T16:50:48Z</time>
      </trkpt>
      <trkpt lat="47.36063" lon="0.80733">
        <ele>48.68</ele>
        <time>2015-08-15T16:50:49Z</time>
      </trkpt>
      <trkpt lat="47.36062" lon="0.80734">
        <ele>48.68</ele>
        <time>2015-08-15T16:50:50Z</time>
      </trkpt>
      <trkpt lat="47.36061" lon="0.80736">
        <ele>48.2</ele>
        <time>2015-08-15T16:50:51Z</time>
      </trkpt>
      <trkpt lat="47.36061" lon="0.80738">
        <ele>48.2</ele>
        <time>2015-08-15T16:50:52Z</time>
      </trkpt>
      <trkpt lat="47.3606" lon="0.8074">
        <ele>48.2</ele>
        <time>2015-08-15T16:50:53Z</time>
      </trkpt>
      <trkpt lat="47.3606" lon="0.80742">
        <ele>48.2</ele>
        <time>2015-08-15T16:50:54Z</time>
      </trkpt>
      <trkpt lat="47.3606" lon="0.80744">
        <ele>48.2</ele>
        <time>2015-08-15T16:50:55Z</time>
      </trkpt>
      <trkpt lat="47.3606" lon="0.80747">
        <ele>48.2</ele>
        <time>2015-08-15T16:50:57Z</time>
      </trkpt>
      <trkpt lat="47.36061" lon="0.8075">
        <ele>48.2</ele>
        <time>2015-08-15T16:50:58Z</time>
      </trkpt>
      <trkpt lat="47.36061" lon="0.80752">
        <ele>48.2</ele>
        <time>2015-08-15T16:50:59Z</time>
      </trkpt>
      <trkpt lat="47.36063" lon="0.80755">
        <ele>48.68</ele>
        <time>2015-08-15T16:51:01Z</time>
      </trkpt>
      <trkpt lat="47.36066" lon="0.80758">
        <ele>49.16</ele>
        <time>2015-08-15T16:51:12Z</time>
      </trkpt>
      <trkpt lat="47.36067" lon="0.80759">
        <ele>49.65</ele>
        <time>2015-08-15T16:51:13Z</time>
      </trkpt>
      <trkpt lat="47.36067" lon="0.80761">
        <ele>49.65</ele>
        <time>2015-08-15T16:51:14Z</time>
      </trkpt>
      <trkpt lat="47.36067" lon="0.80763">
        <ele>49.65</ele>
        <time>2015-08-15T16:51:15Z</time>
      </trkpt>
      <trkpt lat="47.36058" lon="0.80768">
        <ele>49.65</ele>
        <time>2015-08-15T16:51:20Z</time>
      </trkpt>
      <trkpt lat="47.36057" lon="0.80769">
        <ele>49.65</ele>
        <time>2015-08-15T16:51:21Z</time>
      </trkpt>
      <trkpt lat="47.36055" lon="0.80769">
        <ele>49.65</ele>
        <time>2015-08-15T16:51:22Z</time>
      </trkpt>
      <trkpt lat="47.36052" lon="0.8077">
        <ele>49.65</ele>
        <time>2015-08-15T16:51:23Z</time>
      </trkpt>
      <trkpt lat="47.3605" lon="0.80771">
        <ele>49.65</ele>
        <time>2015-08-15T16:51:24Z</time>
      </trkpt>
      <trkpt lat="47.36048" lon="0.80772">
        <ele>49.65</ele>
        <time>2015-08-15T16:51:25Z</time>
      </trkpt>
      <trkpt lat="47.36046" lon="0.80773">
        <ele>49.65</ele>
        <time>2015-08-15T16:51:26Z</time>
      </trkpt>
      <trkpt lat="47.36043" lon="0.80774">
        <ele>49.65</ele>
        <time>2015-08-15T16:51:27Z</time>
      </trkpt>
      <trkpt lat="47.36042" lon="0.80774">
        <ele>49.65</ele>
        <time>2015-08-15T16:51:28Z</time>
      </trkpt>
      <trkpt lat="47.3604" lon="0.80773">
        <ele>49.65</ele>
        <time>2015-08-15T16:51:29Z</time>
      </trkpt>
      <trkpt lat="47.36038" lon="0.80772">
        <ele>49.65</ele>
        <time>2015-08-15T16:51:45Z</time>
      </trkpt>
      <trkpt lat="47.36038" lon="0.80771">
        <ele>49.65</ele>
        <time>2015-08-15T16:52:09Z</time>
      </trkpt>
      <trkpt lat="47.36038" lon="0.80771">
        <ele>50.13</ele>
        <time>2015-08-15T16:52:30Z</time>
      </trkpt>
      <trkpt lat="47.36038" lon="0.80771">
        <ele>50.13</ele>
        <time>2015-08-15T16:52:50Z</time>
      </trkpt>
      <trkpt lat="47.36038" lon="0.80771">
        <ele>50.13</ele>
        <time>2015-08-15T16:53:08Z</time>
      </trkpt>
      <trkpt lat="47.36038" lon="0.80774">
        <ele>50.13</ele>
        <time>2015-08-15T16:53:25Z</time>
      </trkpt>
      <trkpt lat="47.36038" lon="0.80775">
        <ele>50.61</ele>
        <time>2015-08-15T16:53:46Z</time>
      </trkpt>
      <trkpt lat="47.36032" lon="0.80792">
        <ele>50.13</ele>
        <time>2015-08-15T16:53:56Z</time>
      </trkpt>
      <trkpt lat="47.36017" lon="0.80827">
        <ele>50.61</ele>
        <time>2015-08-15T16:54:06Z</time>
      </trkpt>
      <trkpt lat="47.35991" lon="0.80893">
        <ele>50.61</ele>
        <time>2015-08-15T16:54:21Z</time>
      </trkpt>
      <trkpt lat="47.35967" lon="0.80951">
        <ele>51.57</ele>
        <time>2015-08-15T16:54:34Z</time>
      </trkpt>
      <trkpt lat="47.35942" lon="0.81018">
        <ele>50.61</ele>
        <time>2015-08-15T16:54:48Z</time>
      </trkpt>
      <trkpt lat="47.35926" lon="0.81077">
        <ele>50.13</ele>
        <time>2015-08-15T16:55:01Z</time>
      </trkpt>
      <trkpt lat="47.35924" lon="0.81143">
        <ele>50.61</ele>
        <time>2015-08-15T16:55:15Z</time>
      </trkpt>
      <trkpt lat="47.3593" lon="0.81239">
        <ele>50.61</ele>
        <time>2015-08-15T16:55:33Z</time>
      </trkpt>
      <trkpt lat="47.35934" lon="0.81305">
        <ele>50.61</ele>
        <time>2015-08-15T16:55:47Z</time>
      </trkpt>
      <trkpt lat="47.35939" lon="0.81353">
        <ele>50.61</ele>
        <time>2015-08-15T16:55:59Z</time>
      </trkpt>
      <trkpt lat="47.35939" lon="0.81382">
        <ele>50.61</ele>
        <time>2015-08-15T16:56:07Z</time>
      </trkpt>
      <trkpt lat="47.35938" lon="0.81386">
        <ele>50.61</ele>
        <time>2015-08-15T16:56:08Z</time>
      </trkpt>
      <trkpt lat="47.35938" lon="0.8139">
        <ele>50.61</ele>
        <time>2015-08-15T16:56:09Z</time>
      </trkpt>
      <trkpt lat="47.35938" lon="0.81393">
        <ele>50.61</ele>
        <time>2015-08-15T16:56:10Z</time>
      </trkpt>
      <trkpt lat="47.3594" lon="0.81397">
        <ele>50.61</ele>
        <time>2015-08-15T16:56:11Z</time>
      </trkpt>
      <trkpt lat="47.35941" lon="0.814">
        <ele>50.61</ele>
        <time>2015-08-15T16:56:12Z</time>
      </trkpt>
      <trkpt lat="47.35941" lon="0.81408">
        <ele>50.61</ele>
        <time>2015-08-15T16:56:14Z</time>
      </trkpt>
      <trkpt lat="47.3595" lon="0.815">
        <ele>51.09</ele>
        <time>2015-08-15T16:56:32Z</time>
      </trkpt>
      <trkpt lat="47.35953" lon="0.81572">
        <ele>51.09</ele>
        <time>2015-08-15T16:56:47Z</time>
      </trkpt>
      <trkpt lat="47.35973" lon="0.81644">
        <ele>51.09</ele>
        <time>2015-08-15T16:57:02Z</time>
      </trkpt>
      <trkpt lat="47.35989" lon="0.81715">
        <ele>50.61</ele>
        <time>2015-08-15T16:57:17Z</time>
      </trkpt>
      <trkpt lat="47.35996" lon="0.81801">
        <ele>50.61</ele>
        <time>2015-08-15T16:57:33Z</time>
      </trkpt>
      <trkpt lat="47.35998" lon="0.81877">
        <ele>50.61</ele>
        <time>2015-08-15T16:57:48Z</time>
      </trkpt>
      <trkpt lat="47.36003" lon="0.81936">
        <ele>50.61</ele>
        <time>2015-08-15T16:58:04Z</time>
      </trkpt>
      <trkpt lat="47.36005" lon="0.81979">
        <ele>50.61</ele>
        <time>2015-08-15T16:58:16Z</time>
      </trkpt>
      <trkpt lat="47.36003" lon="0.82067">
        <ele>51.09</ele>
        <time>2015-08-15T16:58:32Z</time>
      </trkpt>
      <trkpt lat="47.36004" lon="0.82147">
        <ele>51.09</ele>
        <time>2015-08-15T16:58:47Z</time>
      </trkpt>
      <trkpt lat="47.36004" lon="0.8221">
        <ele>51.09</ele>
        <time>2015-08-15T16:59:00Z</time>
      </trkpt>
      <trkpt lat="47.36004" lon="0.8227">
        <ele>51.09</ele>
        <time>2015-08-15T16:59:11Z</time>
      </trkpt>
      <trkpt lat="47.36002" lon="0.82344">
        <ele>51.09</ele>
        <time>2015-08-15T16:59:25Z</time>
      </trkpt>
      <trkpt lat="47.35989" lon="0.82406">
        <ele>51.09</ele>
        <time>2015-08-15T16:59:37Z</time>
      </trkpt>
      <trkpt lat="47.3597" lon="0.82456">
        <ele>51.09</ele>
        <time>2015-08-15T16:59:49Z</time>
      </trkpt>
      <trkpt lat="47.35946" lon="0.82524">
        <ele>51.09</ele>
        <time>2015-08-15T17:00:03Z</time>
      </trkpt>
      <trkpt lat="47.35924" lon="0.82587">
        <ele>50.61</ele>
        <time>2015-08-15T17:00:16Z</time>
      </trkpt>
      <trkpt lat="47.35911" lon="0.82656">
        <ele>51.09</ele>
        <time>2015-08-15T17:00:29Z</time>
      </trkpt>
      <trkpt lat="47.35905" lon="0.82725">
        <ele>51.09</ele>
        <time>2015-08-15T17:00:41Z</time>
      </trkpt>
      <trkpt lat="47.35897" lon="0.82813">
        <ele>51.09</ele>
        <time>2015-08-15T17:00:57Z</time>
      </trkpt>
      <trkpt lat="47.35886" lon="0.82892">
        <ele>50.61</ele>
        <time>2015-08-15T17:01:12Z</time>
      </trkpt>
      <trkpt lat="47.35873" lon="0.82958">
        <ele>51.09</ele>
        <time>2015-08-15T17:01:24Z</time>
      </trkpt>
      <trkpt lat="47.35862" lon="0.83038">
        <ele>50.61</ele>
        <time>2015-08-15T17:01:37Z</time>
      </trkpt>
      <trkpt lat="47.35861" lon="0.83044">
        <ele>51.09</ele>
        <time>2015-08-15T17:01:38Z</time>
      </trkpt>
      <trkpt lat="47.35859" lon="0.83049">
        <ele>50.61</ele>
        <time>2015-08-15T17:01:39Z</time>
      </trkpt>
      <trkpt lat="47.35848" lon="0.83081">
        <ele>51.09</ele>
        <time>2015-08-15T17:01:45Z</time>
      </trkpt>
      <trkpt lat="47.3584" lon="0.83109">
        <ele>50.61</ele>
        <time>2015-08-15T17:01:50Z</time>
      </trkpt>
      <trkpt lat="47.35838" lon="0.83115">
        <ele>51.09</ele>
        <time>2015-08-15T17:01:51Z</time>
      </trkpt>
      <trkpt lat="47.35836" lon="0.83121">
        <ele>51.09</ele>
        <time>2015-08-15T17:01:52Z</time>
      </trkpt>
      <trkpt lat="47.35811" lon="0.83183">
        <ele>51.57</ele>
        <time>2015-08-15T17:02:04Z</time>
      </trkpt>
      <trkpt lat="47.35789" lon="0.83236">
        <ele>51.09</ele>
        <time>2015-08-15T17:02:18Z</time>
      </trkpt>
      <trkpt lat="47.35774" lon="0.83265">
        <ele>51.09</ele>
        <time>2015-08-15T17:02:29Z</time>
      </trkpt>
      <trkpt lat="47.35774" lon="0.83266">
        <ele>51.57</ele>
        <time>2015-08-15T17:02:38Z</time>
      </trkpt>
      <trkpt lat="47.35774" lon="0.83265">
        <ele>51.09</ele>
        <time>2015-08-15T17:03:06Z</time>
      </trkpt>
      <trkpt lat="47.35769" lon="0.83281">
        <ele>51.09</ele>
        <time>2015-08-15T17:03:18Z</time>
      </trkpt>
      <trkpt lat="47.35754" lon="0.83331">
        <ele>51.09</ele>
        <time>2015-08-15T17:03:31Z</time>
      </trkpt>
      <trkpt lat="47.35725" lon="0.8341">
        <ele>51.09</ele>
        <time>2015-08-15T17:03:50Z</time>
      </trkpt>
      <trkpt lat="47.35696" lon="0.83463">
        <ele>51.09</ele>
        <time>2015-08-15T17:04:04Z</time>
      </trkpt>
      <trkpt lat="47.35679" lon="0.83501">
        <ele>51.09</ele>
        <time>2015-08-15T17:04:14Z</time>
      </trkpt>
      <trkpt lat="47.35679" lon="0.83569">
        <ele>50.61</ele>
        <time>2015-08-15T17:04:28Z</time>
      </trkpt>
      <trkpt lat="47.35681" lon="0.83615">
        <ele>51.09</ele>
        <time>2015-08-15T17:04:39Z</time>
      </trkpt>
      <trkpt lat="47.3568" lon="0.8362">
        <ele>52.05</ele>
        <time>2015-08-15T17:04:40Z</time>
      </trkpt>
      <trkpt lat="47.35679" lon="0.83624">
        <ele>50.61</ele>
        <time>2015-08-15T17:04:41Z</time>
      </trkpt>
      <trkpt lat="47.35678" lon="0.83629">
        <ele>50.61</ele>
        <time>2015-08-15T17:04:42Z</time>
      </trkpt>
      <trkpt lat="47.35677" lon="0.83634">
        <ele>50.61</ele>
        <time>2015-08-15T17:04:43Z</time>
      </trkpt>
      <trkpt lat="47.35675" lon="0.8364">
        <ele>50.61</ele>
        <time>2015-08-15T17:04:44Z</time>
      </trkpt>
      <trkpt lat="47.35674" lon="0.83646">
        <ele>50.61</ele>
        <time>2015-08-15T17:04:45Z</time>
      </trkpt>
      <trkpt lat="47.3566" lon="0.83708">
        <ele>51.09</ele>
        <time>2015-08-15T17:04:56Z</time>
      </trkpt>
      <trkpt lat="47.35658" lon="0.83714">
        <ele>51.09</ele>
        <time>2015-08-15T17:04:57Z</time>
      </trkpt>
      <trkpt lat="47.35656" lon="0.83719">
        <ele>51.09</ele>
        <time>2015-08-15T17:04:58Z</time>
      </trkpt>
      <trkpt lat="47.35653" lon="0.83724">
        <ele>51.09</ele>
        <time>2015-08-15T17:04:59Z</time>
      </trkpt>
      <trkpt lat="47.3565" lon="0.83729">
        <ele>51.09</ele>
        <time>2015-08-15T17:05:00Z</time>
      </trkpt>
      <trkpt lat="47.35633" lon="0.83758">
        <ele>51.09</ele>
        <time>2015-08-15T17:05:06Z</time>
      </trkpt>
      <trkpt lat="47.35629" lon="0.83763">
        <ele>50.61</ele>
        <time>2015-08-15T17:05:07Z</time>
      </trkpt>
      <trkpt lat="47.35625" lon="0.83769">
        <ele>51.09</ele>
        <time>2015-08-15T17:05:08Z</time>
      </trkpt>
      <trkpt lat="47.35619" lon="0.83787">
        <ele>51.09</ele>
        <time>2015-08-15T17:05:12Z</time>
      </trkpt>
      <trkpt lat="47.35619" lon="0.83791">
        <ele>51.09</ele>
        <time>2015-08-15T17:05:13Z</time>
      </trkpt>
      <trkpt lat="47.35599" lon="0.83821">
        <ele>51.57</ele>
        <time>2015-08-15T17:05:22Z</time>
      </trkpt>
      <trkpt lat="47.35572" lon="0.83857">
        <ele>51.09</ele>
        <time>2015-08-15T17:05:34Z</time>
      </trkpt>
      <trkpt lat="47.3555" lon="0.83899">
        <ele>51.09</ele>
        <time>2015-08-15T17:05:47Z</time>
      </trkpt>
      <trkpt lat="47.35548" lon="0.83901">
        <ele>51.09</ele>
        <time>2015-08-15T17:05:48Z</time>
      </trkpt>
      <trkpt lat="47.35547" lon="0.83902">
        <ele>51.09</ele>
        <time>2015-08-15T17:05:49Z</time>
      </trkpt>
      <trkpt lat="47.35544" lon="0.83908">
        <ele>51.57</ele>
        <time>2015-08-15T17:05:57Z</time>
      </trkpt>
      <trkpt lat="47.35517" lon="0.83965">
        <ele>52.05</ele>
        <time>2015-08-15T17:06:10Z</time>
      </trkpt>
      <trkpt lat="47.35515" lon="0.8397">
        <ele>52.05</ele>
        <time>2015-08-15T17:06:11Z</time>
      </trkpt>
      <trkpt lat="47.35512" lon="0.83974">
        <ele>51.57</ele>
        <time>2015-08-15T17:06:12Z</time>
      </trkpt>
      <trkpt lat="47.35509" lon="0.83977">
        <ele>52.05</ele>
        <time>2015-08-15T17:06:13Z</time>
      </trkpt>
      <trkpt lat="47.35506" lon="0.83981">
        <ele>52.05</ele>
        <time>2015-08-15T17:06:14Z</time>
      </trkpt>
      <trkpt lat="47.35504" lon="0.83986">
        <ele>51.57</ele>
        <time>2015-08-15T17:06:15Z</time>
      </trkpt>
      <trkpt lat="47.35489" lon="0.84019">
        <ele>52.05</ele>
        <time>2015-08-15T17:06:22Z</time>
      </trkpt>
      <trkpt lat="47.35471" lon="0.84083">
        <ele>51.57</ele>
        <time>2015-08-15T17:06:34Z</time>
      </trkpt>
      <trkpt lat="47.35452" lon="0.84139">
        <ele>52.05</ele>
        <time>2015-08-15T17:06:45Z</time>
      </trkpt>
      <trkpt lat="47.35434" lon="0.84196">
        <ele>52.05</ele>
        <time>2015-08-15T17:06:56Z</time>
      </trkpt>
      <trkpt lat="47.35419" lon="0.84272">
        <ele>52.05</ele>
        <time>2015-08-15T17:07:10Z</time>
      </trkpt>
      <trkpt lat="47.35412" lon="0.84344">
        <ele>52.05</ele>
        <time>2015-08-15T17:07:23Z</time>
      </trkpt>
      <trkpt lat="47.35411" lon="0.8435">
        <ele>51.57</ele>
        <time>2015-08-15T17:07:24Z</time>
      </trkpt>
      <trkpt lat="47.35403" lon="0.84441">
        <ele>52.05</ele>
        <time>2015-08-15T17:07:40Z</time>
      </trkpt>
      <trkpt lat="47.35396" lon="0.84519">
        <ele>52.05</ele>
        <time>2015-08-15T17:07:54Z</time>
      </trkpt>
      <trkpt lat="47.35387" lon="0.84586">
        <ele>52.53</ele>
        <time>2015-08-15T17:08:06Z</time>
      </trkpt>
      <trkpt lat="47.35377" lon="0.84669">
        <ele>52.53</ele>
        <time>2015-08-15T17:08:21Z</time>
      </trkpt>
      <trkpt lat="47.35376" lon="0.84675">
        <ele>52.53</ele>
        <time>2015-08-15T17:08:22Z</time>
      </trkpt>
      <trkpt lat="47.35366" lon="0.84738">
        <ele>53.01</ele>
        <time>2015-08-15T17:08:33Z</time>
      </trkpt>
      <trkpt lat="47.35349" lon="0.8481">
        <ele>52.53</ele>
        <time>2015-08-15T17:08:47Z</time>
      </trkpt>
      <trkpt lat="47.35331" lon="0.84897">
        <ele>52.53</ele>
        <time>2015-08-15T17:09:03Z</time>
      </trkpt>
      <trkpt lat="47.35326" lon="0.84972">
        <ele>53.01</ele>
        <time>2015-08-15T17:09:16Z</time>
      </trkpt>
      <trkpt lat="47.35321" lon="0.8502">
        <ele>52.53</ele>
        <time>2015-08-15T17:09:24Z</time>
      </trkpt>
      <trkpt lat="47.3529" lon="0.85108">
        <ele>52.53</ele>
        <time>2015-08-15T17:09:41Z</time>
      </trkpt>
      <trkpt lat="47.35262" lon="0.85123">
        <ele>53.49</ele>
        <time>2015-08-15T17:09:50Z</time>
      </trkpt>
      <trkpt lat="47.35205" lon="0.85096">
        <ele>56.37</ele>
        <time>2015-08-15T17:10:02Z</time>
      </trkpt>
      <trkpt lat="47.35149" lon="0.85073">
        <ele>56.86</ele>
        <time>2015-08-15T17:10:18Z</time>
      </trkpt>
      <trkpt lat="47.35114" lon="0.85055">
        <ele>55.89</ele>
        <time>2015-08-15T17:10:33Z</time>
      </trkpt>
      <trkpt lat="47.35113" lon="0.85055">
        <ele>55.89</ele>
        <time>2015-08-15T17:10:34Z</time>
      </trkpt>
      <trkpt lat="47.35111" lon="0.85055">
        <ele>55.89</ele>
        <time>2015-08-15T17:10:50Z</time>
      </trkpt>
      <trkpt lat="47.35111" lon="0.85052">
        <ele>55.89</ele>
        <time>2015-08-15T17:11:05Z</time>
      </trkpt>
      <trkpt lat="47.35111" lon="0.85052">
        <ele>55.89</ele>
        <time>2015-08-15T17:11:17Z</time>
      </trkpt>
      <trkpt lat="47.35091" lon="0.85019">
        <ele>54.93</ele>
        <time>2015-08-15T17:11:31Z</time>
      </trkpt>
      <trkpt lat="47.35091" lon="0.85016">
        <ele>55.41</ele>
        <time>2015-08-15T17:11:32Z</time>
      </trkpt>
      <trkpt lat="47.35091" lon="0.85013">
        <ele>54.93</ele>
        <time>2015-08-15T17:11:33Z</time>
      </trkpt>
      <trkpt lat="47.35091" lon="0.8501">
        <ele>55.41</ele>
        <time>2015-08-15T17:11:34Z</time>
      </trkpt>
      <trkpt lat="47.35091" lon="0.85007">
        <ele>54.93</ele>
        <time>2015-08-15T17:11:35Z</time>
      </trkpt>
      <trkpt lat="47.35091" lon="0.85005">
        <ele>54.93</ele>
        <time>2015-08-15T17:11:36Z</time>
      </trkpt>
      <trkpt lat="47.3509" lon="0.85003">
        <ele>54.93</ele>
        <time>2015-08-15T17:11:37Z</time>
      </trkpt>
      <trkpt lat="47.35089" lon="0.84999">
        <ele>54.93</ele>
        <time>2015-08-15T17:11:46Z</time>
      </trkpt>
      <trkpt lat="47.35089" lon="0.84997">
        <ele>54.93</ele>
        <time>2015-08-15T17:11:47Z</time>
      </trkpt>
      <trkpt lat="47.35088" lon="0.84996">
        <ele>54.45</ele>
        <time>2015-08-15T17:11:48Z</time>
      </trkpt>
      <trkpt lat="47.35086" lon="0.84998">
        <ele>54.45</ele>
        <time>2015-08-15T17:11:49Z</time>
      </trkpt>
      <trkpt lat="47.35093" lon="0.85041">
        <ele>53.97</ele>
        <time>2015-08-15T17:12:02Z</time>
      </trkpt>
      <trkpt lat="47.351" lon="0.85081">
        <ele>53.49</ele>
        <time>2015-08-15T17:12:14Z</time>
      </trkpt>
      <trkpt lat="47.35099" lon="0.85084">
        <ele>53.01</ele>
        <time>2015-08-15T17:12:15Z</time>
      </trkpt>
      <trkpt lat="47.35098" lon="0.85086">
        <ele>53.01</ele>
        <time>2015-08-15T17:12:16Z</time>
      </trkpt>
      <trkpt lat="47.35098" lon="0.85089">
        <ele>53.01</ele>
        <time>2015-08-15T17:12:17Z</time>
      </trkpt>
      <trkpt lat="47.35098" lon="0.85092">
        <ele>53.01</ele>
        <time>2015-08-15T17:12:18Z</time>
      </trkpt>
      <trkpt lat="47.35098" lon="0.85095">
        <ele>53.01</ele>
        <time>2015-08-15T17:12:19Z</time>
      </trkpt>
      <trkpt lat="47.351" lon="0.85097">
        <ele>53.01</ele>
        <time>2015-08-15T17:12:20Z</time>
      </trkpt>
      <trkpt lat="47.35101" lon="0.851">
        <ele>53.01</ele>
        <time>2015-08-15T17:12:21Z</time>
      </trkpt>
      <trkpt lat="47.35102" lon="0.85114">
        <ele>53.01</ele>
        <time>2015-08-15T17:12:26Z</time>
      </trkpt>
      <trkpt lat="47.35102" lon="0.85117">
        <ele>53.01</ele>
        <time>2015-08-15T17:12:27Z</time>
      </trkpt>
      <trkpt lat="47.35103" lon="0.85119">
        <ele>52.53</ele>
        <time>2015-08-15T17:12:28Z</time>
      </trkpt>
      <trkpt lat="47.35103" lon="0.85122">
        <ele>52.53</ele>
        <time>2015-08-15T17:12:29Z</time>
      </trkpt>
      <trkpt lat="47.35103" lon="0.85125">
        <ele>52.53</ele>
        <time>2015-08-15T17:12:30Z</time>
      </trkpt>
      <trkpt lat="47.35104" lon="0.85128">
        <ele>52.53</ele>
        <time>2015-08-15T17:12:31Z</time>
      </trkpt>
      <trkpt lat="47.3511" lon="0.85141">
        <ele>52.53</ele>
        <time>2015-08-15T17:12:37Z</time>
      </trkpt>
      <trkpt lat="47.35111" lon="0.85145">
        <ele>53.01</ele>
        <time>2015-08-15T17:12:44Z</time>
      </trkpt>
      <trkpt lat="47.35111" lon="0.85149">
        <ele>53.01</ele>
        <time>2015-08-15T17:12:54Z</time>
      </trkpt>
      <trkpt lat="47.3511" lon="0.85151">
        <ele>53.01</ele>
        <time>2015-08-15T17:12:55Z</time>
      </trkpt>
      <trkpt lat="47.35109" lon="0.85153">
        <ele>53.01</ele>
        <time>2015-08-15T17:12:56Z</time>
      </trkpt>
      <trkpt lat="47.35112" lon="0.85203">
        <ele>52.53</ele>
        <time>2015-08-15T17:13:08Z</time>
      </trkpt>
      <trkpt lat="47.35109" lon="0.85265">
        <ele>53.01</ele>
        <time>2015-08-15T17:13:20Z</time>
      </trkpt>
      <trkpt lat="47.35103" lon="0.85332">
        <ele>53.49</ele>
        <time>2015-08-15T17:13:35Z</time>
      </trkpt>
      <trkpt lat="47.35102" lon="0.85337">
        <ele>53.49</ele>
        <time>2015-08-15T17:13:36Z</time>
      </trkpt>
      <trkpt lat="47.351" lon="0.85344">
        <ele>53.01</ele>
        <time>2015-08-15T17:13:38Z</time>
      </trkpt>
      <trkpt lat="47.35095" lon="0.85401">
        <ele>53.01</ele>
        <time>2015-08-15T17:13:50Z</time>
      </trkpt>
      <trkpt lat="47.35086" lon="0.85483">
        <ele>53.01</ele>
        <time>2015-08-15T17:14:05Z</time>
      </trkpt>
      <trkpt lat="47.35068" lon="0.85584">
        <ele>53.01</ele>
        <time>2015-08-15T17:14:24Z</time>
      </trkpt>
      <trkpt lat="47.35056" lon="0.85662">
        <ele>53.01</ele>
        <time>2015-08-15T17:14:39Z</time>
      </trkpt>
      <trkpt lat="47.3504" lon="0.85741">
        <ele>53.01</ele>
        <time>2015-08-15T17:14:55Z</time>
      </trkpt>
      <trkpt lat="47.35028" lon="0.85789">
        <ele>53.49</ele>
        <time>2015-08-15T17:15:08Z</time>
      </trkpt>
      <trkpt lat="47.35013" lon="0.85851">
        <ele>53.49</ele>
        <time>2015-08-15T17:15:22Z</time>
      </trkpt>
      <trkpt lat="47.35" lon="0.85893">
        <ele>53.49</ele>
        <time>2015-08-15T17:15:34Z</time>
      </trkpt>
      <trkpt lat="47.34989" lon="0.85933">
        <ele>53.49</ele>
        <time>2015-08-15T17:15:47Z</time>
      </trkpt>
      <trkpt lat="47.34989" lon="0.85936">
        <ele>53.49</ele>
        <time>2015-08-15T17:15:48Z</time>
      </trkpt>
      <trkpt lat="47.34982" lon="0.85972">
        <ele>53.49</ele>
        <time>2015-08-15T17:16:00Z</time>
      </trkpt>
      <trkpt lat="47.3497" lon="0.8601">
        <ele>53.49</ele>
        <time>2015-08-15T17:16:14Z</time>
      </trkpt>
      <trkpt lat="47.34965" lon="0.86033">
        <ele>53.01</ele>
        <time>2015-08-15T17:16:24Z</time>
      </trkpt>
      <trkpt lat="47.34963" lon="0.86041">
        <ele>53.01</ele>
        <time>2015-08-15T17:16:29Z</time>
      </trkpt>
      <trkpt lat="47.34955" lon="0.86046">
        <ele>53.49</ele>
        <time>2015-08-15T17:16:42Z</time>
      </trkpt>
      <trkpt lat="47.34954" lon="0.86043">
        <ele>53.49</ele>
        <time>2015-08-15T17:16:43Z</time>
      </trkpt>
      <trkpt lat="47.34949" lon="0.86037">
        <ele>51.57</ele>
        <time>2015-08-15T18:24:19Z</time>
      </trkpt>
      <trkpt lat="47.34949" lon="0.86037">
        <ele>53.49</ele>
        <time>2015-08-15T18:24:24Z</time>
      </trkpt>
      <trkpt lat="47.34945" lon="0.86049">
        <ele>53.49</ele>
        <time>2015-08-15T18:24:36Z</time>
      </trkpt>
      <trkpt lat="47.34941" lon="0.8607">
        <ele>53.49</ele>
        <time>2015-08-15T18:24:49Z</time>
      </trkpt>
      <trkpt lat="47.34933" lon="0.86089">
        <ele>53.97</ele>
        <time>2015-08-15T18:24:55Z</time>
      </trkpt>
      <trkpt lat="47.34928" lon="0.8611">
        <ele>53.49</ele>
        <time>2015-08-15T18:25:03Z</time>
      </trkpt>
      <trkpt lat="47.3492" lon="0.86124">
        <ele>53.97</ele>
        <time>2015-08-15T18:25:11Z</time>
      </trkpt>
      <trkpt lat="47.34918" lon="0.86127">
        <ele>53.49</ele>
        <time>2015-08-15T18:25:13Z</time>
      </trkpt>
      <trkpt lat="47.34919" lon="0.86128">
        <ele>53.97</ele>
        <time>2015-08-15T18:25:20Z</time>
      </trkpt>
      <trkpt lat="47.34924" lon="0.8613">
        <ele>53.97</ele>
        <time>2015-08-15T18:25:37Z</time>
      </trkpt>
      <trkpt lat="47.34927" lon="0.86129">
        <ele>53.49</ele>
        <time>2015-08-15T18:25:39Z</time>
      </trkpt>
      <trkpt lat="47.34921" lon="0.86139">
        <ele>53.01</ele>
        <time>2015-08-15T18:25:49Z</time>
      </trkpt>
      <trkpt lat="47.34921" lon="0.86146">
        <ele>53.49</ele>
        <time>2015-08-15T18:25:55Z</time>
      </trkpt>
      <trkpt lat="47.34904" lon="0.8615">
        <ele>53.97</ele>
        <time>2015-08-15T18:26:02Z</time>
      </trkpt>
      <trkpt lat="47.34903" lon="0.86146">
        <ele>53.97</ele>
        <time>2015-08-15T18:26:03Z</time>
      </trkpt>
      <trkpt lat="47.34902" lon="0.86142">
        <ele>53.97</ele>
        <time>2015-08-15T18:26:04Z</time>
      </trkpt>
      <trkpt lat="47.34902" lon="0.86139">
        <ele>53.97</ele>
        <time>2015-08-15T18:26:05Z</time>
      </trkpt>
      <trkpt lat="47.34904" lon="0.86133">
        <ele>53.97</ele>
        <time>2015-08-15T18:26:07Z</time>
      </trkpt>
      <trkpt lat="47.34904" lon="0.8613">
        <ele>53.97</ele>
        <time>2015-08-15T18:26:08Z</time>
      </trkpt>
      <trkpt lat="47.34905" lon="0.86127">
        <ele>53.49</ele>
        <time>2015-08-15T18:26:09Z</time>
      </trkpt>
      <trkpt lat="47.34905" lon="0.86125">
        <ele>53.49</ele>
        <time>2015-08-15T18:26:10Z</time>
      </trkpt>
      <trkpt lat="47.34904" lon="0.86123">
        <ele>53.49</ele>
        <time>2015-08-15T18:26:11Z</time>
      </trkpt>
      <trkpt lat="47.34904" lon="0.86122">
        <ele>53.49</ele>
        <time>2015-08-15T18:26:12Z</time>
      </trkpt>
      <trkpt lat="47.34905" lon="0.86121">
        <ele>53.97</ele>
        <time>2015-08-15T18:26:13Z</time>
      </trkpt>
      <trkpt lat="47.34905" lon="0.86125">
        <ele>53.97</ele>
        <time>2015-08-15T18:26:16Z</time>
      </trkpt>
      <trkpt lat="47.34901" lon="0.86167">
        <ele>53.97</ele>
        <time>2015-08-15T18:26:27Z</time>
      </trkpt>
      <trkpt lat="47.34901" lon="0.86171">
        <ele>53.97</ele>
        <time>2015-08-15T18:26:28Z</time>
      </trkpt>
      <trkpt lat="47.34882" lon="0.86232">
        <ele>53.97</ele>
        <time>2015-08-15T18:26:41Z</time>
      </trkpt>
      <trkpt lat="47.3487" lon="0.86277">
        <ele>53.97</ele>
        <time>2015-08-15T18:26:51Z</time>
      </trkpt>
      <trkpt lat="47.3486" lon="0.86317">
        <ele>54.45</ele>
        <time>2015-08-15T18:27:02Z</time>
      </trkpt>
      <trkpt lat="47.34843" lon="0.86376">
        <ele>53.97</ele>
        <time>2015-08-15T18:27:14Z</time>
      </trkpt>
      <trkpt lat="47.34826" lon="0.8642">
        <ele>54.45</ele>
        <time>2015-08-15T18:27:23Z</time>
      </trkpt>
      <trkpt lat="47.34805" lon="0.86489">
        <ele>54.45</ele>
        <time>2015-08-15T18:27:37Z</time>
      </trkpt>
      <trkpt lat="47.34793" lon="0.8654">
        <ele>55.41</ele>
        <time>2015-08-15T18:27:49Z</time>
      </trkpt>
      <trkpt lat="47.34791" lon="0.86544">
        <ele>53.97</ele>
        <time>2015-08-15T18:27:50Z</time>
      </trkpt>
      <trkpt lat="47.34776" lon="0.86608">
        <ele>54.45</ele>
        <time>2015-08-15T18:28:04Z</time>
      </trkpt>
      <trkpt lat="47.34764" lon="0.86662">
        <ele>53.97</ele>
        <time>2015-08-15T18:28:16Z</time>
      </trkpt>
      <trkpt lat="47.34763" lon="0.86667">
        <ele>53.97</ele>
        <time>2015-08-15T18:28:17Z</time>
      </trkpt>
      <trkpt lat="47.34763" lon="0.86673">
        <ele>54.45</ele>
        <time>2015-08-15T18:28:18Z</time>
      </trkpt>
      <trkpt lat="47.34762" lon="0.86684">
        <ele>54.45</ele>
        <time>2015-08-15T18:28:20Z</time>
      </trkpt>
      <trkpt lat="47.34752" lon="0.86733">
        <ele>54.45</ele>
        <time>2015-08-15T18:28:30Z</time>
      </trkpt>
      <trkpt lat="47.34742" lon="0.8681">
        <ele>53.97</ele>
        <time>2015-08-15T18:28:43Z</time>
      </trkpt>
      <trkpt lat="47.34731" lon="0.86872">
        <ele>54.93</ele>
        <time>2015-08-15T18:28:56Z</time>
      </trkpt>
      <trkpt lat="47.34727" lon="0.86892">
        <ele>54.45</ele>
        <time>2015-08-15T18:29:01Z</time>
      </trkpt>
      <trkpt lat="47.34724" lon="0.869">
        <ele>54.45</ele>
        <time>2015-08-15T18:29:03Z</time>
      </trkpt>
      <trkpt lat="47.34715" lon="0.86949">
        <ele>54.45</ele>
        <time>2015-08-15T18:29:15Z</time>
      </trkpt>
      <trkpt lat="47.34705" lon="0.87008">
        <ele>54.45</ele>
        <time>2015-08-15T18:29:29Z</time>
      </trkpt>
      <trkpt lat="47.34705" lon="0.87018">
        <ele>54.45</ele>
        <time>2015-08-15T18:29:33Z</time>
      </trkpt>
      <trkpt lat="47.34703" lon="0.8702">
        <ele>54.45</ele>
        <time>2015-08-15T18:29:38Z</time>
      </trkpt>
      <trkpt lat="47.34704" lon="0.8702">
        <ele>53.97</ele>
        <time>2015-08-15T18:30:07Z</time>
      </trkpt>
      <trkpt lat="47.34704" lon="0.87021">
        <ele>53.97</ele>
        <time>2015-08-15T18:30:40Z</time>
      </trkpt>
      <trkpt lat="47.34702" lon="0.87019">
        <ele>54.45</ele>
        <time>2015-08-15T18:31:05Z</time>
      </trkpt>
      <trkpt lat="47.34701" lon="0.87015">
        <ele>54.45</ele>
        <time>2015-08-15T18:31:40Z</time>
      </trkpt>
      <trkpt lat="47.34701" lon="0.87013">
        <ele>54.45</ele>
        <time>2015-08-15T18:32:07Z</time>
      </trkpt>
      <trkpt lat="47.34701" lon="0.8701">
        <ele>54.93</ele>
        <time>2015-08-15T18:32:32Z</time>
      </trkpt>
      <trkpt lat="47.34705" lon="0.86994">
        <ele>54.93</ele>
        <time>2015-08-15T18:32:44Z</time>
      </trkpt>
      <trkpt lat="47.34712" lon="0.86956">
        <ele>54.93</ele>
        <time>2015-08-15T18:32:54Z</time>
      </trkpt>
      <trkpt lat="47.34716" lon="0.8694">
        <ele>54.93</ele>
        <time>2015-08-15T18:32:58Z</time>
      </trkpt>
      <trkpt lat="47.3472" lon="0.86907">
        <ele>55.41</ele>
        <time>2015-08-15T18:33:06Z</time>
      </trkpt>
      <trkpt lat="47.34731" lon="0.86869">
        <ele>55.41</ele>
        <time>2015-08-15T18:33:19Z</time>
      </trkpt>
      <trkpt lat="47.34744" lon="0.86873">
        <ele>54.45</ele>
        <time>2015-08-15T18:33:27Z</time>
      </trkpt>
      <trkpt lat="47.3476" lon="0.86881">
        <ele>53.49</ele>
        <time>2015-08-15T18:33:35Z</time>
      </trkpt>
      <trkpt lat="47.34776" lon="0.86906">
        <ele>53.49</ele>
        <time>2015-08-15T18:33:45Z</time>
      </trkpt>
      <trkpt lat="47.34769" lon="0.86954">
        <ele>53.97</ele>
        <time>2015-08-15T18:33:57Z</time>
      </trkpt>
      <trkpt lat="47.34768" lon="0.86965">
        <ele>53.97</ele>
        <time>2015-08-15T18:34:02Z</time>
      </trkpt>
      <trkpt lat="47.34768" lon="0.86991">
        <ele>53.97</ele>
        <time>2015-08-15T18:34:12Z</time>
      </trkpt>
      <trkpt lat="47.34768" lon="0.86994">
        <ele>53.97</ele>
        <time>2015-08-15T18:34:24Z</time>
      </trkpt>
      <trkpt lat="47.34766" lon="0.8703">
        <ele>53.97</ele>
        <time>2015-08-15T18:34:35Z</time>
      </trkpt>
      <trkpt lat="47.34765" lon="0.87075">
        <ele>53.49</ele>
        <time>2015-08-15T18:34:45Z</time>
      </trkpt>
      <trkpt lat="47.34766" lon="0.87128">
        <ele>53.49</ele>
        <time>2015-08-15T18:34:56Z</time>
      </trkpt>
      <trkpt lat="47.34772" lon="0.87178">
        <ele>53.49</ele>
        <time>2015-08-15T18:35:08Z</time>
      </trkpt>
      <trkpt lat="47.34777" lon="0.8721">
        <ele>53.01</ele>
        <time>2015-08-15T18:35:17Z</time>
      </trkpt>
      <trkpt lat="47.34788" lon="0.87261">
        <ele>53.01</ele>
        <time>2015-08-15T18:35:29Z</time>
      </trkpt>
      <trkpt lat="47.34793" lon="0.87305">
        <ele>53.01</ele>
        <time>2015-08-15T18:35:39Z</time>
      </trkpt>
      <trkpt lat="47.34797" lon="0.87349">
        <ele>53.01</ele>
        <time>2015-08-15T18:35:50Z</time>
      </trkpt>
      <trkpt lat="47.34807" lon="0.87418">
        <ele>53.01</ele>
        <time>2015-08-15T18:36:04Z</time>
      </trkpt>
      <trkpt lat="47.34809" lon="0.87465">
        <ele>53.01</ele>
        <time>2015-08-15T18:36:16Z</time>
      </trkpt>
      <trkpt lat="47.34814" lon="0.87524">
        <ele>53.01</ele>
        <time>2015-08-15T18:36:29Z</time>
      </trkpt>
      <trkpt lat="47.34818" lon="0.87578">
        <ele>53.01</ele>
        <time>2015-08-15T18:36:41Z</time>
      </trkpt>
      <trkpt lat="47.34814" lon="0.87647">
        <ele>53.49</ele>
        <time>2015-08-15T18:36:54Z</time>
      </trkpt>
      <trkpt lat="47.34808" lon="0.87696">
        <ele>53.49</ele>
        <time>2015-08-15T18:37:07Z</time>
      </trkpt>
      <trkpt lat="47.348" lon="0.87718">
        <ele>53.01</ele>
        <time>2015-08-15T18:37:18Z</time>
      </trkpt>
      <trkpt lat="47.348" lon="0.87721">
        <ele>53.01</ele>
        <time>2015-08-15T18:37:21Z</time>
      </trkpt>
      <trkpt lat="47.348" lon="0.87723">
        <ele>53.01</ele>
        <time>2015-08-15T18:37:45Z</time>
      </trkpt>
      <trkpt lat="47.34802" lon="0.87729">
        <ele>53.49</ele>
        <time>2015-08-15T18:37:58Z</time>
      </trkpt>
      <trkpt lat="47.34811" lon="0.87741">
        <ele>51.57</ele>
        <time>2015-08-15T18:38:12Z</time>
      </trkpt>
      <trkpt lat="47.34814" lon="0.87733">
        <ele>51.57</ele>
        <time>2015-08-15T18:38:23Z</time>
      </trkpt>
      <trkpt lat="47.34814" lon="0.87732">
        <ele>51.57</ele>
        <time>2015-08-15T18:38:25Z</time>
      </trkpt>
      <trkpt lat="47.34814" lon="0.87747">
        <ele>51.57</ele>
        <time>2015-08-15T18:38:35Z</time>
      </trkpt>
      <trkpt lat="47.34807" lon="0.87793">
        <ele>52.05</ele>
        <time>2015-08-15T18:38:46Z</time>
      </trkpt>
      <trkpt lat="47.34801" lon="0.87834">
        <ele>52.05</ele>
        <time>2015-08-15T18:38:57Z</time>
      </trkpt>
      <trkpt lat="47.34797" lon="0.87887">
        <ele>52.05</ele>
        <time>2015-08-15T18:39:09Z</time>
      </trkpt>
      <trkpt lat="47.34791" lon="0.87944">
        <ele>52.53</ele>
        <time>2015-08-15T18:39:22Z</time>
      </trkpt>
      <trkpt lat="47.34792" lon="0.88004">
        <ele>52.53</ele>
        <time>2015-08-15T18:39:35Z</time>
      </trkpt>
      <trkpt lat="47.3479" lon="0.88047">
        <ele>52.53</ele>
        <time>2015-08-15T18:39:47Z</time>
      </trkpt>
      <trkpt lat="47.34785" lon="0.88098">
        <ele>52.53</ele>
        <time>2015-08-15T18:39:57Z</time>
      </trkpt>
      <trkpt lat="47.3478" lon="0.88161">
        <ele>52.53</ele>
        <time>2015-08-15T18:40:12Z</time>
      </trkpt>
      <trkpt lat="47.34782" lon="0.88177">
        <ele>52.53</ele>
        <time>2015-08-15T18:40:33Z</time>
      </trkpt>
      <trkpt lat="47.34781" lon="0.88195">
        <ele>52.53</ele>
        <time>2015-08-15T18:40:44Z</time>
      </trkpt>
      <trkpt lat="47.3478" lon="0.88199">
        <ele>52.05</ele>
        <time>2015-08-15T18:40:46Z</time>
      </trkpt>
      <trkpt lat="47.34777" lon="0.88241">
        <ele>52.05</ele>
        <time>2015-08-15T18:40:57Z</time>
      </trkpt>
      <trkpt lat="47.3477" lon="0.88294">
        <ele>51.57</ele>
        <time>2015-08-15T18:41:10Z</time>
      </trkpt>
      <trkpt lat="47.34766" lon="0.88301">
        <ele>51.57</ele>
        <time>2015-08-15T18:41:13Z</time>
      </trkpt>
      <trkpt lat="47.34763" lon="0.88306">
        <ele>52.05</ele>
        <time>2015-08-15T18:41:15Z</time>
      </trkpt>
      <trkpt lat="47.34758" lon="0.88316">
        <ele>52.05</ele>
        <time>2015-08-15T18:41:19Z</time>
      </trkpt>
      <trkpt lat="47.34758" lon="0.88322">
        <ele>52.05</ele>
        <time>2015-08-15T18:41:22Z</time>
      </trkpt>
      <trkpt lat="47.34761" lon="0.88344">
        <ele>51.57</ele>
        <time>2015-08-15T18:41:34Z</time>
      </trkpt>
      <trkpt lat="47.34764" lon="0.88354">
        <ele>51.57</ele>
        <time>2015-08-15T18:41:38Z</time>
      </trkpt>
      <trkpt lat="47.34765" lon="0.88363">
        <ele>51.57</ele>
        <time>2015-08-15T18:41:41Z</time>
      </trkpt>
      <trkpt lat="47.34768" lon="0.88407">
        <ele>51.57</ele>
        <time>2015-08-15T18:41:53Z</time>
      </trkpt>
      <trkpt lat="47.34766" lon="0.88463">
        <ele>51.57</ele>
        <time>2015-08-15T18:42:07Z</time>
      </trkpt>
      <trkpt lat="47.34768" lon="0.88531">
        <ele>51.57</ele>
        <time>2015-08-15T18:42:23Z</time>
      </trkpt>
      <trkpt lat="47.34764" lon="0.88616">
        <ele>51.57</ele>
        <time>2015-08-15T18:42:41Z</time>
      </trkpt>
      <trkpt lat="47.34754" lon="0.88685">
        <ele>52.05</ele>
        <time>2015-08-15T18:42:55Z</time>
      </trkpt>
      <trkpt lat="47.34744" lon="0.88754">
        <ele>51.57</ele>
        <time>2015-08-15T18:43:09Z</time>
      </trkpt>
      <trkpt lat="47.34734" lon="0.88806">
        <ele>52.05</ele>
        <time>2015-08-15T18:43:21Z</time>
      </trkpt>
      <trkpt lat="47.34722" lon="0.8885">
        <ele>52.05</ele>
        <time>2015-08-15T18:43:33Z</time>
      </trkpt>
      <trkpt lat="47.34706" lon="0.88907">
        <ele>52.53</ele>
        <time>2015-08-15T18:43:46Z</time>
      </trkpt>
      <trkpt lat="47.34688" lon="0.88937">
        <ele>53.01</ele>
        <time>2015-08-15T18:43:55Z</time>
      </trkpt>
      <trkpt lat="47.34683" lon="0.88965">
        <ele>53.01</ele>
        <time>2015-08-15T18:44:00Z</time>
      </trkpt>
      <trkpt lat="47.34668" lon="0.89007">
        <ele>52.53</ele>
        <time>2015-08-15T18:44:10Z</time>
      </trkpt>
      <trkpt lat="47.34648" lon="0.89055">
        <ele>52.53</ele>
        <time>2015-08-15T18:44:21Z</time>
      </trkpt>
      <trkpt lat="47.34645" lon="0.89058">
        <ele>52.53</ele>
        <time>2015-08-15T18:44:22Z</time>
      </trkpt>
      <trkpt lat="47.34642" lon="0.89062">
        <ele>52.53</ele>
        <time>2015-08-15T18:44:23Z</time>
      </trkpt>
      <trkpt lat="47.34639" lon="0.89066">
        <ele>53.01</ele>
        <time>2015-08-15T18:44:24Z</time>
      </trkpt>
      <trkpt lat="47.34637" lon="0.8907">
        <ele>53.01</ele>
        <time>2015-08-15T18:44:25Z</time>
      </trkpt>
      <trkpt lat="47.34636" lon="0.89074">
        <ele>52.53</ele>
        <time>2015-08-15T18:44:26Z</time>
      </trkpt>
      <trkpt lat="47.34636" lon="0.89078">
        <ele>52.53</ele>
        <time>2015-08-15T18:44:27Z</time>
      </trkpt>
      <trkpt lat="47.34635" lon="0.89082">
        <ele>53.01</ele>
        <time>2015-08-15T18:44:28Z</time>
      </trkpt>
      <trkpt lat="47.34613" lon="0.8911">
        <ele>54.45</ele>
        <time>2015-08-15T18:44:36Z</time>
      </trkpt>
      <trkpt lat="47.34592" lon="0.89166">
        <ele>56.86</ele>
        <time>2015-08-15T18:44:50Z</time>
      </trkpt>
      <trkpt lat="47.34587" lon="0.89181">
        <ele>53.97</ele>
        <time>2015-08-15T18:44:55Z</time>
      </trkpt>
      <trkpt lat="47.34572" lon="0.89233">
        <ele>54.93</ele>
        <time>2015-08-15T18:45:09Z</time>
      </trkpt>
      <trkpt lat="47.34556" lon="0.89288">
        <ele>54.45</ele>
        <time>2015-08-15T18:45:23Z</time>
      </trkpt>
      <trkpt lat="47.34544" lon="0.8934">
        <ele>54.45</ele>
        <time>2015-08-15T18:45:37Z</time>
      </trkpt>
      <trkpt lat="47.34541" lon="0.8935">
        <ele>54.45</ele>
        <time>2015-08-15T18:45:41Z</time>
      </trkpt>
      <trkpt lat="47.34538" lon="0.8936">
        <ele>54.93</ele>
        <time>2015-08-15T18:45:44Z</time>
      </trkpt>
      <trkpt lat="47.34537" lon="0.89374">
        <ele>54.45</ele>
        <time>2015-08-15T18:45:48Z</time>
      </trkpt>
      <trkpt lat="47.34535" lon="0.89381">
        <ele>54.45</ele>
        <time>2015-08-15T18:45:50Z</time>
      </trkpt>
      <trkpt lat="47.3453" lon="0.8941">
        <ele>54.93</ele>
        <time>2015-08-15T18:46:01Z</time>
      </trkpt>
      <trkpt lat="47.3453" lon="0.89414">
        <ele>54.45</ele>
        <time>2015-08-15T18:46:06Z</time>
      </trkpt>
      <trkpt lat="47.34529" lon="0.89413">
        <ele>54.45</ele>
        <time>2015-08-15T18:46:29Z</time>
      </trkpt>
      <trkpt lat="47.34528" lon="0.89413">
        <ele>54.45</ele>
        <time>2015-08-15T18:47:01Z</time>
      </trkpt>
      <trkpt lat="47.34524" lon="0.89409">
        <ele>54.93</ele>
        <time>2015-08-15T18:47:13Z</time>
      </trkpt>
      <trkpt lat="47.34521" lon="0.89409">
        <ele>55.41</ele>
        <time>2015-08-15T18:47:15Z</time>
      </trkpt>
      <trkpt lat="47.34516" lon="0.89402">
        <ele>55.89</ele>
        <time>2015-08-15T18:47:19Z</time>
      </trkpt>
      <trkpt lat="47.34516" lon="0.89403">
        <ele>56.37</ele>
        <time>2015-08-15T18:47:28Z</time>
      </trkpt>
      <trkpt lat="47.34526" lon="0.89412">
        <ele>54.45</ele>
        <time>2015-08-15T18:47:37Z</time>
      </trkpt>
      <trkpt lat="47.34527" lon="0.89414">
        <ele>54.45</ele>
        <time>2015-08-15T18:47:38Z</time>
      </trkpt>
      <trkpt lat="47.34527" lon="0.89416">
        <ele>54.45</ele>
        <time>2015-08-15T18:47:39Z</time>
      </trkpt>
      <trkpt lat="47.34525" lon="0.89421">
        <ele>54.45</ele>
        <time>2015-08-15T18:47:42Z</time>
      </trkpt>
      <trkpt lat="47.34523" lon="0.89427">
        <ele>54.45</ele>
        <time>2015-08-15T18:47:46Z</time>
      </trkpt>
      <trkpt lat="47.34523" lon="0.89429">
        <ele>54.45</ele>
        <time>2015-08-15T18:47:47Z</time>
      </trkpt>
      <trkpt lat="47.34522" lon="0.89431">
        <ele>54.45</ele>
        <time>2015-08-15T18:47:48Z</time>
      </trkpt>
      <trkpt lat="47.34522" lon="0.89433">
        <ele>54.45</ele>
        <time>2015-08-15T18:47:49Z</time>
      </trkpt>
      <trkpt lat="47.34519" lon="0.89451">
        <ele>54.45</ele>
        <time>2015-08-15T18:47:56Z</time>
      </trkpt>
      <trkpt lat="47.34504" lon="0.89515">
        <ele>54.45</ele>
        <time>2015-08-15T18:48:11Z</time>
      </trkpt>
      <trkpt lat="47.34493" lon="0.89568">
        <ele>54.45</ele>
        <time>2015-08-15T18:48:25Z</time>
      </trkpt>
      <trkpt lat="47.34493" lon="0.8957">
        <ele>54.45</ele>
        <time>2015-08-15T18:48:26Z</time>
      </trkpt>
      <trkpt lat="47.34493" lon="0.89573">
        <ele>54.45</ele>
        <time>2015-08-15T18:48:28Z</time>
      </trkpt>
      <trkpt lat="47.34493" lon="0.89578">
        <ele>54.45</ele>
        <time>2015-08-15T18:48:35Z</time>
      </trkpt>
      <trkpt lat="47.34493" lon="0.89579">
        <ele>54.45</ele>
        <time>2015-08-15T18:48:36Z</time>
      </trkpt>
      <trkpt lat="47.34493" lon="0.89581">
        <ele>53.97</ele>
        <time>2015-08-15T18:49:04Z</time>
      </trkpt>
      <trkpt lat="47.34494" lon="0.89581">
        <ele>53.97</ele>
        <time>2015-08-15T18:49:40Z</time>
      </trkpt>
      <trkpt lat="47.34493" lon="0.8958">
        <ele>54.45</ele>
        <time>2015-08-15T18:50:03Z</time>
      </trkpt>
      <trkpt lat="47.34492" lon="0.89586">
        <ele>54.45</ele>
        <time>2015-08-15T18:50:12Z</time>
      </trkpt>
      <trkpt lat="47.34477" lon="0.89655">
        <ele>54.45</ele>
        <time>2015-08-15T18:50:25Z</time>
      </trkpt>
      <trkpt lat="47.34461" lon="0.89717">
        <ele>54.45</ele>
        <time>2015-08-15T18:50:38Z</time>
      </trkpt>
      <trkpt lat="47.34446" lon="0.89769">
        <ele>54.45</ele>
        <time>2015-08-15T18:50:50Z</time>
      </trkpt>
      <trkpt lat="47.34427" lon="0.89796">
        <ele>54.45</ele>
        <time>2015-08-15T18:51:00Z</time>
      </trkpt>
      <trkpt lat="47.34387" lon="0.89785">
        <ele>54.93</ele>
        <time>2015-08-15T18:51:12Z</time>
      </trkpt>
      <trkpt lat="47.34348" lon="0.89766">
        <ele>55.41</ele>
        <time>2015-08-15T18:51:23Z</time>
      </trkpt>
      <trkpt lat="47.3433" lon="0.89758">
        <ele>55.89</ele>
        <time>2015-08-15T18:51:39Z</time>
      </trkpt>
      <trkpt lat="47.34327" lon="0.89754">
        <ele>55.89</ele>
        <time>2015-08-15T18:51:52Z</time>
      </trkpt>
      <trkpt lat="47.34326" lon="0.89753">
        <ele>55.89</ele>
        <time>2015-08-15T18:51:53Z</time>
      </trkpt>
      <trkpt lat="47.34324" lon="0.89752">
        <ele>56.37</ele>
        <time>2015-08-15T18:51:54Z</time>
      </trkpt>
      <trkpt lat="47.34323" lon="0.89751">
        <ele>56.37</ele>
        <time>2015-08-15T18:51:55Z</time>
      </trkpt>
      <trkpt lat="47.34322" lon="0.8975">
        <ele>56.37</ele>
        <time>2015-08-15T18:51:56Z</time>
      </trkpt>
      <trkpt lat="47.3432" lon="0.8975">
        <ele>55.89</ele>
        <time>2015-08-15T18:51:57Z</time>
      </trkpt>
      <trkpt lat="47.34319" lon="0.89749">
        <ele>56.37</ele>
        <time>2015-08-15T18:51:58Z</time>
      </trkpt>
      <trkpt lat="47.34317" lon="0.89751">
        <ele>56.37</ele>
        <time>2015-08-15T18:52:00Z</time>
      </trkpt>
      <trkpt lat="47.34299" lon="0.898">
        <ele>54.93</ele>
        <time>2015-08-15T18:52:15Z</time>
      </trkpt>
      <trkpt lat="47.34288" lon="0.89873">
        <ele>55.89</ele>
        <time>2015-08-15T18:52:28Z</time>
      </trkpt>
      <trkpt lat="47.34296" lon="0.89934">
        <ele>55.89</ele>
        <time>2015-08-15T18:52:41Z</time>
      </trkpt>
      <trkpt lat="47.34298" lon="0.90014">
        <ele>55.41</ele>
        <time>2015-08-15T18:52:57Z</time>
      </trkpt>
      <trkpt lat="47.34282" lon="0.90099">
        <ele>55.89</ele>
        <time>2015-08-15T18:53:12Z</time>
      </trkpt>
      <trkpt lat="47.34281" lon="0.90105">
        <ele>55.41</ele>
        <time>2015-08-15T18:53:13Z</time>
      </trkpt>
      <trkpt lat="47.34273" lon="0.90151">
        <ele>55.89</ele>
        <time>2015-08-15T18:53:21Z</time>
      </trkpt>
      <trkpt lat="47.34251" lon="0.9025">
        <ele>55.41</ele>
        <time>2015-08-15T18:53:39Z</time>
      </trkpt>
      <trkpt lat="47.34232" lon="0.90343">
        <ele>55.89</ele>
        <time>2015-08-15T18:53:55Z</time>
      </trkpt>
      <trkpt lat="47.34217" lon="0.9042">
        <ele>55.89</ele>
        <time>2015-08-15T18:54:08Z</time>
      </trkpt>
      <trkpt lat="47.34203" lon="0.9048">
        <ele>56.37</ele>
        <time>2015-08-15T18:54:19Z</time>
      </trkpt>
      <trkpt lat="47.34189" lon="0.90544">
        <ele>56.37</ele>
        <time>2015-08-15T18:54:32Z</time>
      </trkpt>
      <trkpt lat="47.34182" lon="0.90626">
        <ele>55.89</ele>
        <time>2015-08-15T18:54:49Z</time>
      </trkpt>
      <trkpt lat="47.34177" lon="0.90683">
        <ele>54.45</ele>
        <time>2015-08-15T18:55:02Z</time>
      </trkpt>
      <trkpt lat="47.3417" lon="0.90747">
        <ele>54.45</ele>
        <time>2015-08-15T18:55:17Z</time>
      </trkpt>
      <trkpt lat="47.3417" lon="0.90802">
        <ele>53.97</ele>
        <time>2015-08-15T18:55:30Z</time>
      </trkpt>
      <trkpt lat="47.34169" lon="0.90806">
        <ele>53.97</ele>
        <time>2015-08-15T18:55:31Z</time>
      </trkpt>
      <trkpt lat="47.34169" lon="0.90809">
        <ele>53.97</ele>
        <time>2015-08-15T18:55:32Z</time>
      </trkpt>
      <trkpt lat="47.34169" lon="0.90812">
        <ele>53.97</ele>
        <time>2015-08-15T18:55:33Z</time>
      </trkpt>
      <trkpt lat="47.34169" lon="0.90815">
        <ele>53.97</ele>
        <time>2015-08-15T18:55:34Z</time>
      </trkpt>
      <trkpt lat="47.34168" lon="0.90817">
        <ele>53.97</ele>
        <time>2015-08-15T18:55:35Z</time>
      </trkpt>
      <trkpt lat="47.34168" lon="0.9082">
        <ele>53.97</ele>
        <time>2015-08-15T18:55:36Z</time>
      </trkpt>
      <trkpt lat="47.34168" lon="0.90822">
        <ele>53.97</ele>
        <time>2015-08-15T18:55:37Z</time>
      </trkpt>
      <trkpt lat="47.34168" lon="0.90824">
        <ele>53.97</ele>
        <time>2015-08-15T18:55:38Z</time>
      </trkpt>
      <trkpt lat="47.34168" lon="0.90826">
        <ele>53.97</ele>
        <time>2015-08-15T18:55:39Z</time>
      </trkpt>
      <trkpt lat="47.34168" lon="0.90828">
        <ele>53.97</ele>
        <time>2015-08-15T18:55:40Z</time>
      </trkpt>
      <trkpt lat="47.34168" lon="0.9083">
        <ele>53.97</ele>
        <time>2015-08-15T18:55:41Z</time>
      </trkpt>
      <trkpt lat="47.3417" lon="0.90833">
        <ele>53.97</ele>
        <time>2015-08-15T18:55:43Z</time>
      </trkpt>
      <trkpt lat="47.34171" lon="0.90835">
        <ele>53.97</ele>
        <time>2015-08-15T18:55:44Z</time>
      </trkpt>
      <trkpt lat="47.34172" lon="0.90837">
        <ele>53.97</ele>
        <time>2015-08-15T18:55:45Z</time>
      </trkpt>
      <trkpt lat="47.34173" lon="0.90838">
        <ele>53.97</ele>
        <time>2015-08-15T18:55:46Z</time>
      </trkpt>
      <trkpt lat="47.34174" lon="0.90839">
        <ele>53.97</ele>
        <time>2015-08-15T18:55:47Z</time>
      </trkpt>
      <trkpt lat="47.34175" lon="0.90841">
        <ele>53.97</ele>
        <time>2015-08-15T18:55:48Z</time>
      </trkpt>
      <trkpt lat="47.34177" lon="0.90841">
        <ele>53.97</ele>
        <time>2015-08-15T18:55:49Z</time>
      </trkpt>
      <trkpt lat="47.34179" lon="0.90841">
        <ele>53.97</ele>
        <time>2015-08-15T18:55:50Z</time>
      </trkpt>
      <trkpt lat="47.3419" lon="0.90824">
        <ele>53.49</ele>
        <time>2015-08-15T18:55:58Z</time>
      </trkpt>
      <trkpt lat="47.34202" lon="0.90797">
        <ele>53.01</ele>
        <time>2015-08-15T18:56:09Z</time>
      </trkpt>
      <trkpt lat="47.34203" lon="0.90795">
        <ele>53.01</ele>
        <time>2015-08-15T18:56:10Z</time>
      </trkpt>
      <trkpt lat="47.34204" lon="0.90793">
        <ele>53.01</ele>
        <time>2015-08-15T18:56:11Z</time>
      </trkpt>
      <trkpt lat="47.34205" lon="0.90792">
        <ele>53.01</ele>
        <time>2015-08-15T18:56:12Z</time>
      </trkpt>
      <trkpt lat="47.34206" lon="0.9079">
        <ele>53.01</ele>
        <time>2015-08-15T18:56:13Z</time>
      </trkpt>
      <trkpt lat="47.34208" lon="0.9079">
        <ele>52.53</ele>
        <time>2015-08-15T18:56:14Z</time>
      </trkpt>
      <trkpt lat="47.34209" lon="0.9079">
        <ele>52.53</ele>
        <time>2015-08-15T18:56:15Z</time>
      </trkpt>
      <trkpt lat="47.34211" lon="0.9079">
        <ele>52.53</ele>
        <time>2015-08-15T18:56:18Z</time>
      </trkpt>
      <trkpt lat="47.34211" lon="0.90791">
        <ele>52.53</ele>
        <time>2015-08-15T18:56:29Z</time>
      </trkpt>
      <trkpt lat="47.3421" lon="0.90791">
        <ele>52.53</ele>
        <time>2015-08-15T18:56:30Z</time>
      </trkpt>
      <trkpt lat="47.34209" lon="0.9079">
        <ele>52.53</ele>
        <time>2015-08-15T18:56:31Z</time>
      </trkpt>
      <trkpt lat="47.34208" lon="0.9079">
        <ele>53.01</ele>
        <time>2015-08-15T18:56:32Z</time>
      </trkpt>
      <trkpt lat="47.34207" lon="0.9079">
        <ele>53.01</ele>
        <time>2015-08-15T18:56:33Z</time>
      </trkpt>
      <trkpt lat="47.34205" lon="0.9079">
        <ele>53.01</ele>
        <time>2015-08-15T18:56:35Z</time>
      </trkpt>
      <trkpt lat="47.34204" lon="0.90791">
        <ele>53.01</ele>
        <time>2015-08-15T18:56:36Z</time>
      </trkpt>
      <trkpt lat="47.3419" lon="0.90828">
        <ele>53.01</ele>
        <time>2015-08-15T18:56:49Z</time>
      </trkpt>
      <trkpt lat="47.34182" lon="0.90842">
        <ele>53.49</ele>
        <time>2015-08-15T18:56:55Z</time>
      </trkpt>
      <trkpt lat="47.3418" lon="0.90845">
        <ele>53.97</ele>
        <time>2015-08-15T18:56:56Z</time>
      </trkpt>
      <trkpt lat="47.34178" lon="0.90848">
        <ele>53.97</ele>
        <time>2015-08-15T18:56:57Z</time>
      </trkpt>
      <trkpt lat="47.34177" lon="0.90857">
        <ele>53.97</ele>
        <time>2015-08-15T18:57:01Z</time>
      </trkpt>
      <trkpt lat="47.34176" lon="0.90858">
        <ele>53.49</ele>
        <time>2015-08-15T18:57:26Z</time>
      </trkpt>
      <trkpt lat="47.34176" lon="0.90858">
        <ele>53.49</ele>
        <time>2015-08-15T18:57:54Z</time>
      </trkpt>
      <trkpt lat="47.34174" lon="0.90875">
        <ele>53.49</ele>
        <time>2015-08-15T18:58:07Z</time>
      </trkpt>
      <trkpt lat="47.34167" lon="0.90933">
        <ele>53.01</ele>
        <time>2015-08-15T18:58:22Z</time>
      </trkpt>
      <trkpt lat="47.34158" lon="0.90983">
        <ele>53.01</ele>
        <time>2015-08-15T18:58:36Z</time>
      </trkpt>
      <trkpt lat="47.34146" lon="0.91021">
        <ele>53.01</ele>
        <time>2015-08-15T18:58:50Z</time>
      </trkpt>
      <trkpt lat="47.34145" lon="0.91023">
        <ele>53.01</ele>
        <time>2015-08-15T18:58:51Z</time>
      </trkpt>
      <trkpt lat="47.34145" lon="0.91027">
        <ele>53.01</ele>
        <time>2015-08-15T18:58:53Z</time>
      </trkpt>
      <trkpt lat="47.34146" lon="0.91028">
        <ele>53.01</ele>
        <time>2015-08-15T18:58:54Z</time>
      </trkpt>
      <trkpt lat="47.34147" lon="0.9103">
        <ele>53.01</ele>
        <time>2015-08-15T18:58:55Z</time>
      </trkpt>
      <trkpt lat="47.34169" lon="0.91051">
        <ele>52.05</ele>
        <time>2015-08-15T18:59:09Z</time>
      </trkpt>
      <trkpt lat="47.3417" lon="0.91054">
        <ele>52.05</ele>
        <time>2015-08-15T18:59:10Z</time>
      </trkpt>
      <trkpt lat="47.34171" lon="0.91056">
        <ele>52.05</ele>
        <time>2015-08-15T18:59:11Z</time>
      </trkpt>
      <trkpt lat="47.34171" lon="0.91058">
        <ele>52.05</ele>
        <time>2015-08-15T18:59:12Z</time>
      </trkpt>
      <trkpt lat="47.34172" lon="0.9106">
        <ele>52.05</ele>
        <time>2015-08-15T18:59:13Z</time>
      </trkpt>
      <trkpt lat="47.34175" lon="0.91063">
        <ele>51.57</ele>
        <time>2015-08-15T18:59:17Z</time>
      </trkpt>
      <trkpt lat="47.34176" lon="0.91064">
        <ele>51.57</ele>
        <time>2015-08-15T18:59:18Z</time>
      </trkpt>
      <trkpt lat="47.34176" lon="0.91067">
        <ele>51.57</ele>
        <time>2015-08-15T18:59:34Z</time>
      </trkpt>
      <trkpt lat="47.34177" lon="0.91067">
        <ele>51.57</ele>
        <time>2015-08-15T19:00:00Z</time>
      </trkpt>
      <trkpt lat="47.34176" lon="0.91066">
        <ele>51.57</ele>
        <time>2015-08-15T19:00:22Z</time>
      </trkpt>
      <trkpt lat="47.34175" lon="0.91066">
        <ele>50.61</ele>
        <time>2015-08-15T19:00:48Z</time>
      </trkpt>
      <trkpt lat="47.34175" lon="0.91066">
        <ele>50.13</ele>
        <time>2015-08-15T19:00:49Z</time>
      </trkpt>
      <trkpt lat="47.34175" lon="0.91066">
        <ele>53.97</ele>
        <time>2015-08-15T19:00:50Z</time>
      </trkpt>
      <trkpt lat="47.34175" lon="0.91066">
        <ele>50.13</ele>
        <time>2015-08-15T19:00:52Z</time>
      </trkpt>
      <trkpt lat="47.34175" lon="0.91066">
        <ele>54.93</ele>
        <time>2015-08-15T19:00:53Z</time>
      </trkpt>
      <trkpt lat="47.34175" lon="0.91066">
        <ele>47.72</ele>
        <time>2015-08-15T19:00:54Z</time>
      </trkpt>
      <trkpt lat="47.34176" lon="0.91067">
        <ele>51.57</ele>
        <time>2015-08-15T19:01:00Z</time>
      </trkpt>
      <trkpt lat="47.34175" lon="0.91066">
        <ele>51.57</ele>
        <time>2015-08-15T19:01:27Z</time>
      </trkpt>
      <trkpt lat="47.34166" lon="0.91045">
        <ele>52.05</ele>
        <time>2015-08-15T19:01:40Z</time>
      </trkpt>
      <trkpt lat="47.34146" lon="0.91032">
        <ele>52.53</ele>
        <time>2015-08-15T19:01:51Z</time>
      </trkpt>
      <trkpt lat="47.34144" lon="0.9103">
        <ele>52.53</ele>
        <time>2015-08-15T19:01:52Z</time>
      </trkpt>
      <trkpt lat="47.34143" lon="0.91029">
        <ele>53.01</ele>
        <time>2015-08-15T19:01:53Z</time>
      </trkpt>
      <trkpt lat="47.3414" lon="0.91028">
        <ele>53.01</ele>
        <time>2015-08-15T19:02:03Z</time>
      </trkpt>
      <trkpt lat="47.34122" lon="0.91076">
        <ele>53.49</ele>
        <time>2015-08-15T19:02:16Z</time>
      </trkpt>
      <trkpt lat="47.34106" lon="0.91149">
        <ele>53.01</ele>
        <time>2015-08-15T19:02:31Z</time>
      </trkpt>
      <trkpt lat="47.34093" lon="0.91216">
        <ele>52.53</ele>
        <time>2015-08-15T19:02:45Z</time>
      </trkpt>
      <trkpt lat="47.34075" lon="0.91301">
        <ele>53.01</ele>
        <time>2015-08-15T19:03:01Z</time>
      </trkpt>
      <trkpt lat="47.34054" lon="0.91395">
        <ele>53.49</ele>
        <time>2015-08-15T19:03:19Z</time>
      </trkpt>
      <trkpt lat="47.34041" lon="0.91459">
        <ele>53.49</ele>
        <time>2015-08-15T19:03:32Z</time>
      </trkpt>
      <trkpt lat="47.34025" lon="0.9154">
        <ele>53.01</ele>
        <time>2015-08-15T19:03:48Z</time>
      </trkpt>
      <trkpt lat="47.34014" lon="0.91592">
        <ele>53.49</ele>
        <time>2015-08-15T19:03:59Z</time>
      </trkpt>
      <trkpt lat="47.34001" lon="0.91663">
        <ele>53.01</ele>
        <time>2015-08-15T19:04:13Z</time>
      </trkpt>
      <trkpt lat="47.34" lon="0.91669">
        <ele>53.01</ele>
        <time>2015-08-15T19:04:14Z</time>
      </trkpt>
      <trkpt lat="47.33999" lon="0.91675">
        <ele>53.01</ele>
        <time>2015-08-15T19:04:15Z</time>
      </trkpt>
      <trkpt lat="47.33995" lon="0.91711">
        <ele>53.01</ele>
        <time>2015-08-15T19:04:21Z</time>
      </trkpt>
      <trkpt lat="47.33991" lon="0.91742">
        <ele>53.49</ele>
        <time>2015-08-15T19:04:29Z</time>
      </trkpt>
      <trkpt lat="47.3399" lon="0.91744">
        <ele>53.49</ele>
        <time>2015-08-15T19:04:49Z</time>
      </trkpt>
      <trkpt lat="47.3399" lon="0.91755">
        <ele>53.97</ele>
        <time>2015-08-15T19:05:01Z</time>
      </trkpt>
      <trkpt lat="47.33996" lon="0.91764">
        <ele>53.01</ele>
        <time>2015-08-15T19:05:06Z</time>
      </trkpt>
      <trkpt lat="47.34018" lon="0.91772">
        <ele>52.05</ele>
        <time>2015-08-15T19:05:16Z</time>
      </trkpt>
      <trkpt lat="47.34055" lon="0.91788">
        <ele>52.05</ele>
        <time>2015-08-15T19:05:30Z</time>
      </trkpt>
      <trkpt lat="47.34104" lon="0.91809">
        <ele>52.53</ele>
        <time>2015-08-15T19:05:48Z</time>
      </trkpt>
      <trkpt lat="47.34143" lon="0.91828">
        <ele>52.05</ele>
        <time>2015-08-15T19:06:05Z</time>
      </trkpt>
      <trkpt lat="47.34151" lon="0.91832">
        <ele>52.05</ele>
        <time>2015-08-15T19:06:10Z</time>
      </trkpt>
      <trkpt lat="47.34152" lon="0.91832">
        <ele>52.05</ele>
        <time>2015-08-15T19:06:19Z</time>
      </trkpt>
      <trkpt lat="47.34153" lon="0.91832">
        <ele>52.05</ele>
        <time>2015-08-15T19:06:43Z</time>
      </trkpt>
      <trkpt lat="47.34159" lon="0.91834">
        <ele>52.05</ele>
        <time>2015-08-15T19:06:56Z</time>
      </trkpt>
      <trkpt lat="47.34163" lon="0.9188">
        <ele>51.57</ele>
        <time>2015-08-15T19:07:08Z</time>
      </trkpt>
      <trkpt lat="47.34161" lon="0.91946">
        <ele>52.05</ele>
        <time>2015-08-15T19:07:23Z</time>
      </trkpt>
      <trkpt lat="47.34153" lon="0.92006">
        <ele>51.57</ele>
        <time>2015-08-15T19:07:38Z</time>
      </trkpt>
      <trkpt lat="47.34138" lon="0.92069">
        <ele>52.05</ele>
        <time>2015-08-15T19:07:53Z</time>
      </trkpt>
      <trkpt lat="47.34121" lon="0.92125">
        <ele>52.05</ele>
        <time>2015-08-15T19:08:07Z</time>
      </trkpt>
      <trkpt lat="47.34109" lon="0.92139">
        <ele>52.05</ele>
        <time>2015-08-15T19:08:13Z</time>
      </trkpt>
      <trkpt lat="47.34101" lon="0.92163">
        <ele>51.57</ele>
        <time>2015-08-15T19:08:20Z</time>
      </trkpt>
      <trkpt lat="47.34096" lon="0.92176">
        <ele>52.05</ele>
        <time>2015-08-15T19:08:24Z</time>
      </trkpt>
      <trkpt lat="47.34082" lon="0.92212">
        <ele>51.57</ele>
        <time>2015-08-15T19:08:36Z</time>
      </trkpt>
      <trkpt lat="47.34064" lon="0.92249">
        <ele>51.57</ele>
        <time>2015-08-15T19:08:49Z</time>
      </trkpt>
      <trkpt lat="47.34046" lon="0.92303">
        <ele>51.57</ele>
        <time>2015-08-15T19:09:06Z</time>
      </trkpt>
      <trkpt lat="47.34027" lon="0.92356">
        <ele>51.57</ele>
        <time>2015-08-15T19:09:23Z</time>
      </trkpt>
      <trkpt lat="47.34013" lon="0.92396">
        <ele>51.57</ele>
        <time>2015-08-15T19:09:37Z</time>
      </trkpt>
      <trkpt lat="47.33993" lon="0.92443">
        <ele>51.57</ele>
        <time>2015-08-15T19:09:53Z</time>
      </trkpt>
      <trkpt lat="47.33976" lon="0.92482">
        <ele>51.57</ele>
        <time>2015-08-15T19:10:08Z</time>
      </trkpt>
      <trkpt lat="47.33955" lon="0.92523">
        <ele>51.57</ele>
        <time>2015-08-15T19:10:24Z</time>
      </trkpt>
      <trkpt lat="47.33938" lon="0.92551">
        <ele>51.09</ele>
        <time>2015-08-15T19:10:37Z</time>
      </trkpt>
      <trkpt lat="47.33933" lon="0.9256">
        <ele>51.09</ele>
        <time>2015-08-15T19:10:48Z</time>
      </trkpt>
      <trkpt lat="47.33928" lon="0.9257">
        <ele>51.09</ele>
        <time>2015-08-15T19:11:02Z</time>
      </trkpt>
      <trkpt lat="47.33927" lon="0.9257">
        <ele>51.09</ele>
        <time>2015-08-15T19:11:33Z</time>
      </trkpt>
      <trkpt lat="47.33926" lon="0.92571">
        <ele>51.09</ele>
        <time>2015-08-15T19:12:11Z</time>
      </trkpt>
      <trkpt lat="47.33926" lon="0.92571">
        <ele>51.09</ele>
        <time>2015-08-15T19:12:49Z</time>
      </trkpt>
      <trkpt lat="47.33926" lon="0.9257">
        <ele>51.09</ele>
        <time>2015-08-15T19:13:25Z</time>
      </trkpt>
      <trkpt lat="47.33927" lon="0.92571">
        <ele>51.09</ele>
        <time>2015-08-15T19:13:59Z</time>
      </trkpt>
      <trkpt lat="47.33927" lon="0.92571">
        <ele>54.45</ele>
        <time>2015-08-15T19:14:00Z</time>
      </trkpt>
      <trkpt lat="47.33927" lon="0.92571">
        <ele>50.61</ele>
        <time>2015-08-15T19:14:01Z</time>
      </trkpt>
      <trkpt lat="47.33927" lon="0.92571">
        <ele>47.24</ele>
        <time>2015-08-15T19:14:02Z</time>
      </trkpt>
      <trkpt lat="47.33927" lon="0.92571">
        <ele>50.61</ele>
        <time>2015-08-15T19:14:18Z</time>
      </trkpt>
      <trkpt lat="47.33927" lon="0.92571">
        <ele>52.05</ele>
        <time>2015-08-15T19:14:47Z</time>
      </trkpt>
      <trkpt lat="47.33927" lon="0.92571">
        <ele>48.2</ele>
        <time>2015-08-15T19:14:48Z</time>
      </trkpt>
      <trkpt lat="47.33927" lon="0.92571">
        <ele>52.53</ele>
        <time>2015-08-15T19:14:49Z</time>
      </trkpt>
      <trkpt lat="47.33927" lon="0.92571">
        <ele>47.24</ele>
        <time>2015-08-15T19:14:50Z</time>
      </trkpt>
      <trkpt lat="47.33927" lon="0.92571">
        <ele>53.01</ele>
        <time>2015-08-15T19:14:52Z</time>
      </trkpt>
      <trkpt lat="47.33927" lon="0.92571">
        <ele>46.76</ele>
        <time>2015-08-15T19:14:53Z</time>
      </trkpt>
      <trkpt lat="47.33927" lon="0.92572">
        <ele>50.13</ele>
        <time>2015-08-15T19:15:14Z</time>
      </trkpt>
      <trkpt lat="47.33928" lon="0.92571">
        <ele>50.13</ele>
        <time>2015-08-15T19:15:48Z</time>
      </trkpt>
      <trkpt lat="47.33928" lon="0.92572">
        <ele>50.13</ele>
        <time>2015-08-15T19:16:23Z</time>
      </trkpt>
      <trkpt lat="47.33928" lon="0.92572">
        <ele>52.53</ele>
        <time>2015-08-15T19:16:49Z</time>
      </trkpt>
      <trkpt lat="47.33928" lon="0.92572">
        <ele>48.68</ele>
        <time>2015-08-15T19:16:56Z</time>
      </trkpt>
      <trkpt lat="47.33928" lon="0.92572">
        <ele>50.61</ele>
        <time>2015-08-15T19:16:59Z</time>
      </trkpt>
      <trkpt lat="47.33928" lon="0.92572">
        <ele>46.76</ele>
        <time>2015-08-15T19:17:00Z</time>
      </trkpt>
      <trkpt lat="47.33928" lon="0.92572">
        <ele>49.65</ele>
        <time>2015-08-15T19:17:07Z</time>
      </trkpt>
      <trkpt lat="47.33924" lon="0.92583">
        <ele>49.65</ele>
        <time>2015-08-15T19:17:20Z</time>
      </trkpt>
      <trkpt lat="47.33909" lon="0.92611">
        <ele>49.65</ele>
        <time>2015-08-15T19:17:29Z</time>
      </trkpt>
      <trkpt lat="47.33885" lon="0.9266">
        <ele>49.65</ele>
        <time>2015-08-15T19:17:43Z</time>
      </trkpt>
      <trkpt lat="47.33854" lon="0.92724">
        <ele>49.65</ele>
        <time>2015-08-15T19:18:02Z</time>
      </trkpt>
      <trkpt lat="47.33821" lon="0.92804">
        <ele>49.16</ele>
        <time>2015-08-15T19:18:22Z</time>
      </trkpt>
      <trkpt lat="47.33802" lon="0.92858">
        <ele>49.65</ele>
        <time>2015-08-15T19:18:37Z</time>
      </trkpt>
      <trkpt lat="47.33776" lon="0.92942">
        <ele>49.65</ele>
        <time>2015-08-15T19:18:57Z</time>
      </trkpt>
      <trkpt lat="47.33749" lon="0.93023">
        <ele>49.16</ele>
        <time>2015-08-15T19:19:16Z</time>
      </trkpt>
      <trkpt lat="47.33728" lon="0.93091">
        <ele>49.16</ele>
        <time>2015-08-15T19:19:31Z</time>
      </trkpt>
      <trkpt lat="47.3371" lon="0.93154">
        <ele>49.16</ele>
        <time>2015-08-15T19:19:45Z</time>
      </trkpt>
      <trkpt lat="47.33693" lon="0.93225">
        <ele>49.65</ele>
        <time>2015-08-15T19:19:58Z</time>
      </trkpt>
      <trkpt lat="47.33665" lon="0.93295">
        <ele>50.13</ele>
        <time>2015-08-15T19:20:12Z</time>
      </trkpt>
      <trkpt lat="47.33648" lon="0.93359">
        <ele>50.13</ele>
        <time>2015-08-15T19:20:25Z</time>
      </trkpt>
      <trkpt lat="47.33648" lon="0.93364">
        <ele>50.13</ele>
        <time>2015-08-15T19:20:26Z</time>
      </trkpt>
      <trkpt lat="47.33644" lon="0.9342">
        <ele>50.13</ele>
        <time>2015-08-15T19:20:40Z</time>
      </trkpt>
      <trkpt lat="47.33642" lon="0.93464">
        <ele>49.65</ele>
        <time>2015-08-15T19:20:51Z</time>
      </trkpt>
      <trkpt lat="47.33642" lon="0.93473">
        <ele>50.13</ele>
        <time>2015-08-15T19:20:54Z</time>
      </trkpt>
      <trkpt lat="47.33619" lon="0.93515">
        <ele>50.61</ele>
        <time>2015-08-15T19:21:06Z</time>
      </trkpt>
      <trkpt lat="47.33613" lon="0.93557">
        <ele>50.13</ele>
        <time>2015-08-15T19:21:18Z</time>
      </trkpt>
      <trkpt lat="47.33612" lon="0.9357">
        <ele>50.13</ele>
        <time>2015-08-15T19:21:21Z</time>
      </trkpt>
      <trkpt lat="47.33599" lon="0.93594">
        <ele>50.61</ele>
        <time>2015-08-15T19:21:27Z</time>
      </trkpt>
      <trkpt lat="47.33598" lon="0.93605">
        <ele>50.61</ele>
        <time>2015-08-15T19:21:30Z</time>
      </trkpt>
      <trkpt lat="47.33597" lon="0.93616">
        <ele>50.61</ele>
        <time>2015-08-15T19:21:33Z</time>
      </trkpt>
      <trkpt lat="47.33593" lon="0.9364">
        <ele>51.09</ele>
        <time>2015-08-15T19:21:39Z</time>
      </trkpt>
      <trkpt lat="47.33592" lon="0.93646">
        <ele>50.61</ele>
        <time>2015-08-15T19:21:41Z</time>
      </trkpt>
      <trkpt lat="47.33587" lon="0.93686">
        <ele>51.09</ele>
        <time>2015-08-15T19:21:52Z</time>
      </trkpt>
      <trkpt lat="47.33577" lon="0.93716">
        <ele>51.09</ele>
        <time>2015-08-15T19:22:02Z</time>
      </trkpt>
      <trkpt lat="47.33575" lon="0.93722">
        <ele>50.61</ele>
        <time>2015-08-15T19:22:04Z</time>
      </trkpt>
      <trkpt lat="47.33573" lon="0.93732">
        <ele>50.61</ele>
        <time>2015-08-15T19:22:07Z</time>
      </trkpt>
      <trkpt lat="47.33567" lon="0.93751">
        <ele>51.09</ele>
        <time>2015-08-15T19:22:12Z</time>
      </trkpt>
      <trkpt lat="47.33557" lon="0.93786">
        <ele>51.09</ele>
        <time>2015-08-15T19:22:21Z</time>
      </trkpt>
      <trkpt lat="47.33544" lon="0.93833">
        <ele>51.09</ele>
        <time>2015-08-15T19:22:33Z</time>
      </trkpt>
      <trkpt lat="47.33541" lon="0.93839">
        <ele>50.61</ele>
        <time>2015-08-15T19:22:35Z</time>
      </trkpt>
      <trkpt lat="47.3353" lon="0.93886">
        <ele>52.05</ele>
        <time>2015-08-15T19:22:47Z</time>
      </trkpt>
      <trkpt lat="47.33521" lon="0.93917">
        <ele>51.09</ele>
        <time>2015-08-15T19:22:58Z</time>
      </trkpt>
      <trkpt lat="47.33505" lon="0.93948">
        <ele>52.05</ele>
        <time>2015-08-15T19:23:06Z</time>
      </trkpt>
      <trkpt lat="47.33496" lon="0.9398">
        <ele>52.53</ele>
        <time>2015-08-15T19:23:14Z</time>
      </trkpt>
      <trkpt lat="47.33493" lon="0.9399">
        <ele>52.53</ele>
        <time>2015-08-15T19:23:17Z</time>
      </trkpt>
      <trkpt lat="47.33493" lon="0.94029">
        <ele>53.01</ele>
        <time>2015-08-15T19:23:27Z</time>
      </trkpt>
      <trkpt lat="47.33487" lon="0.94079">
        <ele>53.01</ele>
        <time>2015-08-15T19:23:40Z</time>
      </trkpt>
      <trkpt lat="47.33473" lon="0.9413">
        <ele>53.01</ele>
        <time>2015-08-15T19:23:55Z</time>
      </trkpt>
      <trkpt lat="47.33463" lon="0.94158">
        <ele>53.49</ele>
        <time>2015-08-15T19:24:06Z</time>
      </trkpt>
      <trkpt lat="47.33462" lon="0.94159">
        <ele>53.49</ele>
        <time>2015-08-15T19:24:07Z</time>
      </trkpt>
      <trkpt lat="47.33461" lon="0.9416">
        <ele>53.49</ele>
        <time>2015-08-15T19:24:23Z</time>
      </trkpt>
      <trkpt lat="47.33462" lon="0.94161">
        <ele>53.49</ele>
        <time>2015-08-15T19:24:43Z</time>
      </trkpt>
      <trkpt lat="47.33461" lon="0.94162">
        <ele>53.49</ele>
        <time>2015-08-15T19:25:12Z</time>
      </trkpt>
      <trkpt lat="47.33459" lon="0.94161">
        <ele>53.49</ele>
        <time>2015-08-15T19:25:38Z</time>
      </trkpt>
      <trkpt lat="47.3346" lon="0.9416">
        <ele>53.49</ele>
        <time>2015-08-15T19:26:01Z</time>
      </trkpt>
      <trkpt lat="47.33459" lon="0.94163">
        <ele>53.49</ele>
        <time>2015-08-15T19:26:28Z</time>
      </trkpt>
      <trkpt lat="47.33458" lon="0.94164">
        <ele>53.97</ele>
        <time>2015-08-15T19:26:51Z</time>
      </trkpt>
      <trkpt lat="47.33455" lon="0.94168">
        <ele>53.97</ele>
        <time>2015-08-15T19:27:02Z</time>
      </trkpt>
      <trkpt lat="47.33455" lon="0.9417">
        <ele>53.97</ele>
        <time>2015-08-15T19:27:03Z</time>
      </trkpt>
      <trkpt lat="47.33455" lon="0.94172">
        <ele>53.97</ele>
        <time>2015-08-15T19:27:04Z</time>
      </trkpt>
      <trkpt lat="47.33455" lon="0.94175">
        <ele>53.97</ele>
        <time>2015-08-15T19:27:05Z</time>
      </trkpt>
      <trkpt lat="47.33455" lon="0.94177">
        <ele>53.97</ele>
        <time>2015-08-15T19:27:06Z</time>
      </trkpt>
      <trkpt lat="47.33455" lon="0.9418">
        <ele>53.97</ele>
        <time>2015-08-15T19:27:07Z</time>
      </trkpt>
      <trkpt lat="47.33454" lon="0.94182">
        <ele>53.97</ele>
        <time>2015-08-15T19:27:08Z</time>
      </trkpt>
      <trkpt lat="47.33452" lon="0.94183">
        <ele>53.97</ele>
        <time>2015-08-15T19:27:09Z</time>
      </trkpt>
      <trkpt lat="47.3345" lon="0.94185">
        <ele>53.97</ele>
        <time>2015-08-15T19:27:10Z</time>
      </trkpt>
      <trkpt lat="47.33438" lon="0.94226">
        <ele>54.45</ele>
        <time>2015-08-15T19:27:20Z</time>
      </trkpt>
      <trkpt lat="47.33437" lon="0.94231">
        <ele>53.97</ele>
        <time>2015-08-15T19:27:21Z</time>
      </trkpt>
      <trkpt lat="47.33436" lon="0.94237">
        <ele>53.97</ele>
        <time>2015-08-15T19:27:22Z</time>
      </trkpt>
      <trkpt lat="47.33435" lon="0.94242">
        <ele>53.97</ele>
        <time>2015-08-15T19:27:23Z</time>
      </trkpt>
      <trkpt lat="47.33434" lon="0.94248">
        <ele>53.97</ele>
        <time>2015-08-15T19:27:24Z</time>
      </trkpt>
      <trkpt lat="47.33433" lon="0.94254">
        <ele>53.97</ele>
        <time>2015-08-15T19:27:25Z</time>
      </trkpt>
      <trkpt lat="47.33426" lon="0.94281">
        <ele>54.45</ele>
        <time>2015-08-15T19:27:30Z</time>
      </trkpt>
      <trkpt lat="47.3341" lon="0.94339">
        <ele>54.45</ele>
        <time>2015-08-15T19:27:41Z</time>
      </trkpt>
      <trkpt lat="47.33379" lon="0.944">
        <ele>53.97</ele>
        <time>2015-08-15T19:27:55Z</time>
      </trkpt>
      <trkpt lat="47.33365" lon="0.94459">
        <ele>53.97</ele>
        <time>2015-08-15T19:28:07Z</time>
      </trkpt>
      <trkpt lat="47.33357" lon="0.94523">
        <ele>53.97</ele>
        <time>2015-08-15T19:28:20Z</time>
      </trkpt>
      <trkpt lat="47.33344" lon="0.94611">
        <ele>53.97</ele>
        <time>2015-08-15T19:28:35Z</time>
      </trkpt>
      <trkpt lat="47.33336" lon="0.94632">
        <ele>53.97</ele>
        <time>2015-08-15T19:28:39Z</time>
      </trkpt>
      <trkpt lat="47.33319" lon="0.94717">
        <ele>53.49</ele>
        <time>2015-08-15T19:28:55Z</time>
      </trkpt>
      <trkpt lat="47.33318" lon="0.94723">
        <ele>53.49</ele>
        <time>2015-08-15T19:28:56Z</time>
      </trkpt>
      <trkpt lat="47.33316" lon="0.94729">
        <ele>53.49</ele>
        <time>2015-08-15T19:28:57Z</time>
      </trkpt>
      <trkpt lat="47.33308" lon="0.94785">
        <ele>53.49</ele>
        <time>2015-08-15T19:29:06Z</time>
      </trkpt>
      <trkpt lat="47.33307" lon="0.94791">
        <ele>53.49</ele>
        <time>2015-08-15T19:29:07Z</time>
      </trkpt>
      <trkpt lat="47.33306" lon="0.94798">
        <ele>53.01</ele>
        <time>2015-08-15T19:29:08Z</time>
      </trkpt>
      <trkpt lat="47.33305" lon="0.94804">
        <ele>53.49</ele>
        <time>2015-08-15T19:29:09Z</time>
      </trkpt>
      <trkpt lat="47.33303" lon="0.94811">
        <ele>53.49</ele>
        <time>2015-08-15T19:29:10Z</time>
      </trkpt>
      <trkpt lat="47.33299" lon="0.94852">
        <ele>53.49</ele>
        <time>2015-08-15T19:29:16Z</time>
      </trkpt>
      <trkpt lat="47.33282" lon="0.94949">
        <ele>53.97</ele>
        <time>2015-08-15T19:29:32Z</time>
      </trkpt>
      <trkpt lat="47.33274" lon="0.95023">
        <ele>53.97</ele>
        <time>2015-08-15T19:29:45Z</time>
      </trkpt>
      <trkpt lat="47.33273" lon="0.9503">
        <ele>53.97</ele>
        <time>2015-08-15T19:29:46Z</time>
      </trkpt>
      <trkpt lat="47.33273" lon="0.95036">
        <ele>53.97</ele>
        <time>2015-08-15T19:29:47Z</time>
      </trkpt>
      <trkpt lat="47.3327" lon="0.9506">
        <ele>53.97</ele>
        <time>2015-08-15T19:29:51Z</time>
      </trkpt>
      <trkpt lat="47.33269" lon="0.95066">
        <ele>53.97</ele>
        <time>2015-08-15T19:29:52Z</time>
      </trkpt>
      <trkpt lat="47.33269" lon="0.95072">
        <ele>53.97</ele>
        <time>2015-08-15T19:29:53Z</time>
      </trkpt>
      <trkpt lat="47.33268" lon="0.95077">
        <ele>53.97</ele>
        <time>2015-08-15T19:29:54Z</time>
      </trkpt>
      <trkpt lat="47.33268" lon="0.95083">
        <ele>53.97</ele>
        <time>2015-08-15T19:29:55Z</time>
      </trkpt>
      <trkpt lat="47.33268" lon="0.95089">
        <ele>53.97</ele>
        <time>2015-08-15T19:29:56Z</time>
      </trkpt>
      <trkpt lat="47.3326" lon="0.95153">
        <ele>53.97</ele>
        <time>2015-08-15T19:30:07Z</time>
      </trkpt>
      <trkpt lat="47.33252" lon="0.95213">
        <ele>53.49</ele>
        <time>2015-08-15T19:30:18Z</time>
      </trkpt>
      <trkpt lat="47.33241" lon="0.95282">
        <ele>53.49</ele>
        <time>2015-08-15T19:30:31Z</time>
      </trkpt>
      <trkpt lat="47.3324" lon="0.95288">
        <ele>53.49</ele>
        <time>2015-08-15T19:30:32Z</time>
      </trkpt>
      <trkpt lat="47.33237" lon="0.95311">
        <ele>53.49</ele>
        <time>2015-08-15T19:30:36Z</time>
      </trkpt>
      <trkpt lat="47.33233" lon="0.95329">
        <ele>53.49</ele>
        <time>2015-08-15T19:30:39Z</time>
      </trkpt>
      <trkpt lat="47.33232" lon="0.95335">
        <ele>53.49</ele>
        <time>2015-08-15T19:30:40Z</time>
      </trkpt>
      <trkpt lat="47.33231" lon="0.95341">
        <ele>53.49</ele>
        <time>2015-08-15T19:30:41Z</time>
      </trkpt>
      <trkpt lat="47.33219" lon="0.95386">
        <ele>53.49</ele>
        <time>2015-08-15T19:30:49Z</time>
      </trkpt>
      <trkpt lat="47.33215" lon="0.95403">
        <ele>53.49</ele>
        <time>2015-08-15T19:30:52Z</time>
      </trkpt>
      <trkpt lat="47.33197" lon="0.95487">
        <ele>53.97</ele>
        <time>2015-08-15T19:31:06Z</time>
      </trkpt>
      <trkpt lat="47.33182" lon="0.95575">
        <ele>53.97</ele>
        <time>2015-08-15T19:31:21Z</time>
      </trkpt>
      <trkpt lat="47.33169" lon="0.95649">
        <ele>54.45</ele>
        <time>2015-08-15T19:31:34Z</time>
      </trkpt>
      <trkpt lat="47.33152" lon="0.95756">
        <ele>53.97</ele>
        <time>2015-08-15T19:31:52Z</time>
      </trkpt>
      <trkpt lat="47.33148" lon="0.9578">
        <ele>54.45</ele>
        <time>2015-08-15T19:31:56Z</time>
      </trkpt>
      <trkpt lat="47.33144" lon="0.95804">
        <ele>54.45</ele>
        <time>2015-08-15T19:32:00Z</time>
      </trkpt>
      <trkpt lat="47.33144" lon="0.9581">
        <ele>54.45</ele>
        <time>2015-08-15T19:32:01Z</time>
      </trkpt>
      <trkpt lat="47.33142" lon="0.95823">
        <ele>54.45</ele>
        <time>2015-08-15T19:32:03Z</time>
      </trkpt>
      <trkpt lat="47.3314" lon="0.95836">
        <ele>54.45</ele>
        <time>2015-08-15T19:32:05Z</time>
      </trkpt>
      <trkpt lat="47.33136" lon="0.9586">
        <ele>54.93</ele>
        <time>2015-08-15T19:32:09Z</time>
      </trkpt>
      <trkpt lat="47.33135" lon="0.95866">
        <ele>54.45</ele>
        <time>2015-08-15T19:32:10Z</time>
      </trkpt>
      <trkpt lat="47.33135" lon="0.95872">
        <ele>54.93</ele>
        <time>2015-08-15T19:32:11Z</time>
      </trkpt>
      <trkpt lat="47.33127" lon="0.95912">
        <ele>54.93</ele>
        <time>2015-08-15T19:32:18Z</time>
      </trkpt>
      <trkpt lat="47.33117" lon="0.95965">
        <ele>54.93</ele>
        <time>2015-08-15T19:32:28Z</time>
      </trkpt>
      <trkpt lat="47.33109" lon="0.96028">
        <ele>54.93</ele>
        <time>2015-08-15T19:32:40Z</time>
      </trkpt>
      <trkpt lat="47.331" lon="0.96082">
        <ele>55.41</ele>
        <time>2015-08-15T19:32:51Z</time>
      </trkpt>
      <trkpt lat="47.33085" lon="0.96137">
        <ele>54.93</ele>
        <time>2015-08-15T19:33:05Z</time>
      </trkpt>
      <trkpt lat="47.33084" lon="0.9614">
        <ele>54.45</ele>
        <time>2015-08-15T19:33:06Z</time>
      </trkpt>
      <trkpt lat="47.33082" lon="0.96177">
        <ele>53.97</ele>
        <time>2015-08-15T19:33:15Z</time>
      </trkpt>
      <trkpt lat="47.33076" lon="0.9624">
        <ele>53.49</ele>
        <time>2015-08-15T19:33:31Z</time>
      </trkpt>
      <trkpt lat="47.33075" lon="0.96255">
        <ele>53.49</ele>
        <time>2015-08-15T19:33:42Z</time>
      </trkpt>
      <trkpt lat="47.33075" lon="0.96254">
        <ele>53.49</ele>
        <time>2015-08-15T19:34:13Z</time>
      </trkpt>
      <trkpt lat="47.33075" lon="0.96254">
        <ele>53.49</ele>
        <time>2015-08-15T19:34:39Z</time>
      </trkpt>
      <trkpt lat="47.33075" lon="0.96254">
        <ele>53.49</ele>
        <time>2015-08-15T19:35:07Z</time>
      </trkpt>
      <trkpt lat="47.33076" lon="0.96254">
        <ele>53.49</ele>
        <time>2015-08-15T19:35:35Z</time>
      </trkpt>
      <trkpt lat="47.33077" lon="0.96255">
        <ele>53.01</ele>
        <time>2015-08-15T19:36:02Z</time>
      </trkpt>
      <trkpt lat="47.33076" lon="0.96255">
        <ele>53.01</ele>
        <time>2015-08-15T19:36:24Z</time>
      </trkpt>
      <trkpt lat="47.33077" lon="0.9626">
        <ele>53.01</ele>
        <time>2015-08-15T19:36:37Z</time>
      </trkpt>
      <trkpt lat="47.33077" lon="0.96261">
        <ele>53.01</ele>
        <time>2015-08-15T19:36:51Z</time>
      </trkpt>
      <trkpt lat="47.33071" lon="0.96311">
        <ele>53.49</ele>
        <time>2015-08-15T19:37:05Z</time>
      </trkpt>
      <trkpt lat="47.33065" lon="0.96359">
        <ele>53.49</ele>
        <time>2015-08-15T19:37:20Z</time>
      </trkpt>
      <trkpt lat="47.33064" lon="0.96361">
        <ele>53.49</ele>
        <time>2015-08-15T19:37:21Z</time>
      </trkpt>
      <trkpt lat="47.33064" lon="0.96364">
        <ele>53.49</ele>
        <time>2015-08-15T19:37:22Z</time>
      </trkpt>
      <trkpt lat="47.33063" lon="0.96366">
        <ele>53.49</ele>
        <time>2015-08-15T19:37:23Z</time>
      </trkpt>
      <trkpt lat="47.33063" lon="0.96368">
        <ele>53.49</ele>
        <time>2015-08-15T19:37:24Z</time>
      </trkpt>
      <trkpt lat="47.33063" lon="0.96368">
        <ele>53.49</ele>
        <time>2015-08-15T19:37:30Z</time>
      </trkpt>
      <trkpt lat="47.33063" lon="0.96368">
        <ele>53.49</ele>
        <time>2015-08-15T19:37:50Z</time>
      </trkpt>
      <trkpt lat="47.33063" lon="0.96371">
        <ele>53.49</ele>
        <time>2015-08-15T19:38:13Z</time>
      </trkpt>
      <trkpt lat="47.33063" lon="0.96376">
        <ele>53.49</ele>
        <time>2015-08-15T19:38:23Z</time>
      </trkpt>
      <trkpt lat="47.33062" lon="0.96378">
        <ele>53.49</ele>
        <time>2015-08-15T19:38:24Z</time>
      </trkpt>
      <trkpt lat="47.33059" lon="0.96445">
        <ele>53.49</ele>
        <time>2015-08-15T19:38:37Z</time>
      </trkpt>
      <trkpt lat="47.33055" lon="0.96517">
        <ele>53.49</ele>
        <time>2015-08-15T19:38:50Z</time>
      </trkpt>
      <trkpt lat="47.33052" lon="0.96573">
        <ele>53.49</ele>
        <time>2015-08-15T19:39:01Z</time>
      </trkpt>
      <trkpt lat="47.33048" lon="0.96648">
        <ele>53.97</ele>
        <time>2015-08-15T19:39:14Z</time>
      </trkpt>
      <trkpt lat="47.33042" lon="0.9671">
        <ele>53.97</ele>
        <time>2015-08-15T19:39:26Z</time>
      </trkpt>
      <trkpt lat="47.33034" lon="0.96771">
        <ele>53.97</ele>
        <time>2015-08-15T19:39:39Z</time>
      </trkpt>
      <trkpt lat="47.33033" lon="0.96811">
        <ele>53.49</ele>
        <time>2015-08-15T19:39:49Z</time>
      </trkpt>
      <trkpt lat="47.33029" lon="0.96856">
        <ele>53.01</ele>
        <time>2015-08-15T19:40:00Z</time>
      </trkpt>
      <trkpt lat="47.3303" lon="0.96909">
        <ele>52.53</ele>
        <time>2015-08-15T19:40:11Z</time>
      </trkpt>
      <trkpt lat="47.33026" lon="0.96962">
        <ele>52.53</ele>
        <time>2015-08-15T19:40:22Z</time>
      </trkpt>
      <trkpt lat="47.33025" lon="0.97014">
        <ele>52.05</ele>
        <time>2015-08-15T19:40:34Z</time>
      </trkpt>
      <trkpt lat="47.33027" lon="0.97093">
        <ele>52.53</ele>
        <time>2015-08-15T19:40:49Z</time>
      </trkpt>
      <trkpt lat="47.33033" lon="0.97153">
        <ele>52.53</ele>
        <time>2015-08-15T19:41:02Z</time>
      </trkpt>
      <trkpt lat="47.3304" lon="0.97209">
        <ele>52.05</ele>
        <time>2015-08-15T19:41:12Z</time>
      </trkpt>
      <trkpt lat="47.33033" lon="0.97259">
        <ele>52.05</ele>
        <time>2015-08-15T19:41:23Z</time>
      </trkpt>
      <trkpt lat="47.33034" lon="0.97325">
        <ele>52.05</ele>
        <time>2015-08-15T19:41:36Z</time>
      </trkpt>
      <trkpt lat="47.33045" lon="0.97418">
        <ele>52.53</ele>
        <time>2015-08-15T19:41:53Z</time>
      </trkpt>
      <trkpt lat="47.33051" lon="0.97501">
        <ele>52.53</ele>
        <time>2015-08-15T19:42:09Z</time>
      </trkpt>
      <trkpt lat="47.3305" lon="0.97564">
        <ele>52.53</ele>
        <time>2015-08-15T19:42:23Z</time>
      </trkpt>
      <trkpt lat="47.33049" lon="0.97651">
        <ele>52.53</ele>
        <time>2015-08-15T19:42:39Z</time>
      </trkpt>
      <trkpt lat="47.33048" lon="0.97723">
        <ele>52.53</ele>
        <time>2015-08-15T19:42:53Z</time>
      </trkpt>
      <trkpt lat="47.33039" lon="0.97805">
        <ele>52.53</ele>
        <time>2015-08-15T19:43:08Z</time>
      </trkpt>
      <trkpt lat="47.33032" lon="0.97885">
        <ele>53.01</ele>
        <time>2015-08-15T19:43:22Z</time>
      </trkpt>
      <trkpt lat="47.3304" lon="0.97979">
        <ele>52.53</ele>
        <time>2015-08-15T19:43:39Z</time>
      </trkpt>
      <trkpt lat="47.33047" lon="0.98055">
        <ele>52.05</ele>
        <time>2015-08-15T19:43:53Z</time>
      </trkpt>
      <trkpt lat="47.3305" lon="0.98116">
        <ele>52.53</ele>
        <time>2015-08-15T19:44:05Z</time>
      </trkpt>
      <trkpt lat="47.33058" lon="0.98161">
        <ele>52.53</ele>
        <time>2015-08-15T19:44:16Z</time>
      </trkpt>
      <trkpt lat="47.33052" lon="0.98209">
        <ele>52.05</ele>
        <time>2015-08-15T19:44:28Z</time>
      </trkpt>
      <trkpt lat="47.33045" lon="0.9828">
        <ele>52.53</ele>
        <time>2015-08-15T19:44:42Z</time>
      </trkpt>
      <trkpt lat="47.33042" lon="0.9834">
        <ele>52.53</ele>
        <time>2015-08-15T19:44:54Z</time>
      </trkpt>
      <trkpt lat="47.33048" lon="0.9843">
        <ele>52.53</ele>
        <time>2015-08-15T19:45:09Z</time>
      </trkpt>
      <trkpt lat="47.33058" lon="0.98502">
        <ele>53.01</ele>
        <time>2015-08-15T19:45:21Z</time>
      </trkpt>
      <trkpt lat="47.33059" lon="0.98508">
        <ele>52.53</ele>
        <time>2015-08-15T19:45:22Z</time>
      </trkpt>
      <trkpt lat="47.33068" lon="0.98565">
        <ele>53.01</ele>
        <time>2015-08-15T19:45:31Z</time>
      </trkpt>
      <trkpt lat="47.33071" lon="0.98609">
        <ele>53.01</ele>
        <time>2015-08-15T19:45:38Z</time>
      </trkpt>
      <trkpt lat="47.33071" lon="0.98615">
        <ele>53.01</ele>
        <time>2015-08-15T19:45:39Z</time>
      </trkpt>
      <trkpt lat="47.33072" lon="0.98621">
        <ele>53.01</ele>
        <time>2015-08-15T19:45:40Z</time>
      </trkpt>
      <trkpt lat="47.33072" lon="0.98626">
        <ele>53.01</ele>
        <time>2015-08-15T19:45:41Z</time>
      </trkpt>
      <trkpt lat="47.33072" lon="0.98632">
        <ele>53.01</ele>
        <time>2015-08-15T19:45:42Z</time>
      </trkpt>
      <trkpt lat="47.33073" lon="0.98638">
        <ele>53.01</ele>
        <time>2015-08-15T19:45:43Z</time>
      </trkpt>
      <trkpt lat="47.33073" lon="0.98644">
        <ele>53.01</ele>
        <time>2015-08-15T19:45:44Z</time>
      </trkpt>
      <trkpt lat="47.33073" lon="0.98685">
        <ele>53.01</ele>
        <time>2015-08-15T19:45:51Z</time>
      </trkpt>
      <trkpt lat="47.33073" lon="0.98745">
        <ele>52.53</ele>
        <time>2015-08-15T19:46:02Z</time>
      </trkpt>
      <trkpt lat="47.33072" lon="0.98749">
        <ele>53.01</ele>
        <time>2015-08-15T19:46:03Z</time>
      </trkpt>
      <trkpt lat="47.33071" lon="0.98754">
        <ele>53.01</ele>
        <time>2015-08-15T19:46:04Z</time>
      </trkpt>
      <trkpt lat="47.3307" lon="0.98774">
        <ele>53.01</ele>
        <time>2015-08-15T19:46:08Z</time>
      </trkpt>
      <trkpt lat="47.33063" lon="0.98836">
        <ele>53.49</ele>
        <time>2015-08-15T19:46:19Z</time>
      </trkpt>
      <trkpt lat="47.33062" lon="0.98842">
        <ele>53.49</ele>
        <time>2015-08-15T19:46:20Z</time>
      </trkpt>
      <trkpt lat="47.33061" lon="0.98848">
        <ele>53.49</ele>
        <time>2015-08-15T19:46:21Z</time>
      </trkpt>
      <trkpt lat="47.33054" lon="0.9889">
        <ele>53.49</ele>
        <time>2015-08-15T19:46:28Z</time>
      </trkpt>
      <trkpt lat="47.33053" lon="0.98896">
        <ele>53.49</ele>
        <time>2015-08-15T19:46:29Z</time>
      </trkpt>
      <trkpt lat="47.33051" lon="0.98908">
        <ele>53.49</ele>
        <time>2015-08-15T19:46:31Z</time>
      </trkpt>
      <trkpt lat="47.33038" lon="0.98982">
        <ele>53.97</ele>
        <time>2015-08-15T19:46:43Z</time>
      </trkpt>
      <trkpt lat="47.33034" lon="0.99003">
        <ele>53.97</ele>
        <time>2015-08-15T19:46:46Z</time>
      </trkpt>
      <trkpt lat="47.33024" lon="0.99097">
        <ele>54.93</ele>
        <time>2015-08-15T19:46:58Z</time>
      </trkpt>
      <trkpt lat="47.33023" lon="0.99104">
        <ele>55.41</ele>
        <time>2015-08-15T19:46:59Z</time>
      </trkpt>
      <trkpt lat="47.33018" lon="0.99182">
        <ele>53.97</ele>
        <time>2015-08-15T19:49:51Z</time>
      </trkpt>
      <trkpt lat="47.33021" lon="0.99264">
        <ele>53.49</ele>
        <time>2015-08-15T19:50:07Z</time>
      </trkpt>
      <trkpt lat="47.33022" lon="0.99339">
        <ele>53.49</ele>
        <time>2015-08-15T19:50:21Z</time>
      </trkpt>
      <trkpt lat="47.33004" lon="0.99409">
        <ele>53.01</ele>
        <time>2015-08-15T19:50:35Z</time>
      </trkpt>
      <trkpt lat="47.32925" lon="0.99532">
        <ele>52.53</ele>
        <time>2015-08-15T20:33:34Z</time>
      </trkpt>
      <trkpt lat="47.32928" lon="0.9953">
        <ele>52.53</ele>
        <time>2015-08-15T20:33:35Z</time>
      </trkpt>
      <trkpt lat="47.3293" lon="0.99528">
        <ele>52.53</ele>
        <time>2015-08-15T20:33:36Z</time>
      </trkpt>
      <trkpt lat="47.32933" lon="0.99527">
        <ele>52.53</ele>
        <time>2015-08-15T20:33:37Z</time>
      </trkpt>
      <trkpt lat="47.32934" lon="0.99526">
        <ele>52.53</ele>
        <time>2015-08-15T20:33:38Z</time>
      </trkpt>
      <trkpt lat="47.32936" lon="0.99526">
        <ele>53.01</ele>
        <time>2015-08-15T20:33:39Z</time>
      </trkpt>
      <trkpt lat="47.32941" lon="0.99529">
        <ele>53.01</ele>
        <time>2015-08-15T20:33:41Z</time>
      </trkpt>
      <trkpt lat="47.32942" lon="0.99531">
        <ele>53.01</ele>
        <time>2015-08-15T20:33:42Z</time>
      </trkpt>
      <trkpt lat="47.32943" lon="0.99533">
        <ele>53.01</ele>
        <time>2015-08-15T20:33:43Z</time>
      </trkpt>
      <trkpt lat="47.32943" lon="0.99535">
        <ele>53.01</ele>
        <time>2015-08-15T20:33:44Z</time>
      </trkpt>
      <trkpt lat="47.32942" lon="0.9954">
        <ele>53.01</ele>
        <time>2015-08-15T20:33:46Z</time>
      </trkpt>
      <trkpt lat="47.32941" lon="0.99548">
        <ele>53.01</ele>
        <time>2015-08-15T20:33:49Z</time>
      </trkpt>
      <trkpt lat="47.32942" lon="0.99551">
        <ele>53.01</ele>
        <time>2015-08-15T20:33:50Z</time>
      </trkpt>
      <trkpt lat="47.32941" lon="0.99556">
        <ele>53.01</ele>
        <time>2015-08-15T20:33:51Z</time>
      </trkpt>
      <trkpt lat="47.3294" lon="0.9956">
        <ele>53.01</ele>
        <time>2015-08-15T20:33:52Z</time>
      </trkpt>
      <trkpt lat="47.3294" lon="0.99563">
        <ele>53.01</ele>
        <time>2015-08-15T20:33:53Z</time>
      </trkpt>
      <trkpt lat="47.32939" lon="0.99566">
        <ele>53.01</ele>
        <time>2015-08-15T20:33:54Z</time>
      </trkpt>
      <trkpt lat="47.32937" lon="0.99573">
        <ele>52.53</ele>
        <time>2015-08-15T20:33:56Z</time>
      </trkpt>
      <trkpt lat="47.32926" lon="0.99615">
        <ele>52.05</ele>
        <time>2015-08-15T20:34:07Z</time>
      </trkpt>
      <trkpt lat="47.32925" lon="0.99618">
        <ele>52.05</ele>
        <time>2015-08-15T20:34:08Z</time>
      </trkpt>
      <trkpt lat="47.32925" lon="0.99621">
        <ele>52.05</ele>
        <time>2015-08-15T20:34:09Z</time>
      </trkpt>
      <trkpt lat="47.32925" lon="0.99624">
        <ele>52.05</ele>
        <time>2015-08-15T20:34:10Z</time>
      </trkpt>
      <trkpt lat="47.32925" lon="0.99628">
        <ele>52.05</ele>
        <time>2015-08-15T20:34:11Z</time>
      </trkpt>
      <trkpt lat="47.32924" lon="0.99633">
        <ele>52.05</ele>
        <time>2015-08-15T20:34:12Z</time>
      </trkpt>
      <trkpt lat="47.32922" lon="0.99637">
        <ele>52.53</ele>
        <time>2015-08-15T20:34:14Z</time>
      </trkpt>
      <trkpt lat="47.32921" lon="0.99638">
        <ele>52.53</ele>
        <time>2015-08-15T20:34:15Z</time>
      </trkpt>
      <trkpt lat="47.3292" lon="0.99639">
        <ele>52.53</ele>
        <time>2015-08-15T20:34:22Z</time>
      </trkpt>
      <trkpt lat="47.32919" lon="0.99639">
        <ele>52.53</ele>
        <time>2015-08-15T20:34:56Z</time>
      </trkpt>
      <trkpt lat="47.3292" lon="0.99638">
        <ele>52.53</ele>
        <time>2015-08-15T20:35:25Z</time>
      </trkpt>
      <trkpt lat="47.32908" lon="0.99634">
        <ele>52.05</ele>
        <time>2015-08-15T20:35:40Z</time>
      </trkpt>
      <trkpt lat="47.32906" lon="0.99634">
        <ele>52.05</ele>
        <time>2015-08-15T20:35:41Z</time>
      </trkpt>
      <trkpt lat="47.32905" lon="0.99635">
        <ele>52.05</ele>
        <time>2015-08-15T20:35:42Z</time>
      </trkpt>
      <trkpt lat="47.32896" lon="0.99692">
        <ele>51.57</ele>
        <time>2015-08-15T20:35:57Z</time>
      </trkpt>
      <trkpt lat="47.32895" lon="0.99697">
        <ele>51.57</ele>
        <time>2015-08-15T20:35:58Z</time>
      </trkpt>
      <trkpt lat="47.32895" lon="0.99701">
        <ele>51.09</ele>
        <time>2015-08-15T20:35:59Z</time>
      </trkpt>
      <trkpt lat="47.32894" lon="0.99705">
        <ele>51.57</ele>
        <time>2015-08-15T20:36:00Z</time>
      </trkpt>
      <trkpt lat="47.32895" lon="0.99708">
        <ele>51.09</ele>
        <time>2015-08-15T20:36:01Z</time>
      </trkpt>
      <trkpt lat="47.32895" lon="0.99711">
        <ele>51.57</ele>
        <time>2015-08-15T20:36:02Z</time>
      </trkpt>
      <trkpt lat="47.32879" lon="0.99744">
        <ele>51.57</ele>
        <time>2015-08-15T20:36:11Z</time>
      </trkpt>
      <trkpt lat="47.32867" lon="0.9982">
        <ele>51.57</ele>
        <time>2015-08-15T20:36:25Z</time>
      </trkpt>
      <trkpt lat="47.32862" lon="0.99895">
        <ele>51.57</ele>
        <time>2015-08-15T20:36:38Z</time>
      </trkpt>
      <trkpt lat="47.32855" lon="0.9995">
        <ele>51.57</ele>
        <time>2015-08-15T20:36:49Z</time>
      </trkpt>
      <trkpt lat="47.32848" lon="1.00008">
        <ele>51.57</ele>
        <time>2015-08-15T20:37:04Z</time>
      </trkpt>
      <trkpt lat="47.32848" lon="1.00012">
        <ele>51.57</ele>
        <time>2015-08-15T20:37:05Z</time>
      </trkpt>
      <trkpt lat="47.32842" lon="1.00045">
        <ele>51.09</ele>
        <time>2015-08-15T20:37:15Z</time>
      </trkpt>
      <trkpt lat="47.32832" lon="1.00081">
        <ele>51.57</ele>
        <time>2015-08-15T20:37:26Z</time>
      </trkpt>
      <trkpt lat="47.32832" lon="1.00084">
        <ele>51.57</ele>
        <time>2015-08-15T20:37:27Z</time>
      </trkpt>
      <trkpt lat="47.32832" lon="1.00086">
        <ele>51.57</ele>
        <time>2015-08-15T20:37:28Z</time>
      </trkpt>
      <trkpt lat="47.32832" lon="1.00089">
        <ele>51.57</ele>
        <time>2015-08-15T20:37:29Z</time>
      </trkpt>
      <trkpt lat="47.32833" lon="1.00092">
        <ele>51.57</ele>
        <time>2015-08-15T20:37:30Z</time>
      </trkpt>
      <trkpt lat="47.32829" lon="1.00124">
        <ele>51.09</ele>
        <time>2015-08-15T20:37:37Z</time>
      </trkpt>
      <trkpt lat="47.32823" lon="1.002">
        <ele>51.57</ele>
        <time>2015-08-15T20:37:51Z</time>
      </trkpt>
      <trkpt lat="47.32814" lon="1.00277">
        <ele>51.57</ele>
        <time>2015-08-15T20:38:06Z</time>
      </trkpt>
      <trkpt lat="47.32812" lon="1.00354">
        <ele>51.57</ele>
        <time>2015-08-15T20:38:20Z</time>
      </trkpt>
      <trkpt lat="47.32811" lon="1.00459">
        <ele>53.49</ele>
        <time>2015-08-15T20:38:37Z</time>
      </trkpt>
      <trkpt lat="47.328" lon="1.00571">
        <ele>52.53</ele>
        <time>2015-08-15T20:38:55Z</time>
      </trkpt>
      <trkpt lat="47.32787" lon="1.00676">
        <ele>52.05</ele>
        <time>2015-08-15T20:39:14Z</time>
      </trkpt>
      <trkpt lat="47.32775" lon="1.0078">
        <ele>52.05</ele>
        <time>2015-08-15T20:39:31Z</time>
      </trkpt>
      <trkpt lat="47.3277" lon="1.00875">
        <ele>52.05</ele>
        <time>2015-08-15T20:39:47Z</time>
      </trkpt>
      <trkpt lat="47.32765" lon="1.00985">
        <ele>52.05</ele>
        <time>2015-08-15T20:40:06Z</time>
      </trkpt>
      <trkpt lat="47.32762" lon="1.0108">
        <ele>52.05</ele>
        <time>2015-08-15T20:40:23Z</time>
      </trkpt>
      <trkpt lat="47.32761" lon="1.0118">
        <ele>52.53</ele>
        <time>2015-08-15T20:40:40Z</time>
      </trkpt>
      <trkpt lat="47.32759" lon="1.01272">
        <ele>52.05</ele>
        <time>2015-08-15T20:40:57Z</time>
      </trkpt>
      <trkpt lat="47.32758" lon="1.01377">
        <ele>52.53</ele>
        <time>2015-08-15T20:41:14Z</time>
      </trkpt>
      <trkpt lat="47.32756" lon="1.01485">
        <ele>52.53</ele>
        <time>2015-08-15T20:41:33Z</time>
      </trkpt>
      <trkpt lat="47.32754" lon="1.01571">
        <ele>52.53</ele>
        <time>2015-08-15T20:41:49Z</time>
      </trkpt>
      <trkpt lat="47.32759" lon="1.01637">
        <ele>52.53</ele>
        <time>2015-08-15T20:42:04Z</time>
      </trkpt>
      <trkpt lat="47.32759" lon="1.01642">
        <ele>52.53</ele>
        <time>2015-08-15T20:42:05Z</time>
      </trkpt>
      <trkpt lat="47.32759" lon="1.01646">
        <ele>52.05</ele>
        <time>2015-08-15T20:42:06Z</time>
      </trkpt>
      <trkpt lat="47.32761" lon="1.01655">
        <ele>52.05</ele>
        <time>2015-08-15T20:42:08Z</time>
      </trkpt>
      <trkpt lat="47.32763" lon="1.017">
        <ele>52.53</ele>
        <time>2015-08-15T20:42:16Z</time>
      </trkpt>
      <trkpt lat="47.3277" lon="1.01789">
        <ele>52.05</ele>
        <time>2015-08-15T20:42:31Z</time>
      </trkpt>
      <trkpt lat="47.32771" lon="1.01821">
        <ele>52.53</ele>
        <time>2015-08-15T20:42:36Z</time>
      </trkpt>
      <trkpt lat="47.32775" lon="1.01861">
        <ele>52.05</ele>
        <time>2015-08-15T20:42:43Z</time>
      </trkpt>
      <trkpt lat="47.3277" lon="1.01958">
        <ele>52.05</ele>
        <time>2015-08-15T20:43:00Z</time>
      </trkpt>
      <trkpt lat="47.3277" lon="1.01971">
        <ele>52.05</ele>
        <time>2015-08-15T20:43:02Z</time>
      </trkpt>
      <trkpt lat="47.3277" lon="1.02075">
        <ele>52.53</ele>
        <time>2015-08-15T20:43:19Z</time>
      </trkpt>
      <trkpt lat="47.32768" lon="1.02175">
        <ele>52.05</ele>
        <time>2015-08-15T20:43:36Z</time>
      </trkpt>
      <trkpt lat="47.32766" lon="1.02276">
        <ele>52.53</ele>
        <time>2015-08-15T20:43:54Z</time>
      </trkpt>
      <trkpt lat="47.32763" lon="1.02364">
        <ele>52.53</ele>
        <time>2015-08-15T20:44:10Z</time>
      </trkpt>
      <trkpt lat="47.32764" lon="1.02461">
        <ele>52.53</ele>
        <time>2015-08-15T20:44:27Z</time>
      </trkpt>
      <trkpt lat="47.32767" lon="1.02555">
        <ele>52.53</ele>
        <time>2015-08-15T20:44:43Z</time>
      </trkpt>
      <trkpt lat="47.32767" lon="1.0258">
        <ele>52.53</ele>
        <time>2015-08-15T20:44:47Z</time>
      </trkpt>
      <trkpt lat="47.3277" lon="1.02676">
        <ele>52.05</ele>
        <time>2015-08-15T20:45:03Z</time>
      </trkpt>
      <trkpt lat="47.32766" lon="1.02784">
        <ele>52.53</ele>
        <time>2015-08-15T20:45:21Z</time>
      </trkpt>
      <trkpt lat="47.32758" lon="1.02888">
        <ele>52.05</ele>
        <time>2015-08-15T20:45:40Z</time>
      </trkpt>
      <trkpt lat="47.32749" lon="1.02987">
        <ele>51.57</ele>
        <time>2015-08-15T20:45:58Z</time>
      </trkpt>
      <trkpt lat="47.32734" lon="1.03067">
        <ele>51.57</ele>
        <time>2015-08-15T20:46:14Z</time>
      </trkpt>
      <trkpt lat="47.32723" lon="1.03123">
        <ele>51.57</ele>
        <time>2015-08-15T20:46:25Z</time>
      </trkpt>
      <trkpt lat="47.327" lon="1.0322">
        <ele>51.57</ele>
        <time>2015-08-15T20:46:42Z</time>
      </trkpt>
      <trkpt lat="47.32698" lon="1.03225">
        <ele>51.57</ele>
        <time>2015-08-15T20:46:43Z</time>
      </trkpt>
      <trkpt lat="47.32697" lon="1.03231">
        <ele>51.57</ele>
        <time>2015-08-15T20:46:44Z</time>
      </trkpt>
      <trkpt lat="47.32684" lon="1.03275">
        <ele>52.05</ele>
        <time>2015-08-15T20:46:52Z</time>
      </trkpt>
      <trkpt lat="47.32659" lon="1.03363">
        <ele>51.57</ele>
        <time>2015-08-15T20:47:08Z</time>
      </trkpt>
      <trkpt lat="47.32636" lon="1.03433">
        <ele>51.09</ele>
        <time>2015-08-15T20:47:21Z</time>
      </trkpt>
      <trkpt lat="47.32634" lon="1.03439">
        <ele>51.09</ele>
        <time>2015-08-15T20:47:22Z</time>
      </trkpt>
      <trkpt lat="47.32609" lon="1.03516">
        <ele>51.57</ele>
        <time>2015-08-15T20:47:36Z</time>
      </trkpt>
      <trkpt lat="47.32585" lon="1.03591">
        <ele>51.57</ele>
        <time>2015-08-15T20:47:50Z</time>
      </trkpt>
      <trkpt lat="47.32564" lon="1.03667">
        <ele>51.57</ele>
        <time>2015-08-15T20:48:04Z</time>
      </trkpt>
      <trkpt lat="47.32544" lon="1.03734">
        <ele>51.09</ele>
        <time>2015-08-15T20:48:18Z</time>
      </trkpt>
      <trkpt lat="47.32517" lon="1.03819">
        <ele>51.09</ele>
        <time>2015-08-15T20:48:34Z</time>
      </trkpt>
      <trkpt lat="47.32516" lon="1.03825">
        <ele>51.57</ele>
        <time>2015-08-15T20:48:35Z</time>
      </trkpt>
      <trkpt lat="47.32515" lon="1.0383">
        <ele>51.57</ele>
        <time>2015-08-15T20:48:36Z</time>
      </trkpt>
      <trkpt lat="47.3251" lon="1.03904">
        <ele>51.09</ele>
        <time>2015-08-15T20:48:49Z</time>
      </trkpt>
      <trkpt lat="47.3251" lon="1.0391">
        <ele>51.09</ele>
        <time>2015-08-15T20:48:50Z</time>
      </trkpt>
      <trkpt lat="47.32509" lon="1.03917">
        <ele>51.09</ele>
        <time>2015-08-15T20:48:51Z</time>
      </trkpt>
      <trkpt lat="47.32508" lon="1.03923">
        <ele>51.57</ele>
        <time>2015-08-15T20:48:52Z</time>
      </trkpt>
      <trkpt lat="47.32505" lon="1.03929">
        <ele>51.09</ele>
        <time>2015-08-15T20:48:53Z</time>
      </trkpt>
      <trkpt lat="47.32502" lon="1.03933">
        <ele>51.57</ele>
        <time>2015-08-15T20:48:54Z</time>
      </trkpt>
      <trkpt lat="47.32464" lon="1.03936">
        <ele>51.57</ele>
        <time>2015-08-15T20:49:04Z</time>
      </trkpt>
      <trkpt lat="47.32431" lon="1.03938">
        <ele>52.53</ele>
        <time>2015-08-15T20:49:15Z</time>
      </trkpt>
      <trkpt lat="47.32433" lon="1.03939">
        <ele>52.53</ele>
        <time>2015-08-15T20:49:17Z</time>
      </trkpt>
      <trkpt lat="47.32484" lon="1.03949">
        <ele>54.93</ele>
        <time>2015-08-15T20:49:30Z</time>
      </trkpt>
      <trkpt lat="47.32494" lon="1.03953">
        <ele>54.93</ele>
        <time>2015-08-15T20:49:36Z</time>
      </trkpt>
      <trkpt lat="47.32491" lon="1.03956">
        <ele>54.93</ele>
        <time>2015-08-15T20:49:47Z</time>
      </trkpt>
      <trkpt lat="47.32451" lon="1.03951">
        <ele>53.01</ele>
        <time>2015-08-15T20:50:05Z</time>
      </trkpt>
      <trkpt lat="47.32424" lon="1.03946">
        <ele>52.05</ele>
        <time>2015-08-15T20:50:18Z</time>
      </trkpt>
      <trkpt lat="47.32429" lon="1.03949">
        <ele>51.09</ele>
        <time>2015-08-15T20:50:23Z</time>
      </trkpt>
      <trkpt lat="47.3247" lon="1.0396">
        <ele>51.09</ele>
        <time>2015-08-15T20:50:39Z</time>
      </trkpt>
      <trkpt lat="47.325" lon="1.03964">
        <ele>50.61</ele>
        <time>2015-08-15T20:50:54Z</time>
      </trkpt>
      <trkpt lat="47.32501" lon="1.03964">
        <ele>50.61</ele>
        <time>2015-08-15T20:50:58Z</time>
      </trkpt>
      <trkpt lat="47.32501" lon="1.03965">
        <ele>52.05</ele>
        <time>2015-08-15T20:51:01Z</time>
      </trkpt>
      <trkpt lat="47.32501" lon="1.03965">
        <ele>51.57</ele>
        <time>2015-08-15T20:51:02Z</time>
      </trkpt>
      <trkpt lat="47.32501" lon="1.03965">
        <ele>47.24</ele>
        <time>2015-08-15T20:51:03Z</time>
      </trkpt>
      <trkpt lat="47.32501" lon="1.03964">
        <ele>50.61</ele>
        <time>2015-08-15T20:51:19Z</time>
      </trkpt>
      <trkpt lat="47.325" lon="1.03965">
        <ele>50.61</ele>
        <time>2015-08-15T20:51:44Z</time>
      </trkpt>
      <trkpt lat="47.32506" lon="1.0397">
        <ele>50.13</ele>
        <time>2015-08-15T20:51:55Z</time>
      </trkpt>
      <trkpt lat="47.32506" lon="1.03972">
        <ele>50.13</ele>
        <time>2015-08-15T20:51:56Z</time>
      </trkpt>
      <trkpt lat="47.32503" lon="1.04007">
        <ele>50.61</ele>
        <time>2015-08-15T20:52:06Z</time>
      </trkpt>
      <trkpt lat="47.32506" lon="1.04068">
        <ele>50.61</ele>
        <time>2015-08-15T20:52:20Z</time>
      </trkpt>
      <trkpt lat="47.3251" lon="1.04141">
        <ele>50.61</ele>
        <time>2015-08-15T20:52:35Z</time>
      </trkpt>
      <trkpt lat="47.32508" lon="1.04198">
        <ele>50.61</ele>
        <time>2015-08-15T20:52:47Z</time>
      </trkpt>
      <trkpt lat="47.32515" lon="1.0428">
        <ele>50.13</ele>
        <time>2015-08-15T20:53:02Z</time>
      </trkpt>
      <trkpt lat="47.32515" lon="1.04332">
        <ele>50.61</ele>
        <time>2015-08-15T20:53:13Z</time>
      </trkpt>
      <trkpt lat="47.32507" lon="1.04378">
        <ele>50.61</ele>
        <time>2015-08-15T20:53:24Z</time>
      </trkpt>
      <trkpt lat="47.32502" lon="1.04433">
        <ele>50.61</ele>
        <time>2015-08-15T20:53:38Z</time>
      </trkpt>
      <trkpt lat="47.32505" lon="1.04475">
        <ele>50.61</ele>
        <time>2015-08-15T20:53:51Z</time>
      </trkpt>
      <trkpt lat="47.32505" lon="1.04478">
        <ele>50.61</ele>
        <time>2015-08-15T20:54:23Z</time>
      </trkpt>
      <trkpt lat="47.32504" lon="1.0449">
        <ele>50.61</ele>
        <time>2015-08-15T20:54:34Z</time>
      </trkpt>
      <trkpt lat="47.32498" lon="1.04553">
        <ele>50.13</ele>
        <time>2015-08-15T20:54:50Z</time>
      </trkpt>
      <trkpt lat="47.32492" lon="1.04619">
        <ele>50.13</ele>
        <time>2015-08-15T20:55:05Z</time>
      </trkpt>
      <trkpt lat="47.32486" lon="1.04676">
        <ele>50.13</ele>
        <time>2015-08-15T20:55:19Z</time>
      </trkpt>
      <trkpt lat="47.32479" lon="1.04729">
        <ele>50.13</ele>
        <time>2015-08-15T20:55:33Z</time>
      </trkpt>
      <trkpt lat="47.32468" lon="1.04781">
        <ele>49.65</ele>
        <time>2015-08-15T20:55:47Z</time>
      </trkpt>
      <trkpt lat="47.3246" lon="1.0482">
        <ele>50.13</ele>
        <time>2015-08-15T20:55:58Z</time>
      </trkpt>
      <trkpt lat="47.32449" lon="1.04875">
        <ele>50.13</ele>
        <time>2015-08-15T20:56:11Z</time>
      </trkpt>
      <trkpt lat="47.32436" lon="1.04932">
        <ele>50.13</ele>
        <time>2015-08-15T20:56:25Z</time>
      </trkpt>
      <trkpt lat="47.32423" lon="1.04993">
        <ele>50.13</ele>
        <time>2015-08-15T20:56:38Z</time>
      </trkpt>
      <trkpt lat="47.32412" lon="1.05059">
        <ele>50.61</ele>
        <time>2015-08-15T20:56:51Z</time>
      </trkpt>
      <trkpt lat="47.32402" lon="1.05118">
        <ele>50.61</ele>
        <time>2015-08-15T20:57:04Z</time>
      </trkpt>
      <trkpt lat="47.32393" lon="1.05175">
        <ele>50.61</ele>
        <time>2015-08-15T20:57:17Z</time>
      </trkpt>
      <trkpt lat="47.32383" lon="1.05246">
        <ele>50.61</ele>
        <time>2015-08-15T20:57:33Z</time>
      </trkpt>
      <trkpt lat="47.32373" lon="1.05302">
        <ele>50.13</ele>
        <time>2015-08-15T20:57:47Z</time>
      </trkpt>
      <trkpt lat="47.3236" lon="1.05369">
        <ele>50.13</ele>
        <time>2015-08-15T20:58:03Z</time>
      </trkpt>
      <trkpt lat="47.3235" lon="1.05433">
        <ele>50.13</ele>
        <time>2015-08-15T20:58:18Z</time>
      </trkpt>
      <trkpt lat="47.32343" lon="1.05468">
        <ele>50.13</ele>
        <time>2015-08-15T20:58:28Z</time>
      </trkpt>
      <trkpt lat="47.32338" lon="1.05518">
        <ele>50.13</ele>
        <time>2015-08-15T20:58:41Z</time>
      </trkpt>
      <trkpt lat="47.32324" lon="1.05582">
        <ele>50.13</ele>
        <time>2015-08-15T20:58:56Z</time>
      </trkpt>
      <trkpt lat="47.3231" lon="1.0565">
        <ele>50.13</ele>
        <time>2015-08-15T20:59:10Z</time>
      </trkpt>
      <trkpt lat="47.32292" lon="1.0572">
        <ele>50.13</ele>
        <time>2015-08-15T20:59:25Z</time>
      </trkpt>
      <trkpt lat="47.32278" lon="1.05786">
        <ele>50.13</ele>
        <time>2015-08-15T20:59:37Z</time>
      </trkpt>
      <trkpt lat="47.32268" lon="1.05837">
        <ele>50.13</ele>
        <time>2015-08-15T20:59:48Z</time>
      </trkpt>
      <trkpt lat="47.32257" lon="1.05879">
        <ele>50.13</ele>
        <time>2015-08-15T20:59:59Z</time>
      </trkpt>
      <trkpt lat="47.32256" lon="1.05889">
        <ele>50.13</ele>
        <time>2015-08-15T21:00:22Z</time>
      </trkpt>
      <trkpt lat="47.32255" lon="1.05903">
        <ele>50.13</ele>
        <time>2015-08-15T21:00:33Z</time>
      </trkpt>
      <trkpt lat="47.32247" lon="1.05956">
        <ele>50.13</ele>
        <time>2015-08-15T21:00:47Z</time>
      </trkpt>
      <trkpt lat="47.32245" lon="1.05977">
        <ele>50.13</ele>
        <time>2015-08-15T21:00:54Z</time>
      </trkpt>
      <trkpt lat="47.32247" lon="1.06024">
        <ele>50.13</ele>
        <time>2015-08-15T21:01:06Z</time>
      </trkpt>
      <trkpt lat="47.32246" lon="1.06084">
        <ele>50.13</ele>
        <time>2015-08-15T21:01:17Z</time>
      </trkpt>
      <trkpt lat="47.32244" lon="1.06134">
        <ele>50.13</ele>
        <time>2015-08-15T21:01:27Z</time>
      </trkpt>
      <trkpt lat="47.32245" lon="1.06137">
        <ele>50.13</ele>
        <time>2015-08-15T21:01:28Z</time>
      </trkpt>
      <trkpt lat="47.32254" lon="1.06186">
        <ele>50.13</ele>
        <time>2015-08-15T21:01:39Z</time>
      </trkpt>
      <trkpt lat="47.32255" lon="1.06208">
        <ele>49.65</ele>
        <time>2015-08-15T21:01:44Z</time>
      </trkpt>
      <trkpt lat="47.32257" lon="1.06257">
        <ele>50.13</ele>
        <time>2015-08-15T21:01:55Z</time>
      </trkpt>
      <trkpt lat="47.32259" lon="1.0628">
        <ele>50.13</ele>
        <time>2015-08-15T21:02:02Z</time>
      </trkpt>
      <trkpt lat="47.3226" lon="1.06292">
        <ele>50.13</ele>
        <time>2015-08-15T21:02:06Z</time>
      </trkpt>
      <trkpt lat="47.32265" lon="1.06312">
        <ele>49.65</ele>
        <time>2015-08-15T21:02:15Z</time>
      </trkpt>
      <trkpt lat="47.32266" lon="1.06326">
        <ele>49.65</ele>
        <time>2015-08-15T21:02:18Z</time>
      </trkpt>
      <trkpt lat="47.32269" lon="1.06373">
        <ele>50.13</ele>
        <time>2015-08-15T21:02:29Z</time>
      </trkpt>
      <trkpt lat="47.32273" lon="1.06389">
        <ele>49.65</ele>
        <time>2015-08-15T21:02:33Z</time>
      </trkpt>
      <trkpt lat="47.3228" lon="1.06423">
        <ele>49.65</ele>
        <time>2015-08-15T21:02:41Z</time>
      </trkpt>
      <trkpt lat="47.32284" lon="1.06477">
        <ele>49.65</ele>
        <time>2015-08-15T21:02:54Z</time>
      </trkpt>
      <trkpt lat="47.32287" lon="1.06524">
        <ele>50.13</ele>
        <time>2015-08-15T21:03:05Z</time>
      </trkpt>
      <trkpt lat="47.3229" lon="1.06541">
        <ele>50.13</ele>
        <time>2015-08-15T21:03:10Z</time>
      </trkpt>
      <trkpt lat="47.32297" lon="1.06561">
        <ele>50.13</ele>
        <time>2015-08-15T21:03:16Z</time>
      </trkpt>
      <trkpt lat="47.32299" lon="1.06578">
        <ele>49.65</ele>
        <time>2015-08-15T21:03:23Z</time>
      </trkpt>
      <trkpt lat="47.32306" lon="1.06598">
        <ele>50.13</ele>
        <time>2015-08-15T21:03:29Z</time>
      </trkpt>
      <trkpt lat="47.32307" lon="1.06613">
        <ele>49.65</ele>
        <time>2015-08-15T21:03:34Z</time>
      </trkpt>
      <trkpt lat="47.32307" lon="1.06615">
        <ele>49.65</ele>
        <time>2015-08-15T21:03:35Z</time>
      </trkpt>
      <trkpt lat="47.32316" lon="1.06638">
        <ele>49.65</ele>
        <time>2015-08-15T21:03:43Z</time>
      </trkpt>
      <trkpt lat="47.32319" lon="1.06654">
        <ele>49.65</ele>
        <time>2015-08-15T21:03:47Z</time>
      </trkpt>
      <trkpt lat="47.3233" lon="1.06701">
        <ele>49.65</ele>
        <time>2015-08-15T21:03:58Z</time>
      </trkpt>
      <trkpt lat="47.3234" lon="1.06747">
        <ele>49.65</ele>
        <time>2015-08-15T21:04:10Z</time>
      </trkpt>
      <trkpt lat="47.32348" lon="1.06788">
        <ele>49.65</ele>
        <time>2015-08-15T21:04:21Z</time>
      </trkpt>
      <trkpt lat="47.32363" lon="1.0684">
        <ele>49.65</ele>
        <time>2015-08-15T21:04:34Z</time>
      </trkpt>
      <trkpt lat="47.32361" lon="1.06858">
        <ele>50.13</ele>
        <time>2015-08-15T21:04:41Z</time>
      </trkpt>
      <trkpt lat="47.3236" lon="1.0686">
        <ele>50.13</ele>
        <time>2015-08-15T21:04:43Z</time>
      </trkpt>
      <trkpt lat="47.32358" lon="1.06867">
        <ele>50.13</ele>
        <time>2015-08-15T21:04:46Z</time>
      </trkpt>
      <trkpt lat="47.32365" lon="1.0688">
        <ele>50.13</ele>
        <time>2015-08-15T21:04:54Z</time>
      </trkpt>
      <trkpt lat="47.32367" lon="1.06881">
        <ele>50.13</ele>
        <time>2015-08-15T21:04:55Z</time>
      </trkpt>
      <trkpt lat="47.32368" lon="1.06882">
        <ele>50.13</ele>
        <time>2015-08-15T21:04:56Z</time>
      </trkpt>
      <trkpt lat="47.32376" lon="1.06895">
        <ele>49.65</ele>
        <time>2015-08-15T21:05:01Z</time>
      </trkpt>
      <trkpt lat="47.32378" lon="1.06899">
        <ele>49.65</ele>
        <time>2015-08-15T21:05:02Z</time>
      </trkpt>
      <trkpt lat="47.32379" lon="1.06902">
        <ele>49.65</ele>
        <time>2015-08-15T21:05:03Z</time>
      </trkpt>
      <trkpt lat="47.32381" lon="1.06906">
        <ele>49.65</ele>
        <time>2015-08-15T21:05:04Z</time>
      </trkpt>
      <trkpt lat="47.32382" lon="1.06909">
        <ele>49.65</ele>
        <time>2015-08-15T21:05:05Z</time>
      </trkpt>
      <trkpt lat="47.3239" lon="1.06948">
        <ele>49.65</ele>
        <time>2015-08-15T21:05:16Z</time>
      </trkpt>
      <trkpt lat="47.32401" lon="1.06994">
        <ele>49.65</ele>
        <time>2015-08-15T21:05:30Z</time>
      </trkpt>
      <trkpt lat="47.32402" lon="1.06997">
        <ele>49.65</ele>
        <time>2015-08-15T21:05:31Z</time>
      </trkpt>
      <trkpt lat="47.32402" lon="1.07">
        <ele>49.65</ele>
        <time>2015-08-15T21:05:32Z</time>
      </trkpt>
      <trkpt lat="47.32403" lon="1.07003">
        <ele>49.65</ele>
        <time>2015-08-15T21:05:33Z</time>
      </trkpt>
      <trkpt lat="47.32403" lon="1.07006">
        <ele>49.65</ele>
        <time>2015-08-15T21:05:34Z</time>
      </trkpt>
      <trkpt lat="47.32404" lon="1.07009">
        <ele>49.65</ele>
        <time>2015-08-15T21:05:36Z</time>
      </trkpt>
      <trkpt lat="47.32405" lon="1.07011">
        <ele>49.65</ele>
        <time>2015-08-15T21:05:37Z</time>
      </trkpt>
      <trkpt lat="47.32406" lon="1.07013">
        <ele>49.65</ele>
        <time>2015-08-15T21:05:38Z</time>
      </trkpt>
      <trkpt lat="47.32406" lon="1.07016">
        <ele>49.65</ele>
        <time>2015-08-15T21:05:39Z</time>
      </trkpt>
      <trkpt lat="47.32406" lon="1.07018">
        <ele>49.65</ele>
        <time>2015-08-15T21:05:40Z</time>
      </trkpt>
      <trkpt lat="47.32406" lon="1.07021">
        <ele>49.65</ele>
        <time>2015-08-15T21:05:56Z</time>
      </trkpt>
      <trkpt lat="47.32406" lon="1.07021">
        <ele>49.65</ele>
        <time>2015-08-15T21:06:25Z</time>
      </trkpt>
      <trkpt lat="47.32405" lon="1.07021">
        <ele>49.16</ele>
        <time>2015-08-15T21:06:53Z</time>
      </trkpt>
      <trkpt lat="47.32405" lon="1.07022">
        <ele>49.16</ele>
        <time>2015-08-15T21:07:26Z</time>
      </trkpt>
      <trkpt lat="47.32406" lon="1.07021">
        <ele>48.68</ele>
        <time>2015-08-15T21:07:51Z</time>
      </trkpt>
      <trkpt lat="47.32406" lon="1.0702">
        <ele>48.2</ele>
        <time>2015-08-15T21:08:32Z</time>
      </trkpt>
      <trkpt lat="47.32407" lon="1.07021">
        <ele>48.2</ele>
        <time>2015-08-15T21:09:06Z</time>
      </trkpt>
      <trkpt lat="47.32408" lon="1.07019">
        <ele>47.72</ele>
        <time>2015-08-15T21:09:37Z</time>
      </trkpt>
      <trkpt lat="47.32408" lon="1.0702">
        <ele>47.72</ele>
        <time>2015-08-15T21:10:07Z</time>
      </trkpt>
      <trkpt lat="47.32408" lon="1.07019">
        <ele>47.24</ele>
        <time>2015-08-15T21:10:38Z</time>
      </trkpt>
      <trkpt lat="47.32408" lon="1.07019">
        <ele>47.24</ele>
        <time>2015-08-15T21:11:14Z</time>
      </trkpt>
      <trkpt lat="47.32408" lon="1.07018">
        <ele>47.24</ele>
        <time>2015-08-15T21:11:37Z</time>
      </trkpt>
      <trkpt lat="47.32408" lon="1.07017">
        <ele>46.76</ele>
        <time>2015-08-15T21:12:17Z</time>
      </trkpt>
      <trkpt lat="47.32408" lon="1.07017">
        <ele>46.76</ele>
        <time>2015-08-15T21:12:48Z</time>
      </trkpt>
      <trkpt lat="47.32408" lon="1.07016">
        <ele>46.76</ele>
        <time>2015-08-15T21:13:11Z</time>
      </trkpt>
      <trkpt lat="47.32412" lon="1.0702">
        <ele>46.76</ele>
        <time>2015-08-15T21:13:21Z</time>
      </trkpt>
      <trkpt lat="47.32412" lon="1.07022">
        <ele>46.76</ele>
        <time>2015-08-15T21:13:22Z</time>
      </trkpt>
      <trkpt lat="47.32413" lon="1.07025">
        <ele>46.76</ele>
        <time>2015-08-15T21:13:23Z</time>
      </trkpt>
      <trkpt lat="47.32413" lon="1.07028">
        <ele>46.76</ele>
        <time>2015-08-15T21:13:24Z</time>
      </trkpt>
      <trkpt lat="47.32416" lon="1.07045">
        <ele>46.28</ele>
        <time>2015-08-15T21:13:30Z</time>
      </trkpt>
      <trkpt lat="47.32416" lon="1.07048">
        <ele>46.76</ele>
        <time>2015-08-15T21:13:31Z</time>
      </trkpt>
      <trkpt lat="47.32422" lon="1.07062">
        <ele>46.28</ele>
        <time>2015-08-15T21:13:35Z</time>
      </trkpt>
      <trkpt lat="47.32422" lon="1.07064">
        <ele>45.8</ele>
        <time>2015-08-15T21:13:36Z</time>
      </trkpt>
      <trkpt lat="47.32423" lon="1.07067">
        <ele>46.28</ele>
        <time>2015-08-15T21:13:37Z</time>
      </trkpt>
      <trkpt lat="47.32428" lon="1.07085">
        <ele>46.28</ele>
        <time>2015-08-15T21:13:43Z</time>
      </trkpt>
      <trkpt lat="47.32446" lon="1.07121">
        <ele>46.76</ele>
        <time>2015-08-15T21:13:53Z</time>
      </trkpt>
      <trkpt lat="47.32463" lon="1.07179">
        <ele>46.28</ele>
        <time>2015-08-15T21:14:08Z</time>
      </trkpt>
      <trkpt lat="47.32464" lon="1.07183">
        <ele>46.28</ele>
        <time>2015-08-15T21:14:09Z</time>
      </trkpt>
      <trkpt lat="47.32465" lon="1.07186">
        <ele>46.76</ele>
        <time>2015-08-15T21:14:10Z</time>
      </trkpt>
      <trkpt lat="47.32465" lon="1.07189">
        <ele>46.28</ele>
        <time>2015-08-15T21:14:11Z</time>
      </trkpt>
      <trkpt lat="47.32466" lon="1.07192">
        <ele>46.28</ele>
        <time>2015-08-15T21:14:12Z</time>
      </trkpt>
      <trkpt lat="47.32466" lon="1.07195">
        <ele>46.28</ele>
        <time>2015-08-15T21:14:13Z</time>
      </trkpt>
      <trkpt lat="47.32467" lon="1.07198">
        <ele>46.28</ele>
        <time>2015-08-15T21:14:14Z</time>
      </trkpt>
      <trkpt lat="47.32468" lon="1.07201">
        <ele>46.28</ele>
        <time>2015-08-15T21:14:15Z</time>
      </trkpt>
      <trkpt lat="47.32469" lon="1.07204">
        <ele>46.28</ele>
        <time>2015-08-15T21:14:16Z</time>
      </trkpt>
      <trkpt lat="47.3247" lon="1.07206">
        <ele>46.28</ele>
        <time>2015-08-15T21:14:17Z</time>
      </trkpt>
      <trkpt lat="47.3247" lon="1.07208">
        <ele>46.28</ele>
        <time>2015-08-15T21:14:18Z</time>
      </trkpt>
      <trkpt lat="47.32472" lon="1.0721">
        <ele>46.28</ele>
        <time>2015-08-15T21:14:32Z</time>
      </trkpt>
      <trkpt lat="47.32472" lon="1.07207">
        <ele>46.28</ele>
        <time>2015-08-15T21:15:01Z</time>
      </trkpt>
      <trkpt lat="47.32472" lon="1.0721">
        <ele>45.8</ele>
        <time>2015-08-15T21:15:31Z</time>
      </trkpt>
      <trkpt lat="47.3247" lon="1.07214">
        <ele>45.32</ele>
        <time>2015-08-15T21:16:00Z</time>
      </trkpt>
      <trkpt lat="47.32469" lon="1.07216">
        <ele>45.32</ele>
        <time>2015-08-15T21:16:18Z</time>
      </trkpt>
      <trkpt lat="47.32469" lon="1.07215">
        <ele>45.32</ele>
        <time>2015-08-15T21:16:45Z</time>
      </trkpt>
      <trkpt lat="47.32467" lon="1.07211">
        <ele>45.32</ele>
        <time>2015-08-15T21:16:59Z</time>
      </trkpt>
      <trkpt lat="47.32468" lon="1.07212">
        <ele>45.32</ele>
        <time>2015-08-15T21:17:14Z</time>
      </trkpt>
      <trkpt lat="47.32466" lon="1.07213">
        <ele>44.84</ele>
        <time>2015-08-15T21:17:44Z</time>
      </trkpt>
      <trkpt lat="47.32462" lon="1.07198">
        <ele>44.84</ele>
        <time>2015-08-15T21:17:58Z</time>
      </trkpt>
      <trkpt lat="47.32462" lon="1.07197">
        <ele>44.84</ele>
        <time>2015-08-15T21:18:01Z</time>
      </trkpt>
      <trkpt lat="47.32463" lon="1.07197">
        <ele>44.84</ele>
        <time>2015-08-15T21:18:02Z</time>
      </trkpt>
      <trkpt lat="47.32465" lon="1.07205">
        <ele>44.84</ele>
        <time>2015-08-15T21:18:07Z</time>
      </trkpt>
      <trkpt lat="47.32465" lon="1.07207">
        <ele>44.84</ele>
        <time>2015-08-15T21:18:08Z</time>
      </trkpt>
      <trkpt lat="47.32465" lon="1.07209">
        <ele>44.84</ele>
        <time>2015-08-15T21:18:09Z</time>
      </trkpt>
      <trkpt lat="47.3247" lon="1.07226">
        <ele>44.84</ele>
        <time>2015-08-15T21:18:31Z</time>
      </trkpt>
      <trkpt lat="47.3248" lon="1.07247">
        <ele>44.84</ele>
        <time>2015-08-15T21:18:44Z</time>
      </trkpt>
      <trkpt lat="47.32487" lon="1.0728">
        <ele>44.84</ele>
        <time>2015-08-15T21:18:56Z</time>
      </trkpt>
      <trkpt lat="47.32494" lon="1.07307">
        <ele>44.36</ele>
        <time>2015-08-15T21:19:07Z</time>
      </trkpt>
      <trkpt lat="47.32495" lon="1.0731">
        <ele>44.36</ele>
        <time>2015-08-15T21:19:08Z</time>
      </trkpt>
      <trkpt lat="47.32498" lon="1.07315">
        <ele>44.36</ele>
        <time>2015-08-15T21:19:13Z</time>
      </trkpt>
      <trkpt lat="47.32505" lon="1.07329">
        <ele>44.36</ele>
        <time>2015-08-15T21:19:25Z</time>
      </trkpt>
      <trkpt lat="47.32504" lon="1.0733">
        <ele>43.88</ele>
        <time>2015-08-15T21:19:51Z</time>
      </trkpt>
      <trkpt lat="47.32505" lon="1.07332">
        <ele>43.88</ele>
        <time>2015-08-15T21:20:26Z</time>
      </trkpt>
      <trkpt lat="47.32511" lon="1.07336">
        <ele>43.4</ele>
        <time>2015-08-15T21:21:00Z</time>
      </trkpt>
      <trkpt lat="47.32518" lon="1.07349">
        <ele>43.4</ele>
        <time>2015-08-15T21:21:29Z</time>
      </trkpt>
      <trkpt lat="47.32535" lon="1.07381">
        <ele>42.92</ele>
        <time>2015-08-15T21:21:41Z</time>
      </trkpt>
      <trkpt lat="47.32537" lon="1.07384">
        <ele>42.92</ele>
        <time>2015-08-15T21:21:42Z</time>
      </trkpt>
      <trkpt lat="47.32538" lon="1.07386">
        <ele>43.4</ele>
        <time>2015-08-15T21:21:43Z</time>
      </trkpt>
      <trkpt lat="47.32539" lon="1.07389">
        <ele>43.4</ele>
        <time>2015-08-15T21:21:44Z</time>
      </trkpt>
      <trkpt lat="47.32541" lon="1.07392">
        <ele>43.4</ele>
        <time>2015-08-15T21:21:45Z</time>
      </trkpt>
      <trkpt lat="47.32542" lon="1.07394">
        <ele>43.4</ele>
        <time>2015-08-15T21:21:46Z</time>
      </trkpt>
      <trkpt lat="47.32544" lon="1.07396">
        <ele>43.4</ele>
        <time>2015-08-15T21:21:47Z</time>
      </trkpt>
      <trkpt lat="47.32545" lon="1.07399">
        <ele>42.92</ele>
        <time>2015-08-15T21:21:48Z</time>
      </trkpt>
      <trkpt lat="47.32547" lon="1.074">
        <ele>43.4</ele>
        <time>2015-08-15T21:21:49Z</time>
      </trkpt>
      <trkpt lat="47.32548" lon="1.07402">
        <ele>42.92</ele>
        <time>2015-08-15T21:21:50Z</time>
      </trkpt>
      <trkpt lat="47.32556" lon="1.07423">
        <ele>43.4</ele>
        <time>2015-08-15T21:21:58Z</time>
      </trkpt>
      <trkpt lat="47.32557" lon="1.07426">
        <ele>43.4</ele>
        <time>2015-08-15T21:21:59Z</time>
      </trkpt>
      <trkpt lat="47.32558" lon="1.07428">
        <ele>43.4</ele>
        <time>2015-08-15T21:22:00Z</time>
      </trkpt>
      <trkpt lat="47.32567" lon="1.07472">
        <ele>43.4</ele>
        <time>2015-08-15T21:22:11Z</time>
      </trkpt>
      <trkpt lat="47.32565" lon="1.0751">
        <ele>42.92</ele>
        <time>2015-08-15T21:22:20Z</time>
      </trkpt>
      <trkpt lat="47.32573" lon="1.07563">
        <ele>42.92</ele>
        <time>2015-08-15T21:22:31Z</time>
      </trkpt>
      <trkpt lat="47.32577" lon="1.07582">
        <ele>42.92</ele>
        <time>2015-08-15T21:22:35Z</time>
      </trkpt>
      <trkpt lat="47.32577" lon="1.07587">
        <ele>42.44</ele>
        <time>2015-08-15T21:22:36Z</time>
      </trkpt>
      <trkpt lat="47.32577" lon="1.07591">
        <ele>42.44</ele>
        <time>2015-08-15T21:22:37Z</time>
      </trkpt>
      <trkpt lat="47.32579" lon="1.07615">
        <ele>42.44</ele>
        <time>2015-08-15T21:22:43Z</time>
      </trkpt>
      <trkpt lat="47.32581" lon="1.07656">
        <ele>42.44</ele>
        <time>2015-08-15T21:22:52Z</time>
      </trkpt>
      <trkpt lat="47.32581" lon="1.0766">
        <ele>42.44</ele>
        <time>2015-08-15T21:22:53Z</time>
      </trkpt>
      <trkpt lat="47.32582" lon="1.07664">
        <ele>42.44</ele>
        <time>2015-08-15T21:22:54Z</time>
      </trkpt>
      <trkpt lat="47.32582" lon="1.07668">
        <ele>41.95</ele>
        <time>2015-08-15T21:22:55Z</time>
      </trkpt>
      <trkpt lat="47.32582" lon="1.07672">
        <ele>41.95</ele>
        <time>2015-08-15T21:22:56Z</time>
      </trkpt>
      <trkpt lat="47.32583" lon="1.07676">
        <ele>42.44</ele>
        <time>2015-08-15T21:22:57Z</time>
      </trkpt>
      <trkpt lat="47.32582" lon="1.0768">
        <ele>42.44</ele>
        <time>2015-08-15T21:22:58Z</time>
      </trkpt>
      <trkpt lat="47.32586" lon="1.07715">
        <ele>41.95</ele>
        <time>2015-08-15T21:23:06Z</time>
      </trkpt>
      <trkpt lat="47.32588" lon="1.07762">
        <ele>41.95</ele>
        <time>2015-08-15T21:23:16Z</time>
      </trkpt>
      <trkpt lat="47.32589" lon="1.07806">
        <ele>42.44</ele>
        <time>2015-08-15T21:23:26Z</time>
      </trkpt>
      <trkpt lat="47.3259" lon="1.07826">
        <ele>41.95</ele>
        <time>2015-08-15T21:23:31Z</time>
      </trkpt>
      <trkpt lat="47.32591" lon="1.07831">
        <ele>42.44</ele>
        <time>2015-08-15T21:23:32Z</time>
      </trkpt>
      <trkpt lat="47.32593" lon="1.07846">
        <ele>41.95</ele>
        <time>2015-08-15T21:23:36Z</time>
      </trkpt>
      <trkpt lat="47.32592" lon="1.0785">
        <ele>41.95</ele>
        <time>2015-08-15T21:23:37Z</time>
      </trkpt>
      <trkpt lat="47.32592" lon="1.07859">
        <ele>41.95</ele>
        <time>2015-08-15T21:23:39Z</time>
      </trkpt>
      <trkpt lat="47.32597" lon="1.07914">
        <ele>41.95</ele>
        <time>2015-08-15T21:23:51Z</time>
      </trkpt>
      <trkpt lat="47.32602" lon="1.07951">
        <ele>41.95</ele>
        <time>2015-08-15T21:24:00Z</time>
      </trkpt>
      <trkpt lat="47.32603" lon="1.07954">
        <ele>41.95</ele>
        <time>2015-08-15T21:24:01Z</time>
      </trkpt>
      <trkpt lat="47.32603" lon="1.07958">
        <ele>41.95</ele>
        <time>2015-08-15T21:24:02Z</time>
      </trkpt>
      <trkpt lat="47.32603" lon="1.07961">
        <ele>41.95</ele>
        <time>2015-08-15T21:24:03Z</time>
      </trkpt>
      <trkpt lat="47.32602" lon="1.07964">
        <ele>41.95</ele>
        <time>2015-08-15T21:24:04Z</time>
      </trkpt>
      <trkpt lat="47.32602" lon="1.07967">
        <ele>41.95</ele>
        <time>2015-08-15T21:24:05Z</time>
      </trkpt>
      <trkpt lat="47.32603" lon="1.0797">
        <ele>41.95</ele>
        <time>2015-08-15T21:24:06Z</time>
      </trkpt>
      <trkpt lat="47.32603" lon="1.07974">
        <ele>41.95</ele>
        <time>2015-08-15T21:24:07Z</time>
      </trkpt>
      <trkpt lat="47.32604" lon="1.07977">
        <ele>41.95</ele>
        <time>2015-08-15T21:24:08Z</time>
      </trkpt>
      <trkpt lat="47.32605" lon="1.0798">
        <ele>41.95</ele>
        <time>2015-08-15T21:24:09Z</time>
      </trkpt>
      <trkpt lat="47.32607" lon="1.08015">
        <ele>41.95</ele>
        <time>2015-08-15T21:24:18Z</time>
      </trkpt>
      <trkpt lat="47.32611" lon="1.0807">
        <ele>41.95</ele>
        <time>2015-08-15T21:24:30Z</time>
      </trkpt>
      <trkpt lat="47.32617" lon="1.08109">
        <ele>41.95</ele>
        <time>2015-08-15T21:24:39Z</time>
      </trkpt>
      <trkpt lat="47.32624" lon="1.08156">
        <ele>41.47</ele>
        <time>2015-08-15T21:24:50Z</time>
      </trkpt>
      <trkpt lat="47.32631" lon="1.08207">
        <ele>42.92</ele>
        <time>2015-08-15T21:25:01Z</time>
      </trkpt>
      <trkpt lat="47.32643" lon="1.08259">
        <ele>41.47</ele>
        <time>2015-08-15T21:25:14Z</time>
      </trkpt>
      <trkpt lat="47.32651" lon="1.08304">
        <ele>40.99</ele>
        <time>2015-08-15T21:25:29Z</time>
      </trkpt>
      <trkpt lat="47.32651" lon="1.08306">
        <ele>40.99</ele>
        <time>2015-08-15T21:25:30Z</time>
      </trkpt>
      <trkpt lat="47.32631" lon="1.08318">
        <ele>40.99</ele>
        <time>2015-08-15T21:25:40Z</time>
      </trkpt>
      <trkpt lat="47.3259" lon="1.08335">
        <ele>41.47</ele>
        <time>2015-08-15T21:25:53Z</time>
      </trkpt>
      <trkpt lat="47.32587" lon="1.08337">
        <ele>41.47</ele>
        <time>2015-08-15T21:25:54Z</time>
      </trkpt>
      <trkpt lat="47.32583" lon="1.08338">
        <ele>41.47</ele>
        <time>2015-08-15T21:25:55Z</time>
      </trkpt>
      <trkpt lat="47.3258" lon="1.08339">
        <ele>41.47</ele>
        <time>2015-08-15T21:25:56Z</time>
      </trkpt>
      <trkpt lat="47.32576" lon="1.0834">
        <ele>41.47</ele>
        <time>2015-08-15T21:25:57Z</time>
      </trkpt>
      <trkpt lat="47.32573" lon="1.08342">
        <ele>41.47</ele>
        <time>2015-08-15T21:25:58Z</time>
      </trkpt>
      <trkpt lat="47.32571" lon="1.08344">
        <ele>41.47</ele>
        <time>2015-08-15T21:25:59Z</time>
      </trkpt>
      <trkpt lat="47.32569" lon="1.08347">
        <ele>41.95</ele>
        <time>2015-08-15T21:26:00Z</time>
      </trkpt>
      <trkpt lat="47.32569" lon="1.0835">
        <ele>41.95</ele>
        <time>2015-08-15T21:26:01Z</time>
      </trkpt>
      <trkpt lat="47.3257" lon="1.08354">
        <ele>42.44</ele>
        <time>2015-08-15T21:26:02Z</time>
      </trkpt>
      <trkpt lat="47.32572" lon="1.08356">
        <ele>42.44</ele>
        <time>2015-08-15T21:26:03Z</time>
      </trkpt>
      <trkpt lat="47.32586" lon="1.08354">
        <ele>42.92</ele>
        <time>2015-08-15T21:26:07Z</time>
      </trkpt>
      <trkpt lat="47.32646" lon="1.08331">
        <ele>45.8</ele>
        <time>2015-08-15T21:26:20Z</time>
      </trkpt>
      <trkpt lat="47.32677" lon="1.08315">
        <ele>46.76</ele>
        <time>2015-08-15T21:26:30Z</time>
      </trkpt>
      <trkpt lat="47.32727" lon="1.08286">
        <ele>46.28</ele>
        <time>2015-08-15T21:26:46Z</time>
      </trkpt>
      <trkpt lat="47.32765" lon="1.08263">
        <ele>46.76</ele>
        <time>2015-08-15T21:27:02Z</time>
      </trkpt>
      <trkpt lat="47.32798" lon="1.08244">
        <ele>43.88</ele>
        <time>2015-08-15T21:27:18Z</time>
      </trkpt>
      <trkpt lat="47.32836" lon="1.08222">
        <ele>41.47</ele>
        <time>2015-08-15T21:27:38Z</time>
      </trkpt>
      <trkpt lat="47.32845" lon="1.0823">
        <ele>41.47</ele>
        <time>2015-08-15T21:27:44Z</time>
      </trkpt>
      <trkpt lat="47.32838" lon="1.0824">
        <ele>40.99</ele>
        <time>2015-08-15T21:27:48Z</time>
      </trkpt>
      <trkpt lat="47.32787" lon="1.08271">
        <ele>40.03</ele>
        <time>2015-08-15T21:28:04Z</time>
      </trkpt>
      <trkpt lat="47.32776" lon="1.08315">
        <ele>40.03</ele>
        <time>2015-08-15T21:28:14Z</time>
      </trkpt>
      <trkpt lat="47.32802" lon="1.08383">
        <ele>39.55</ele>
        <time>2015-08-15T21:28:29Z</time>
      </trkpt>
      <trkpt lat="47.32828" lon="1.08449">
        <ele>39.55</ele>
        <time>2015-08-15T21:28:43Z</time>
      </trkpt>
      <trkpt lat="47.32858" lon="1.08523">
        <ele>39.55</ele>
        <time>2015-08-15T21:28:58Z</time>
      </trkpt>
      <trkpt lat="47.32875" lon="1.08596">
        <ele>39.55</ele>
        <time>2015-08-15T21:29:12Z</time>
      </trkpt>
      <trkpt lat="47.32884" lon="1.08662">
        <ele>39.07</ele>
        <time>2015-08-15T21:29:25Z</time>
      </trkpt>
      <trkpt lat="47.32895" lon="1.08732">
        <ele>39.07</ele>
        <time>2015-08-15T21:29:42Z</time>
      </trkpt>
      <trkpt lat="47.32901" lon="1.08785">
        <ele>38.59</ele>
        <time>2015-08-15T21:29:56Z</time>
      </trkpt>
      <trkpt lat="47.32905" lon="1.08841">
        <ele>38.59</ele>
        <time>2015-08-15T21:30:09Z</time>
      </trkpt>
      <trkpt lat="47.32905" lon="1.08888">
        <ele>39.07</ele>
        <time>2015-08-15T21:30:20Z</time>
      </trkpt>
      <trkpt lat="47.32909" lon="1.08946">
        <ele>39.55</ele>
        <time>2015-08-15T21:30:34Z</time>
      </trkpt>
      <trkpt lat="47.32915" lon="1.08999">
        <ele>39.07</ele>
        <time>2015-08-15T21:30:50Z</time>
      </trkpt>
      <trkpt lat="47.32914" lon="1.09009">
        <ele>39.07</ele>
        <time>2015-08-15T21:31:02Z</time>
      </trkpt>
      <trkpt lat="47.32925" lon="1.0907">
        <ele>39.07</ele>
        <time>2015-08-15T21:31:16Z</time>
      </trkpt>
      <trkpt lat="47.32935" lon="1.09119">
        <ele>38.59</ele>
        <time>2015-08-15T21:31:30Z</time>
      </trkpt>
      <trkpt lat="47.32937" lon="1.09124">
        <ele>38.11</ele>
        <time>2015-08-15T21:31:44Z</time>
      </trkpt>
      <trkpt lat="47.32937" lon="1.09124">
        <ele>37.63</ele>
        <time>2015-08-15T21:32:20Z</time>
      </trkpt>
      <trkpt lat="47.32937" lon="1.09123">
        <ele>37.15</ele>
        <time>2015-08-15T21:32:48Z</time>
      </trkpt>
      <trkpt lat="47.32939" lon="1.09123">
        <ele>37.15</ele>
        <time>2015-08-15T21:33:15Z</time>
      </trkpt>
      <trkpt lat="47.32937" lon="1.09123">
        <ele>36.67</ele>
        <time>2015-08-15T21:33:42Z</time>
      </trkpt>
      <trkpt lat="47.32938" lon="1.09124">
        <ele>36.19</ele>
        <time>2015-08-15T21:33:59Z</time>
      </trkpt>
      <trkpt lat="47.32937" lon="1.09123">
        <ele>36.19</ele>
        <time>2015-08-15T21:34:13Z</time>
      </trkpt>
      <trkpt lat="47.32937" lon="1.09124">
        <ele>36.19</ele>
        <time>2015-08-15T21:34:14Z</time>
      </trkpt>
      <trkpt lat="47.32938" lon="1.09126">
        <ele>36.19</ele>
        <time>2015-08-15T21:34:15Z</time>
      </trkpt>
      <trkpt lat="47.32938" lon="1.09127">
        <ele>36.19</ele>
        <time>2015-08-15T21:34:16Z</time>
      </trkpt>
      <trkpt lat="47.32939" lon="1.09129">
        <ele>36.19</ele>
        <time>2015-08-15T21:34:17Z</time>
      </trkpt>
      <trkpt lat="47.3294" lon="1.09131">
        <ele>36.19</ele>
        <time>2015-08-15T21:34:18Z</time>
      </trkpt>
      <trkpt lat="47.32941" lon="1.09133">
        <ele>36.19</ele>
        <time>2015-08-15T21:34:19Z</time>
      </trkpt>
      <trkpt lat="47.32942" lon="1.09139">
        <ele>36.19</ele>
        <time>2015-08-15T21:34:22Z</time>
      </trkpt>
      <trkpt lat="47.32954" lon="1.09181">
        <ele>35.71</ele>
        <time>2015-08-15T21:34:36Z</time>
      </trkpt>
      <trkpt lat="47.32973" lon="1.09222">
        <ele>35.71</ele>
        <time>2015-08-15T21:34:48Z</time>
      </trkpt>
      <trkpt lat="47.32991" lon="1.09271">
        <ele>35.23</ele>
        <time>2015-08-15T21:35:02Z</time>
      </trkpt>
      <trkpt lat="47.32999" lon="1.09292">
        <ele>34.74</ele>
        <time>2015-08-15T21:35:15Z</time>
      </trkpt>
      <trkpt lat="47.33019" lon="1.09346">
        <ele>35.23</ele>
        <time>2015-08-15T21:35:28Z</time>
      </trkpt>
      <trkpt lat="47.33028" lon="1.09406">
        <ele>34.74</ele>
        <time>2015-08-15T21:35:39Z</time>
      </trkpt>
      <trkpt lat="47.33031" lon="1.09453">
        <ele>34.74</ele>
        <time>2015-08-15T21:35:50Z</time>
      </trkpt>
      <trkpt lat="47.3303" lon="1.09457">
        <ele>34.74</ele>
        <time>2015-08-15T21:35:54Z</time>
      </trkpt>
      <trkpt lat="47.33029" lon="1.09455">
        <ele>34.74</ele>
        <time>2015-08-15T21:35:56Z</time>
      </trkpt>
      <trkpt lat="47.33029" lon="1.09446">
        <ele>34.74</ele>
        <time>2015-08-15T21:36:09Z</time>
      </trkpt>
      <trkpt lat="47.3303" lon="1.09449">
        <ele>34.26</ele>
        <time>2015-08-15T21:36:17Z</time>
      </trkpt>
      <trkpt lat="47.3303" lon="1.09465">
        <ele>34.26</ele>
        <time>2015-08-15T21:36:22Z</time>
      </trkpt>
      <trkpt lat="47.33036" lon="1.09509">
        <ele>34.26</ele>
        <time>2015-08-15T21:36:37Z</time>
      </trkpt>
      <trkpt lat="47.33041" lon="1.0954">
        <ele>34.26</ele>
        <time>2015-08-15T21:36:49Z</time>
      </trkpt>
      <trkpt lat="47.33041" lon="1.0954">
        <ele>33.78</ele>
        <time>2015-08-15T21:36:54Z</time>
      </trkpt>
      <trkpt lat="47.33042" lon="1.09543">
        <ele>33.78</ele>
        <time>2015-08-15T21:37:10Z</time>
      </trkpt>
      <trkpt lat="47.33043" lon="1.09538">
        <ele>33.78</ele>
        <time>2015-08-15T21:37:22Z</time>
      </trkpt>
      <trkpt lat="47.33041" lon="1.0953">
        <ele>33.78</ele>
        <time>2015-08-15T21:37:25Z</time>
      </trkpt>
      <trkpt lat="47.33043" lon="1.09517">
        <ele>33.78</ele>
        <time>2015-08-15T21:37:32Z</time>
      </trkpt>
      <trkpt lat="47.33046" lon="1.09521">
        <ele>33.78</ele>
        <time>2015-08-15T21:37:34Z</time>
      </trkpt>
      <trkpt lat="47.33046" lon="1.09524">
        <ele>33.78</ele>
        <time>2015-08-15T21:37:36Z</time>
      </trkpt>
      <trkpt lat="47.33046" lon="1.09525">
        <ele>33.78</ele>
        <time>2015-08-15T21:37:37Z</time>
      </trkpt>
      <trkpt lat="47.3305" lon="1.09526">
        <ele>33.78</ele>
        <time>2015-08-15T21:37:38Z</time>
      </trkpt>
      <trkpt lat="47.33051" lon="1.09527">
        <ele>33.78</ele>
        <time>2015-08-15T21:37:39Z</time>
      </trkpt>
      <trkpt lat="47.33052" lon="1.09529">
        <ele>33.78</ele>
        <time>2015-08-15T21:37:40Z</time>
      </trkpt>
      <trkpt lat="47.33052" lon="1.0956">
        <ele>33.78</ele>
        <time>2015-08-15T21:37:46Z</time>
      </trkpt>
      <trkpt lat="47.33051" lon="1.09646">
        <ele>33.78</ele>
        <time>2015-08-15T21:38:00Z</time>
      </trkpt>
      <trkpt lat="47.33048" lon="1.09722">
        <ele>34.26</ele>
        <time>2015-08-15T21:38:13Z</time>
      </trkpt>
      <trkpt lat="47.3305" lon="1.09787">
        <ele>34.26</ele>
        <time>2015-08-15T21:38:24Z</time>
      </trkpt>
      <trkpt lat="47.33051" lon="1.09793">
        <ele>34.26</ele>
        <time>2015-08-15T21:38:25Z</time>
      </trkpt>
      <trkpt lat="47.33061" lon="1.09862">
        <ele>34.26</ele>
        <time>2015-08-15T21:38:37Z</time>
      </trkpt>
      <trkpt lat="47.33069" lon="1.09931">
        <ele>34.74</ele>
        <time>2015-08-15T21:38:50Z</time>
      </trkpt>
      <trkpt lat="47.33073" lon="1.09984">
        <ele>34.74</ele>
        <time>2015-08-15T21:39:01Z</time>
      </trkpt>
      <trkpt lat="47.33088" lon="1.1004">
        <ele>34.74</ele>
        <time>2015-08-15T21:39:14Z</time>
      </trkpt>
      <trkpt lat="47.33099" lon="1.1011">
        <ele>34.74</ele>
        <time>2015-08-15T21:39:28Z</time>
      </trkpt>
      <trkpt lat="47.33112" lon="1.1019">
        <ele>35.23</ele>
        <time>2015-08-15T21:39:42Z</time>
      </trkpt>
      <trkpt lat="47.33117" lon="1.10238">
        <ele>34.74</ele>
        <time>2015-08-15T21:39:51Z</time>
      </trkpt>
      <trkpt lat="47.33124" lon="1.10293">
        <ele>34.74</ele>
        <time>2015-08-15T21:40:02Z</time>
      </trkpt>
      <trkpt lat="47.33131" lon="1.10355">
        <ele>34.74</ele>
        <time>2015-08-15T21:40:13Z</time>
      </trkpt>
      <trkpt lat="47.33131" lon="1.10361">
        <ele>34.74</ele>
        <time>2015-08-15T21:40:14Z</time>
      </trkpt>
      <trkpt lat="47.33132" lon="1.10368">
        <ele>34.74</ele>
        <time>2015-08-15T21:40:15Z</time>
      </trkpt>
      <trkpt lat="47.33133" lon="1.10374">
        <ele>34.74</ele>
        <time>2015-08-15T21:40:16Z</time>
      </trkpt>
      <trkpt lat="47.33134" lon="1.1038">
        <ele>34.74</ele>
        <time>2015-08-15T21:40:17Z</time>
      </trkpt>
      <trkpt lat="47.33139" lon="1.10418">
        <ele>35.23</ele>
        <time>2015-08-15T21:40:23Z</time>
      </trkpt>
      <trkpt lat="47.33144" lon="1.10461">
        <ele>35.23</ele>
        <time>2015-08-15T21:40:31Z</time>
      </trkpt>
      <trkpt lat="47.33156" lon="1.10516">
        <ele>34.74</ele>
        <time>2015-08-15T21:40:42Z</time>
      </trkpt>
      <trkpt lat="47.33171" lon="1.1058">
        <ele>34.74</ele>
        <time>2015-08-15T21:40:54Z</time>
      </trkpt>
      <trkpt lat="47.33199" lon="1.10661">
        <ele>35.23</ele>
        <time>2015-08-15T21:41:08Z</time>
      </trkpt>
      <trkpt lat="47.3323" lon="1.10736">
        <ele>35.23</ele>
        <time>2015-08-15T21:41:22Z</time>
      </trkpt>
      <trkpt lat="47.33233" lon="1.10747">
        <ele>35.23</ele>
        <time>2015-08-15T21:41:24Z</time>
      </trkpt>
      <trkpt lat="47.33264" lon="1.10826">
        <ele>35.71</ele>
        <time>2015-08-15T21:41:37Z</time>
      </trkpt>
      <trkpt lat="47.33272" lon="1.10853">
        <ele>35.71</ele>
        <time>2015-08-15T21:41:42Z</time>
      </trkpt>
      <trkpt lat="47.33293" lon="1.10919">
        <ele>35.71</ele>
        <time>2015-08-15T21:41:54Z</time>
      </trkpt>
      <trkpt lat="47.33301" lon="1.10964">
        <ele>35.71</ele>
        <time>2015-08-15T21:42:01Z</time>
      </trkpt>
      <trkpt lat="47.33305" lon="1.10989">
        <ele>36.19</ele>
        <time>2015-08-15T21:42:05Z</time>
      </trkpt>
      <trkpt lat="47.33306" lon="1.10995">
        <ele>36.19</ele>
        <time>2015-08-15T21:42:06Z</time>
      </trkpt>
      <trkpt lat="47.3332" lon="1.11095">
        <ele>36.19</ele>
        <time>2015-08-15T21:42:22Z</time>
      </trkpt>
      <trkpt lat="47.33327" lon="1.11172">
        <ele>36.19</ele>
        <time>2015-08-15T21:42:35Z</time>
      </trkpt>
      <trkpt lat="47.33334" lon="1.11254">
        <ele>36.19</ele>
        <time>2015-08-15T21:42:49Z</time>
      </trkpt>
      <trkpt lat="47.3334" lon="1.11318">
        <ele>35.71</ele>
        <time>2015-08-15T21:43:02Z</time>
      </trkpt>
      <trkpt lat="47.33346" lon="1.11382">
        <ele>35.71</ele>
        <time>2015-08-15T21:43:15Z</time>
      </trkpt>
      <trkpt lat="47.33346" lon="1.11388">
        <ele>35.23</ele>
        <time>2015-08-15T21:43:16Z</time>
      </trkpt>
      <trkpt lat="47.33347" lon="1.11394">
        <ele>35.23</ele>
        <time>2015-08-15T21:43:17Z</time>
      </trkpt>
      <trkpt lat="47.33347" lon="1.11401">
        <ele>35.23</ele>
        <time>2015-08-15T21:43:18Z</time>
      </trkpt>
      <trkpt lat="47.33347" lon="1.11408">
        <ele>35.71</ele>
        <time>2015-08-15T21:43:19Z</time>
      </trkpt>
      <trkpt lat="47.33347" lon="1.11414">
        <ele>35.23</ele>
        <time>2015-08-15T21:43:20Z</time>
      </trkpt>
      <trkpt lat="47.33343" lon="1.11497">
        <ele>35.23</ele>
        <time>2015-08-15T21:43:33Z</time>
      </trkpt>
      <trkpt lat="47.33338" lon="1.11558">
        <ele>34.74</ele>
        <time>2015-08-15T21:43:44Z</time>
      </trkpt>
      <trkpt lat="47.33329" lon="1.11628">
        <ele>34.74</ele>
        <time>2015-08-15T21:43:57Z</time>
      </trkpt>
      <trkpt lat="47.33328" lon="1.11633">
        <ele>34.74</ele>
        <time>2015-08-15T21:43:58Z</time>
      </trkpt>
      <trkpt lat="47.33329" lon="1.11639">
        <ele>34.74</ele>
        <time>2015-08-15T21:43:59Z</time>
      </trkpt>
      <trkpt lat="47.33328" lon="1.11671">
        <ele>34.74</ele>
        <time>2015-08-15T21:44:04Z</time>
      </trkpt>
      <trkpt lat="47.33328" lon="1.11678">
        <ele>34.74</ele>
        <time>2015-08-15T21:44:05Z</time>
      </trkpt>
      <trkpt lat="47.33329" lon="1.11685">
        <ele>34.74</ele>
        <time>2015-08-15T21:44:06Z</time>
      </trkpt>
      <trkpt lat="47.33329" lon="1.11691">
        <ele>34.74</ele>
        <time>2015-08-15T21:44:07Z</time>
      </trkpt>
      <trkpt lat="47.3333" lon="1.11697">
        <ele>34.74</ele>
        <time>2015-08-15T21:44:08Z</time>
      </trkpt>
      <trkpt lat="47.33332" lon="1.11709">
        <ele>34.74</ele>
        <time>2015-08-15T21:44:10Z</time>
      </trkpt>
      <trkpt lat="47.33346" lon="1.1176">
        <ele>35.23</ele>
        <time>2015-08-15T21:44:18Z</time>
      </trkpt>
      <trkpt lat="47.33351" lon="1.11814">
        <ele>34.74</ele>
        <time>2015-08-15T21:44:29Z</time>
      </trkpt>
      <trkpt lat="47.33352" lon="1.11878">
        <ele>34.26</ele>
        <time>2015-08-15T21:44:43Z</time>
      </trkpt>
      <trkpt lat="47.33348" lon="1.11932">
        <ele>34.74</ele>
        <time>2015-08-15T21:44:55Z</time>
      </trkpt>
      <trkpt lat="47.33348" lon="1.11936">
        <ele>34.74</ele>
        <time>2015-08-15T21:44:56Z</time>
      </trkpt>
      <trkpt lat="47.33348" lon="1.11943">
        <ele>34.74</ele>
        <time>2015-08-15T21:44:58Z</time>
      </trkpt>
      <trkpt lat="47.33343" lon="1.12001">
        <ele>34.26</ele>
        <time>2015-08-15T21:45:10Z</time>
      </trkpt>
      <trkpt lat="47.33341" lon="1.12053">
        <ele>34.26</ele>
        <time>2015-08-15T21:45:21Z</time>
      </trkpt>
      <trkpt lat="47.33341" lon="1.12107">
        <ele>34.26</ele>
        <time>2015-08-15T21:45:33Z</time>
      </trkpt>
      <trkpt lat="47.3334" lon="1.12145">
        <ele>33.78</ele>
        <time>2015-08-15T21:45:45Z</time>
      </trkpt>
      <trkpt lat="47.33338" lon="1.12159">
        <ele>33.78</ele>
        <time>2015-08-15T21:45:53Z</time>
      </trkpt>
      <trkpt lat="47.33338" lon="1.12165">
        <ele>33.78</ele>
        <time>2015-08-15T21:45:54Z</time>
      </trkpt>
      <trkpt lat="47.33338" lon="1.12171">
        <ele>33.78</ele>
        <time>2015-08-15T21:45:55Z</time>
      </trkpt>
      <trkpt lat="47.33338" lon="1.12195">
        <ele>33.78</ele>
        <time>2015-08-15T21:45:59Z</time>
      </trkpt>
      <trkpt lat="47.33337" lon="1.12201">
        <ele>33.78</ele>
        <time>2015-08-15T21:46:00Z</time>
      </trkpt>
      <trkpt lat="47.33333" lon="1.12275">
        <ele>33.78</ele>
        <time>2015-08-15T21:46:13Z</time>
      </trkpt>
      <trkpt lat="47.3332" lon="1.12359">
        <ele>33.3</ele>
        <time>2015-08-15T21:46:29Z</time>
      </trkpt>
      <trkpt lat="47.33315" lon="1.12387">
        <ele>33.3</ele>
        <time>2015-08-15T21:46:34Z</time>
      </trkpt>
      <trkpt lat="47.33295" lon="1.12496">
        <ele>33.3</ele>
        <time>2015-08-15T21:46:53Z</time>
      </trkpt>
      <trkpt lat="47.33294" lon="1.12502">
        <ele>33.3</ele>
        <time>2015-08-15T21:46:54Z</time>
      </trkpt>
      <trkpt lat="47.33273" lon="1.12594">
        <ele>32.82</ele>
        <time>2015-08-15T21:47:12Z</time>
      </trkpt>
      <trkpt lat="47.33257" lon="1.12648">
        <ele>33.3</ele>
        <time>2015-08-15T21:47:24Z</time>
      </trkpt>
      <trkpt lat="47.33239" lon="1.12729">
        <ele>33.78</ele>
        <time>2015-08-15T21:47:40Z</time>
      </trkpt>
      <trkpt lat="47.33228" lon="1.12799">
        <ele>33.78</ele>
        <time>2015-08-15T21:47:54Z</time>
      </trkpt>
      <trkpt lat="47.33217" lon="1.12886">
        <ele>33.3</ele>
        <time>2015-08-15T21:48:11Z</time>
      </trkpt>
      <trkpt lat="47.3321" lon="1.12926">
        <ele>33.3</ele>
        <time>2015-08-15T21:48:23Z</time>
      </trkpt>
      <trkpt lat="47.33201" lon="1.12963">
        <ele>32.82</ele>
        <time>2015-08-15T21:48:35Z</time>
      </trkpt>
      <trkpt lat="47.33201" lon="1.12967">
        <ele>32.34</ele>
        <time>2015-08-15T21:49:01Z</time>
      </trkpt>
      <trkpt lat="47.33198" lon="1.12987">
        <ele>32.82</ele>
        <time>2015-08-15T21:49:14Z</time>
      </trkpt>
      <trkpt lat="47.33193" lon="1.13041">
        <ele>32.34</ele>
        <time>2015-08-15T21:49:28Z</time>
      </trkpt>
      <trkpt lat="47.33187" lon="1.13084">
        <ele>31.86</ele>
        <time>2015-08-15T21:49:41Z</time>
      </trkpt>
      <trkpt lat="47.3318" lon="1.13131">
        <ele>31.86</ele>
        <time>2015-08-15T21:49:56Z</time>
      </trkpt>
      <trkpt lat="47.33174" lon="1.13185">
        <ele>31.86</ele>
        <time>2015-08-15T21:50:14Z</time>
      </trkpt>
      <trkpt lat="47.3317" lon="1.13234">
        <ele>31.38</ele>
        <time>2015-08-15T21:50:30Z</time>
      </trkpt>
      <trkpt lat="47.3317" lon="1.13273">
        <ele>30.9</ele>
        <time>2015-08-15T21:50:45Z</time>
      </trkpt>
      <trkpt lat="47.33173" lon="1.1328">
        <ele>30.9</ele>
        <time>2015-08-15T21:50:49Z</time>
      </trkpt>
      <trkpt lat="47.33176" lon="1.13282">
        <ele>30.42</ele>
        <time>2015-08-15T21:50:51Z</time>
      </trkpt>
      <trkpt lat="47.33175" lon="1.13329">
        <ele>30.42</ele>
        <time>2015-08-15T21:51:06Z</time>
      </trkpt>
      <trkpt lat="47.33174" lon="1.13401">
        <ele>30.42</ele>
        <time>2015-08-15T21:51:21Z</time>
      </trkpt>
      <trkpt lat="47.33173" lon="1.13476">
        <ele>29.46</ele>
        <time>2015-08-15T21:51:36Z</time>
      </trkpt>
      <trkpt lat="47.33181" lon="1.13533">
        <ele>29.46</ele>
        <time>2015-08-15T21:51:48Z</time>
      </trkpt>
      <trkpt lat="47.33195" lon="1.13612">
        <ele>28.98</ele>
        <time>2015-08-15T21:52:04Z</time>
      </trkpt>
      <trkpt lat="47.33191" lon="1.1367">
        <ele>28.98</ele>
        <time>2015-08-15T21:52:16Z</time>
      </trkpt>
      <trkpt lat="47.33176" lon="1.13722">
        <ele>28.5</ele>
        <time>2015-08-15T21:52:30Z</time>
      </trkpt>
      <trkpt lat="47.33176" lon="1.13786">
        <ele>28.5</ele>
        <time>2015-08-15T21:52:46Z</time>
      </trkpt>
      <trkpt lat="47.33175" lon="1.13842">
        <ele>28.5</ele>
        <time>2015-08-15T21:53:00Z</time>
      </trkpt>
      <trkpt lat="47.33171" lon="1.1391">
        <ele>28.02</ele>
        <time>2015-08-15T21:53:16Z</time>
      </trkpt>
      <trkpt lat="47.33166" lon="1.13983">
        <ele>28.02</ele>
        <time>2015-08-15T21:53:32Z</time>
      </trkpt>
      <trkpt lat="47.33161" lon="1.14006">
        <ele>27.53</ele>
        <time>2015-08-15T21:53:37Z</time>
      </trkpt>
      <trkpt lat="47.33161" lon="1.1401">
        <ele>27.53</ele>
        <time>2015-08-15T21:53:38Z</time>
      </trkpt>
      <trkpt lat="47.33161" lon="1.14063">
        <ele>27.05</ele>
        <time>2015-08-15T21:53:50Z</time>
      </trkpt>
      <trkpt lat="47.33156" lon="1.14115">
        <ele>27.53</ele>
        <time>2015-08-15T21:54:02Z</time>
      </trkpt>
      <trkpt lat="47.33151" lon="1.14166">
        <ele>27.05</ele>
        <time>2015-08-15T21:54:13Z</time>
      </trkpt>
      <trkpt lat="47.33147" lon="1.14212">
        <ele>26.57</ele>
        <time>2015-08-15T21:54:24Z</time>
      </trkpt>
      <trkpt lat="47.33143" lon="1.1427">
        <ele>26.57</ele>
        <time>2015-08-15T21:54:37Z</time>
      </trkpt>
      <trkpt lat="47.33146" lon="1.14324">
        <ele>26.57</ele>
        <time>2015-08-15T21:54:51Z</time>
      </trkpt>
      <trkpt lat="47.33149" lon="1.14372">
        <ele>26.57</ele>
        <time>2015-08-15T21:55:03Z</time>
      </trkpt>
      <trkpt lat="47.33155" lon="1.14439">
        <ele>27.05</ele>
        <time>2015-08-15T21:55:18Z</time>
      </trkpt>
      <trkpt lat="47.33169" lon="1.14506">
        <ele>26.09</ele>
        <time>2015-08-15T21:55:33Z</time>
      </trkpt>
      <trkpt lat="47.33172" lon="1.14531">
        <ele>26.09</ele>
        <time>2015-08-15T21:55:39Z</time>
      </trkpt>
      <trkpt lat="47.3317" lon="1.14543">
        <ele>26.09</ele>
        <time>2015-08-15T21:55:43Z</time>
      </trkpt>
      <trkpt lat="47.33172" lon="1.14562">
        <ele>25.61</ele>
        <time>2015-08-15T21:55:48Z</time>
      </trkpt>
      <trkpt lat="47.33176" lon="1.14581">
        <ele>25.61</ele>
        <time>2015-08-15T21:55:53Z</time>
      </trkpt>
      <trkpt lat="47.33182" lon="1.14623">
        <ele>25.13</ele>
        <time>2015-08-15T21:56:04Z</time>
      </trkpt>
      <trkpt lat="47.33186" lon="1.14644">
        <ele>25.61</ele>
        <time>2015-08-15T21:56:10Z</time>
      </trkpt>
      <trkpt lat="47.33196" lon="1.14694">
        <ele>24.65</ele>
        <time>2015-08-15T21:56:23Z</time>
      </trkpt>
      <trkpt lat="47.33205" lon="1.14739">
        <ele>24.65</ele>
        <time>2015-08-15T21:56:34Z</time>
      </trkpt>
      <trkpt lat="47.33219" lon="1.14798">
        <ele>24.65</ele>
        <time>2015-08-15T21:56:48Z</time>
      </trkpt>
      <trkpt lat="47.33229" lon="1.14846">
        <ele>24.17</ele>
        <time>2015-08-15T21:57:00Z</time>
      </trkpt>
      <trkpt lat="47.33241" lon="1.14899">
        <ele>24.17</ele>
        <time>2015-08-15T21:57:13Z</time>
      </trkpt>
      <trkpt lat="47.33256" lon="1.14953">
        <ele>24.17</ele>
        <time>2015-08-15T21:57:25Z</time>
      </trkpt>
      <trkpt lat="47.33265" lon="1.14997">
        <ele>23.69</ele>
        <time>2015-08-15T21:57:37Z</time>
      </trkpt>
      <trkpt lat="47.33268" lon="1.15021">
        <ele>23.21</ele>
        <time>2015-08-15T21:57:44Z</time>
      </trkpt>
      <trkpt lat="47.33273" lon="1.15057">
        <ele>23.21</ele>
        <time>2015-08-15T21:57:56Z</time>
      </trkpt>
      <trkpt lat="47.33274" lon="1.15067">
        <ele>23.21</ele>
        <time>2015-08-15T21:57:59Z</time>
      </trkpt>
      <trkpt lat="47.33281" lon="1.15099">
        <ele>22.25</ele>
        <time>2015-08-15T21:58:08Z</time>
      </trkpt>
      <trkpt lat="47.33287" lon="1.15142">
        <ele>22.73</ele>
        <time>2015-08-15T21:58:19Z</time>
      </trkpt>
      <trkpt lat="47.3329" lon="1.15157">
        <ele>22.73</ele>
        <time>2015-08-15T21:58:24Z</time>
      </trkpt>
      <trkpt lat="47.33294" lon="1.15182">
        <ele>22.73</ele>
        <time>2015-08-15T21:58:30Z</time>
      </trkpt>
      <trkpt lat="47.33298" lon="1.15229">
        <ele>22.73</ele>
        <time>2015-08-15T21:58:40Z</time>
      </trkpt>
      <trkpt lat="47.33306" lon="1.15273">
        <ele>22.73</ele>
        <time>2015-08-15T21:58:50Z</time>
      </trkpt>
      <trkpt lat="47.33311" lon="1.15318">
        <ele>21.77</ele>
        <time>2015-08-15T21:59:03Z</time>
      </trkpt>
      <trkpt lat="47.33316" lon="1.15369">
        <ele>21.77</ele>
        <time>2015-08-15T21:59:16Z</time>
      </trkpt>
      <trkpt lat="47.33323" lon="1.15416">
        <ele>21.77</ele>
        <time>2015-08-15T21:59:31Z</time>
      </trkpt>
      <trkpt lat="47.33326" lon="1.15453">
        <ele>21.77</ele>
        <time>2015-08-15T21:59:41Z</time>
      </trkpt>
      <trkpt lat="47.33328" lon="1.15486">
        <ele>21.29</ele>
        <time>2015-08-15T21:59:48Z</time>
      </trkpt>
      <trkpt lat="47.33333" lon="1.15542">
        <ele>21.29</ele>
        <time>2015-08-15T22:00:00Z</time>
      </trkpt>
      <trkpt lat="47.33335" lon="1.15595">
        <ele>21.29</ele>
        <time>2015-08-15T22:00:11Z</time>
      </trkpt>
      <trkpt lat="47.33336" lon="1.15635">
        <ele>21.29</ele>
        <time>2015-08-15T22:00:21Z</time>
      </trkpt>
      <trkpt lat="47.33338" lon="1.15655">
        <ele>20.81</ele>
        <time>2015-08-15T22:00:26Z</time>
      </trkpt>
      <trkpt lat="47.3334" lon="1.15689">
        <ele>20.81</ele>
        <time>2015-08-15T22:00:35Z</time>
      </trkpt>
      <trkpt lat="47.33337" lon="1.15699">
        <ele>19.84</ele>
        <time>2015-08-15T22:01:02Z</time>
      </trkpt>
      <trkpt lat="47.33338" lon="1.15706">
        <ele>19.84</ele>
        <time>2015-08-15T22:01:14Z</time>
      </trkpt>
      <trkpt lat="47.3334" lon="1.15752">
        <ele>19.84</ele>
        <time>2015-08-15T22:01:29Z</time>
      </trkpt>
      <trkpt lat="47.3334" lon="1.15772">
        <ele>19.84</ele>
        <time>2015-08-15T22:01:36Z</time>
      </trkpt>
      <trkpt lat="47.3334" lon="1.15776">
        <ele>19.84</ele>
        <time>2015-08-15T22:01:37Z</time>
      </trkpt>
      <trkpt lat="47.33343" lon="1.15817">
        <ele>19.84</ele>
        <time>2015-08-15T22:01:47Z</time>
      </trkpt>
      <trkpt lat="47.33347" lon="1.15869">
        <ele>19.36</ele>
        <time>2015-08-15T22:02:01Z</time>
      </trkpt>
      <trkpt lat="47.33354" lon="1.15904">
        <ele>18.88</ele>
        <time>2015-08-15T22:02:13Z</time>
      </trkpt>
      <trkpt lat="47.33361" lon="1.15949">
        <ele>17.92</ele>
        <time>2015-08-15T22:02:25Z</time>
      </trkpt>
      <trkpt lat="47.33369" lon="1.16003">
        <ele>17.44</ele>
        <time>2015-08-15T22:02:38Z</time>
      </trkpt>
      <trkpt lat="47.33372" lon="1.16025">
        <ele>17.44</ele>
        <time>2015-08-15T22:02:45Z</time>
      </trkpt>
      <trkpt lat="47.33376" lon="1.16055">
        <ele>17.44</ele>
        <time>2015-08-15T22:02:53Z</time>
      </trkpt>
      <trkpt lat="47.33386" lon="1.161">
        <ele>17.44</ele>
        <time>2015-08-15T22:03:05Z</time>
      </trkpt>
      <trkpt lat="47.33397" lon="1.16146">
        <ele>17.44</ele>
        <time>2015-08-15T22:03:17Z</time>
      </trkpt>
      <trkpt lat="47.3341" lon="1.16188">
        <ele>17.44</ele>
        <time>2015-08-15T22:03:30Z</time>
      </trkpt>
      <trkpt lat="47.33429" lon="1.16244">
        <ele>16.96</ele>
        <time>2015-08-15T22:03:46Z</time>
      </trkpt>
      <trkpt lat="47.33444" lon="1.16297">
        <ele>16.48</ele>
        <time>2015-08-15T22:04:00Z</time>
      </trkpt>
      <trkpt lat="47.33459" lon="1.16332">
        <ele>16</ele>
        <time>2015-08-15T22:04:12Z</time>
      </trkpt>
      <trkpt lat="47.33478" lon="1.16366">
        <ele>16</ele>
        <time>2015-08-15T22:04:23Z</time>
      </trkpt>
      <trkpt lat="47.33497" lon="1.16406">
        <ele>15.52</ele>
        <time>2015-08-15T22:04:36Z</time>
      </trkpt>
      <trkpt lat="47.33518" lon="1.1645">
        <ele>14.56</ele>
        <time>2015-08-15T22:04:51Z</time>
      </trkpt>
      <trkpt lat="47.33531" lon="1.16487">
        <ele>14.08</ele>
        <time>2015-08-15T22:05:05Z</time>
      </trkpt>
      <trkpt lat="47.33545" lon="1.16554">
        <ele>14.08</ele>
        <time>2015-08-15T22:05:21Z</time>
      </trkpt>
      <trkpt lat="47.33557" lon="1.16598">
        <ele>13.6</ele>
        <time>2015-08-15T22:05:32Z</time>
      </trkpt>
      <trkpt lat="47.33573" lon="1.16655">
        <ele>13.6</ele>
        <time>2015-08-15T22:05:44Z</time>
      </trkpt>
      <trkpt lat="47.33593" lon="1.1671">
        <ele>14.08</ele>
        <time>2015-08-15T22:05:56Z</time>
      </trkpt>
      <trkpt lat="47.33603" lon="1.16754">
        <ele>13.6</ele>
        <time>2015-08-15T22:06:08Z</time>
      </trkpt>
      <trkpt lat="47.33617" lon="1.16805">
        <ele>13.12</ele>
        <time>2015-08-15T22:06:20Z</time>
      </trkpt>
      <trkpt lat="47.33629" lon="1.16862">
        <ele>12.63</ele>
        <time>2015-08-15T22:06:34Z</time>
      </trkpt>
      <trkpt lat="47.33646" lon="1.16923">
        <ele>12.15</ele>
        <time>2015-08-15T22:06:49Z</time>
      </trkpt>
      <trkpt lat="47.3366" lon="1.16988">
        <ele>12.15</ele>
        <time>2015-08-15T22:07:05Z</time>
      </trkpt>
      <trkpt lat="47.33676" lon="1.17039">
        <ele>11.67</ele>
        <time>2015-08-15T22:07:18Z</time>
      </trkpt>
      <trkpt lat="47.33699" lon="1.17093">
        <ele>11.67</ele>
        <time>2015-08-15T22:07:32Z</time>
      </trkpt>
      <trkpt lat="47.33719" lon="1.17132">
        <ele>11.67</ele>
        <time>2015-08-15T22:07:44Z</time>
      </trkpt>
      <trkpt lat="47.33738" lon="1.17161">
        <ele>11.19</ele>
        <time>2015-08-15T22:07:58Z</time>
      </trkpt>
      <trkpt lat="47.33739" lon="1.17163">
        <ele>11.67</ele>
        <time>2015-08-15T22:07:59Z</time>
      </trkpt>
      <trkpt lat="47.33742" lon="1.17165">
        <ele>11.19</ele>
        <time>2015-08-15T22:08:24Z</time>
      </trkpt>
      <trkpt lat="47.33747" lon="1.17169">
        <ele>10.71</ele>
        <time>2015-08-15T22:08:37Z</time>
      </trkpt>
      <trkpt lat="47.33772" lon="1.17206">
        <ele>10.71</ele>
        <time>2015-08-15T22:08:48Z</time>
      </trkpt>
      <trkpt lat="47.33773" lon="1.17209">
        <ele>10.71</ele>
        <time>2015-08-15T22:08:49Z</time>
      </trkpt>
      <trkpt lat="47.33807" lon="1.17258">
        <ele>11.19</ele>
        <time>2015-08-15T22:09:02Z</time>
      </trkpt>
      <trkpt lat="47.33854" lon="1.17327">
        <ele>10.71</ele>
        <time>2015-08-15T22:09:21Z</time>
      </trkpt>
      <trkpt lat="47.33884" lon="1.17374">
        <ele>10.23</ele>
        <time>2015-08-15T22:09:34Z</time>
      </trkpt>
      <trkpt lat="47.33912" lon="1.17417">
        <ele>9.75</ele>
        <time>2015-08-15T22:09:47Z</time>
      </trkpt>
      <trkpt lat="47.33935" lon="1.1745">
        <ele>9.75</ele>
        <time>2015-08-15T22:09:58Z</time>
      </trkpt>
      <trkpt lat="47.33967" lon="1.17531">
        <ele>8.79</ele>
        <time>2015-08-15T22:10:16Z</time>
      </trkpt>
      <trkpt lat="47.33998" lon="1.17619">
        <ele>8.31</ele>
        <time>2015-08-15T22:10:34Z</time>
      </trkpt>
      <trkpt lat="47.3403" lon="1.17704">
        <ele>7.83</ele>
        <time>2015-08-15T22:10:52Z</time>
      </trkpt>
      <trkpt lat="47.34061" lon="1.17788">
        <ele>7.35</ele>
        <time>2015-08-15T22:11:09Z</time>
      </trkpt>
      <trkpt lat="47.3408" lon="1.17821">
        <ele>6.87</ele>
        <time>2015-08-15T22:11:19Z</time>
      </trkpt>
      <trkpt lat="47.34097" lon="1.17879">
        <ele>6.87</ele>
        <time>2015-08-15T22:11:32Z</time>
      </trkpt>
      <trkpt lat="47.34124" lon="1.1797">
        <ele>5.91</ele>
        <time>2015-08-15T22:11:50Z</time>
      </trkpt>
      <trkpt lat="47.34134" lon="1.18009">
        <ele>5.42</ele>
        <time>2015-08-15T22:12:03Z</time>
      </trkpt>
      <trkpt lat="47.34151" lon="1.18072">
        <ele>4.94</ele>
        <time>2015-08-15T22:12:17Z</time>
      </trkpt>
      <trkpt lat="47.34181" lon="1.18186">
        <ele>3.98</ele>
        <time>2015-08-15T22:12:40Z</time>
      </trkpt>
      <trkpt lat="47.34196" lon="1.1827">
        <ele>3.5</ele>
        <time>2015-08-15T22:12:58Z</time>
      </trkpt>
      <trkpt lat="47.34196" lon="1.18273">
        <ele>3.5</ele>
        <time>2015-08-15T22:12:59Z</time>
      </trkpt>
      <trkpt lat="47.34197" lon="1.18277">
        <ele>3.02</ele>
        <time>2015-08-15T22:13:00Z</time>
      </trkpt>
      <trkpt lat="47.34234" lon="1.18267">
        <ele>3.98</ele>
        <time>2015-08-15T22:13:11Z</time>
      </trkpt>
      <trkpt lat="47.34238" lon="1.18266">
        <ele>4.46</ele>
        <time>2015-08-15T22:13:12Z</time>
      </trkpt>
      <trkpt lat="47.34255" lon="1.18266">
        <ele>4.46</ele>
        <time>2015-08-15T22:13:16Z</time>
      </trkpt>
      <trkpt lat="47.34262" lon="1.18265">
        <ele>4.46</ele>
        <time>2015-08-15T22:13:18Z</time>
      </trkpt>
      <trkpt lat="47.34282" lon="1.18274">
        <ele>4.46</ele>
        <time>2015-08-15T22:13:26Z</time>
      </trkpt>
      <trkpt lat="47.34298" lon="1.18638">
        <ele>64.07</ele>
        <time>2015-08-16T14:00:00Z</time>
      </trkpt>
    </trkseg>
  </trk>
</gpx>